<?xml version="1.0" encoding="UTF-8" standalone="no" ?>
<gpx xmlns="http://www.topografix.com/GPX/1/1" xmlns:xsi="http://www.w3.org/2001/XMLSchema-instance" xsi:schemaLocation="http://www.topografix.com/GPX/1/1 http://www.topografix.com/GPX/1/1/gpx.xsd" version="1.1" creator="VisuGPX - https://www.visugpx.com">
  <metadata>
    <name>Bauduen</name>
    <desc><![CDATA[Petite randonnée au dessus de Bauduen. Pas de difficulté particulière.
Profiter du panorama à la roche Tramas. Possibilité de descendre au bord du lac pour le longer lors du retour vers Bauduen.]]></desc>
  </metadata>
  <trk>
    <name><![CDATA[Bauduen]]></name>
    <extensions>
      <line xmlns="http://www.topografix.com/GPX/gpx_style/0/2">
        <color>0000FF</color>
        <opacity>1</opacity>
        <width>4</width>
      </line>
    </extensions>
    <trkseg>
      <trkpt lat="43.73259" lon="6.17692">
        <ele>482.9</ele>
        <time>2023-01-30T09:00:00.000Z</time>
      </trkpt>
      <trkpt lat="43.73264" lon="6.17696">
        <ele>483</ele>
        <time>2023-01-30T09:00:09.576Z</time>
      </trkpt>
      <trkpt lat="43.73268" lon="6.177">
        <ele>483.1</ele>
        <time>2023-01-30T09:00:17.759Z</time>
      </trkpt>
      <trkpt lat="43.73271" lon="6.17704">
        <ele>483.3</ele>
        <time>2023-01-30T09:00:25.357Z</time>
      </trkpt>
      <trkpt lat="43.73277" lon="6.17706">
        <ele>483.4</ele>
        <time>2023-01-30T09:00:35.523Z</time>
      </trkpt>
      <trkpt lat="43.73282" lon="6.17705">
        <ele>484.2</ele>
        <time>2023-01-30T09:00:49.455Z</time>
      </trkpt>
      <trkpt lat="43.73287" lon="6.17703">
        <ele>485.2</ele>
        <time>2023-01-30T09:01:03.809Z</time>
      </trkpt>
      <trkpt lat="43.73291" lon="6.177">
        <ele>485.8</ele>
        <time>2023-01-30T09:01:15.820Z</time>
      </trkpt>
      <trkpt lat="43.73294" lon="6.17694">
        <ele>485.9</ele>
        <time>2023-01-30T09:01:25.126Z</time>
      </trkpt>
      <trkpt lat="43.73296" lon="6.17682">
        <ele>486.3</ele>
        <time>2023-01-30T09:01:40.622Z</time>
      </trkpt>
      <trkpt lat="43.73296" lon="6.17671">
        <ele>486.3</ele>
        <time>2023-01-30T09:01:53.072Z</time>
      </trkpt>
      <trkpt lat="43.73298" lon="6.17661">
        <ele>486.5</ele>
        <time>2023-01-30T09:02:05.838Z</time>
      </trkpt>
      <trkpt lat="43.73302" lon="6.17653">
        <ele>486.8</ele>
        <time>2023-01-30T09:02:18.483Z</time>
      </trkpt>
      <trkpt lat="43.73305" lon="6.17645">
        <ele>487.1</ele>
        <time>2023-01-30T09:02:30.200Z</time>
      </trkpt>
      <trkpt lat="43.73307" lon="6.17641">
        <ele>487.5</ele>
        <time>2023-01-30T09:02:38.222Z</time>
      </trkpt>
      <trkpt lat="43.73309" lon="6.17635">
        <ele>487.7</ele>
        <time>2023-01-30T09:02:46.759Z</time>
      </trkpt>
      <trkpt lat="43.73312" lon="6.17624">
        <ele>487.7</ele>
        <time>2023-01-30T09:03:00.065Z</time>
      </trkpt>
      <trkpt lat="43.73317" lon="6.17616">
        <ele>488.3</ele>
        <time>2023-01-30T09:03:15.497Z</time>
      </trkpt>
      <trkpt lat="43.73322" lon="6.17608">
        <ele>488.7</ele>
        <time>2023-01-30T09:03:29.721Z</time>
      </trkpt>
      <trkpt lat="43.73326" lon="6.176">
        <ele>489.1</ele>
        <time>2023-01-30T09:03:42.805Z</time>
      </trkpt>
      <trkpt lat="43.73327" lon="6.176">
        <ele>489.3</ele>
        <time>2023-01-30T09:03:45.954Z</time>
      </trkpt>
      <trkpt lat="43.73332" lon="6.17592">
        <ele>489.6</ele>
        <time>2023-01-30T09:03:59.503Z</time>
      </trkpt>
      <trkpt lat="43.73334" lon="6.17586">
        <ele>489.5</ele>
        <time>2023-01-30T09:04:06.520Z</time>
      </trkpt>
      <trkpt lat="43.73338" lon="6.17583">
        <ele>490.4</ele>
        <time>2023-01-30T09:04:22.012Z</time>
      </trkpt>
      <trkpt lat="43.73341" lon="6.17581">
        <ele>491</ele>
        <time>2023-01-30T09:04:30.683Z</time>
      </trkpt>
      <trkpt lat="43.73345" lon="6.17572">
        <ele>490.4</ele>
        <time>2023-01-30T09:04:41.129Z</time>
      </trkpt>
      <trkpt lat="43.73348" lon="6.17563">
        <ele>489.8</ele>
        <time>2023-01-30T09:04:50.928Z</time>
      </trkpt>
      <trkpt lat="43.73352" lon="6.17554">
        <ele>489.2</ele>
        <time>2023-01-30T09:05:01.374Z</time>
      </trkpt>
      <trkpt lat="43.73356" lon="6.17545">
        <ele>489.1</ele>
        <time>2023-01-30T09:05:11.820Z</time>
      </trkpt>
      <trkpt lat="43.73359" lon="6.17536">
        <ele>488.8</ele>
        <time>2023-01-30T09:05:21.619Z</time>
      </trkpt>
      <trkpt lat="43.73363" lon="6.17527">
        <ele>488.2</ele>
        <time>2023-01-30T09:05:32.066Z</time>
      </trkpt>
      <trkpt lat="43.73366" lon="6.17518">
        <ele>487.7</ele>
        <time>2023-01-30T09:05:41.865Z</time>
      </trkpt>
      <trkpt lat="43.7337" lon="6.17509">
        <ele>487.2</ele>
        <time>2023-01-30T09:05:52.313Z</time>
      </trkpt>
      <trkpt lat="43.73375" lon="6.17502">
        <ele>487.3</ele>
        <time>2023-01-30T09:06:05.041Z</time>
      </trkpt>
      <trkpt lat="43.7338" lon="6.17495">
        <ele>487.7</ele>
        <time>2023-01-30T09:06:17.770Z</time>
      </trkpt>
      <trkpt lat="43.73383" lon="6.17489">
        <ele>487.8</ele>
        <time>2023-01-30T09:06:26.807Z</time>
      </trkpt>
      <trkpt lat="43.73385" lon="6.17483">
        <ele>487.9</ele>
        <time>2023-01-30T09:06:34.992Z</time>
      </trkpt>
      <trkpt lat="43.73391" lon="6.17477">
        <ele>488.6</ele>
        <time>2023-01-30T09:06:48.890Z</time>
      </trkpt>
      <trkpt lat="43.73396" lon="6.17471">
        <ele>488.8</ele>
        <time>2023-01-30T09:07:01.316Z</time>
      </trkpt>
      <trkpt lat="43.73401" lon="6.17465">
        <ele>488.2</ele>
        <time>2023-01-30T09:07:10.371Z</time>
      </trkpt>
      <trkpt lat="43.73405" lon="6.17459">
        <ele>487.7</ele>
        <time>2023-01-30T09:07:18.444Z</time>
      </trkpt>
      <trkpt lat="43.73413" lon="6.1746">
        <ele>489</ele>
        <time>2023-01-30T09:07:40.104Z</time>
      </trkpt>
      <trkpt lat="43.7342" lon="6.1746">
        <ele>490.3</ele>
        <time>2023-01-30T09:07:58.981Z</time>
      </trkpt>
      <trkpt lat="43.73425" lon="6.17458">
        <ele>490.6</ele>
        <time>2023-01-30T09:08:08.625Z</time>
      </trkpt>
      <trkpt lat="43.7343" lon="6.17456">
        <ele>490.9</ele>
        <time>2023-01-30T09:08:18.270Z</time>
      </trkpt>
      <trkpt lat="43.73435" lon="6.17454">
        <ele>491.2</ele>
        <time>2023-01-30T09:08:27.915Z</time>
      </trkpt>
      <trkpt lat="43.7344" lon="6.17452">
        <ele>491.3</ele>
        <time>2023-01-30T09:08:37.560Z</time>
      </trkpt>
      <trkpt lat="43.73446" lon="6.17449">
        <ele>491.6</ele>
        <time>2023-01-30T09:08:52.291Z</time>
      </trkpt>
      <trkpt lat="43.73453" lon="6.17446">
        <ele>492.4</ele>
        <time>2023-01-30T09:09:09.211Z</time>
      </trkpt>
      <trkpt lat="43.73459" lon="6.17443">
        <ele>493.4</ele>
        <time>2023-01-30T09:09:23.942Z</time>
      </trkpt>
      <trkpt lat="43.73465" lon="6.1744">
        <ele>494.4</ele>
        <time>2023-01-30T09:09:38.674Z</time>
      </trkpt>
      <trkpt lat="43.7347" lon="6.17435">
        <ele>494.6</ele>
        <time>2023-01-30T09:09:48.715Z</time>
      </trkpt>
      <trkpt lat="43.73474" lon="6.1743">
        <ele>494.7</ele>
        <time>2023-01-30T09:09:57.488Z</time>
      </trkpt>
      <trkpt lat="43.73479" lon="6.17424">
        <ele>494.7</ele>
        <time>2023-01-30T09:10:08.260Z</time>
      </trkpt>
      <trkpt lat="43.73483" lon="6.17419">
        <ele>494.7</ele>
        <time>2023-01-30T09:10:17.035Z</time>
      </trkpt>
      <trkpt lat="43.7349" lon="6.17412">
        <ele>495.1</ele>
        <time>2023-01-30T09:10:32.805Z</time>
      </trkpt>
      <trkpt lat="43.73496" lon="6.17405">
        <ele>495.5</ele>
        <time>2023-01-30T09:10:47.135Z</time>
      </trkpt>
      <trkpt lat="43.73502" lon="6.17403">
        <ele>496.3</ele>
        <time>2023-01-30T09:11:01.241Z</time>
      </trkpt>
      <trkpt lat="43.73507" lon="6.17401">
        <ele>496.9</ele>
        <time>2023-01-30T09:11:13.138Z</time>
      </trkpt>
      <trkpt lat="43.73514" lon="6.17399">
        <ele>497.6</ele>
        <time>2023-01-30T09:11:28.956Z</time>
      </trkpt>
      <trkpt lat="43.7352" lon="6.17397">
        <ele>498.3</ele>
        <time>2023-01-30T09:11:42.615Z</time>
      </trkpt>
      <trkpt lat="43.73525" lon="6.17395">
        <ele>498.7</ele>
        <time>2023-01-30T09:11:53.776Z</time>
      </trkpt>
      <trkpt lat="43.73532" lon="6.17391">
        <ele>498.7</ele>
        <time>2023-01-30T09:12:05.638Z</time>
      </trkpt>
      <trkpt lat="43.73538" lon="6.17393">
        <ele>499.5</ele>
        <time>2023-01-30T09:12:20.544Z</time>
      </trkpt>
      <trkpt lat="43.73544" lon="6.17395">
        <ele>500.3</ele>
        <time>2023-01-30T09:12:35.451Z</time>
      </trkpt>
      <trkpt lat="43.73549" lon="6.17401">
        <ele>501.7</ele>
        <time>2023-01-30T09:12:57.259Z</time>
      </trkpt>
      <trkpt lat="43.73557" lon="6.17404">
        <ele>502.7</ele>
        <time>2023-01-30T09:13:13.196Z</time>
      </trkpt>
      <trkpt lat="43.73564" lon="6.17407">
        <ele>502.7</ele>
        <time>2023-01-30T09:13:27.287Z</time>
      </trkpt>
      <trkpt lat="43.73572" lon="6.1741">
        <ele>502.9</ele>
        <time>2023-01-30T09:13:41.557Z</time>
      </trkpt>
      <trkpt lat="43.7358" lon="6.17413">
        <ele>503.2</ele>
        <time>2023-01-30T09:13:55.828Z</time>
      </trkpt>
      <trkpt lat="43.73589" lon="6.17416">
        <ele>503.3</ele>
        <time>2023-01-30T09:14:10.581Z</time>
      </trkpt>
      <trkpt lat="43.73597" lon="6.17418">
        <ele>503.3</ele>
        <time>2023-01-30T09:14:23.538Z</time>
      </trkpt>
      <trkpt lat="43.73602" lon="6.17419">
        <ele>503.1</ele>
        <time>2023-01-30T09:14:31.296Z</time>
      </trkpt>
      <trkpt lat="43.73606" lon="6.1742">
        <ele>503</ele>
        <time>2023-01-30T09:14:37.538Z</time>
      </trkpt>
      <trkpt lat="43.73611" lon="6.1742">
        <ele>502.9</ele>
        <time>2023-01-30T09:14:45.216Z</time>
      </trkpt>
      <trkpt lat="43.73615" lon="6.17421">
        <ele>503.2</ele>
        <time>2023-01-30T09:14:51.459Z</time>
      </trkpt>
      <trkpt lat="43.7362" lon="6.17422">
        <ele>503.6</ele>
        <time>2023-01-30T09:15:01.683Z</time>
      </trkpt>
      <trkpt lat="43.73628" lon="6.17423">
        <ele>504.1</ele>
        <time>2023-01-30T09:15:17.038Z</time>
      </trkpt>
      <trkpt lat="43.73634" lon="6.17422">
        <ele>504</ele>
        <time>2023-01-30T09:15:25.997Z</time>
      </trkpt>
      <trkpt lat="43.73639" lon="6.17421">
        <ele>503.9</ele>
        <time>2023-01-30T09:15:33.488Z</time>
      </trkpt>
      <trkpt lat="43.73644" lon="6.1742">
        <ele>504.2</ele>
        <time>2023-01-30T09:15:43.267Z</time>
      </trkpt>
      <trkpt lat="43.7365" lon="6.17419">
        <ele>504.6</ele>
        <time>2023-01-30T09:15:54.966Z</time>
      </trkpt>
      <trkpt lat="43.73655" lon="6.17418">
        <ele>504.9</ele>
        <time>2023-01-30T09:16:04.746Z</time>
      </trkpt>
      <trkpt lat="43.7366" lon="6.17417">
        <ele>505.3</ele>
        <time>2023-01-30T09:16:14.527Z</time>
      </trkpt>
      <trkpt lat="43.73667" lon="6.17417">
        <ele>506</ele>
        <time>2023-01-30T09:16:26.232Z</time>
      </trkpt>
      <trkpt lat="43.73674" lon="6.17416">
        <ele>505.6</ele>
        <time>2023-01-30T09:16:38.001Z</time>
      </trkpt>
      <trkpt lat="43.73677" lon="6.17416">
        <ele>505.5</ele>
        <time>2023-01-30T09:16:42.250Z</time>
      </trkpt>
      <trkpt lat="43.73684" lon="6.17416">
        <ele>505.3</ele>
        <time>2023-01-30T09:16:52.307Z</time>
      </trkpt>
      <trkpt lat="43.73686" lon="6.17425">
        <ele>506.6</ele>
        <time>2023-01-30T09:17:12.998Z</time>
      </trkpt>
      <trkpt lat="43.73687" lon="6.17432">
        <ele>507.7</ele>
        <time>2023-01-30T09:17:30.784Z</time>
      </trkpt>
      <trkpt lat="43.73688" lon="6.17439">
        <ele>508.9</ele>
        <time>2023-01-30T09:17:48.570Z</time>
      </trkpt>
      <trkpt lat="43.73689" lon="6.17446">
        <ele>510</ele>
        <time>2023-01-30T09:18:05.681Z</time>
      </trkpt>
      <trkpt lat="43.73689" lon="6.17452">
        <ele>510.9</ele>
        <time>2023-01-30T09:18:19.746Z</time>
      </trkpt>
      <trkpt lat="43.73689" lon="6.17461">
        <ele>512.3</ele>
        <time>2023-01-30T09:18:41.496Z</time>
      </trkpt>
      <trkpt lat="43.73692" lon="6.17468">
        <ele>513.4</ele>
        <time>2023-01-30T09:18:59.103Z</time>
      </trkpt>
      <trkpt lat="43.73699" lon="6.17474">
        <ele>514.8</ele>
        <time>2023-01-30T09:19:33.062Z</time>
      </trkpt>
      <trkpt lat="43.73706" lon="6.17479">
        <ele>517.7</ele>
        <time>2023-01-30T09:20:05.552Z</time>
      </trkpt>
      <trkpt lat="43.73712" lon="6.1748">
        <ele>518.3</ele>
        <time>2023-01-30T09:20:17.901Z</time>
      </trkpt>
      <trkpt lat="43.73718" lon="6.17482">
        <ele>518.7</ele>
        <time>2023-01-30T09:20:30.511Z</time>
      </trkpt>
      <trkpt lat="43.73724" lon="6.17483">
        <ele>519.2</ele>
        <time>2023-01-30T09:20:42.860Z</time>
      </trkpt>
      <trkpt lat="43.7373" lon="6.17484">
        <ele>519.7</ele>
        <time>2023-01-30T09:20:55.210Z</time>
      </trkpt>
      <trkpt lat="43.73737" lon="6.17485">
        <ele>520.1</ele>
        <time>2023-01-30T09:21:08.614Z</time>
      </trkpt>
      <trkpt lat="43.73743" lon="6.17486">
        <ele>520.5</ele>
        <time>2023-01-30T09:21:20.125Z</time>
      </trkpt>
      <trkpt lat="43.7375" lon="6.17489">
        <ele>521.4</ele>
        <time>2023-01-30T09:21:36.172Z</time>
      </trkpt>
      <trkpt lat="43.73756" lon="6.17492">
        <ele>521.9</ele>
        <time>2023-01-30T09:21:50.144Z</time>
      </trkpt>
      <trkpt lat="43.73761" lon="6.17493">
        <ele>521.8</ele>
        <time>2023-01-30T09:21:57.594Z</time>
      </trkpt>
      <trkpt lat="43.73766" lon="6.17494">
        <ele>521.7</ele>
        <time>2023-01-30T09:22:05.045Z</time>
      </trkpt>
      <trkpt lat="43.73774" lon="6.17494">
        <ele>521</ele>
        <time>2023-01-30T09:22:16.009Z</time>
      </trkpt>
      <trkpt lat="43.7378" lon="6.17501">
        <ele>522.6</ele>
        <time>2023-01-30T09:22:41.099Z</time>
      </trkpt>
      <trkpt lat="43.73785" lon="6.17503">
        <ele>523.6</ele>
        <time>2023-01-30T09:22:57.114Z</time>
      </trkpt>
      <trkpt lat="43.73789" lon="6.17504">
        <ele>524.4</ele>
        <time>2023-01-30T09:23:09.623Z</time>
      </trkpt>
      <trkpt lat="43.73794" lon="6.17507">
        <ele>525.6</ele>
        <time>2023-01-30T09:23:27.887Z</time>
      </trkpt>
      <trkpt lat="43.73799" lon="6.17509">
        <ele>526.7</ele>
        <time>2023-01-30T09:23:45.330Z</time>
      </trkpt>
      <trkpt lat="43.73806" lon="6.17515">
        <ele>528.9</ele>
        <time>2023-01-30T09:24:19.328Z</time>
      </trkpt>
      <trkpt lat="43.73811" lon="6.17518">
        <ele>530.1</ele>
        <time>2023-01-30T09:24:36.004Z</time>
      </trkpt>
      <trkpt lat="43.73816" lon="6.17521">
        <ele>531</ele>
        <time>2023-01-30T09:24:52.681Z</time>
      </trkpt>
      <trkpt lat="43.73824" lon="6.17524">
        <ele>531.6</ele>
        <time>2023-01-30T09:25:09.073Z</time>
      </trkpt>
      <trkpt lat="43.7383" lon="6.17526">
        <ele>531.8</ele>
        <time>2023-01-30T09:25:19.776Z</time>
      </trkpt>
      <trkpt lat="43.73833" lon="6.17528">
        <ele>532.1</ele>
        <time>2023-01-30T09:25:26.771Z</time>
      </trkpt>
      <trkpt lat="43.73834" lon="6.17534">
        <ele>533.8</ele>
        <time>2023-01-30T09:25:56.234Z</time>
      </trkpt>
      <trkpt lat="43.73833" lon="6.17542">
        <ele>536.1</ele>
        <time>2023-01-30T09:26:36.596Z</time>
      </trkpt>
      <trkpt lat="43.73835" lon="6.17549">
        <ele>538.1</ele>
        <time>2023-01-30T09:27:10.631Z</time>
      </trkpt>
      <trkpt lat="43.7384" lon="6.17555">
        <ele>539.6</ele>
        <time>2023-01-30T09:27:34.265Z</time>
      </trkpt>
      <trkpt lat="43.73844" lon="6.17561">
        <ele>541</ele>
        <time>2023-01-30T09:27:55.331Z</time>
      </trkpt>
      <trkpt lat="43.73848" lon="6.17567">
        <ele>542.1</ele>
        <time>2023-01-30T09:28:08.823Z</time>
      </trkpt>
      <trkpt lat="43.73852" lon="6.17573">
        <ele>542.9</ele>
        <time>2023-01-30T09:28:22.315Z</time>
      </trkpt>
      <trkpt lat="43.73856" lon="6.17579">
        <ele>543.3</ele>
        <time>2023-01-30T09:28:35.807Z</time>
      </trkpt>
      <trkpt lat="43.7386" lon="6.17585">
        <ele>543.7</ele>
        <time>2023-01-30T09:28:49.299Z</time>
      </trkpt>
      <trkpt lat="43.73864" lon="6.1759">
        <ele>544</ele>
        <time>2023-01-30T09:28:59.450Z</time>
      </trkpt>
      <trkpt lat="43.73868" lon="6.17594">
        <ele>544.3</ele>
        <time>2023-01-30T09:29:08.744Z</time>
      </trkpt>
      <trkpt lat="43.73871" lon="6.17598">
        <ele>544.5</ele>
        <time>2023-01-30T09:29:16.343Z</time>
      </trkpt>
      <trkpt lat="43.73873" lon="6.17604">
        <ele>545.2</ele>
        <time>2023-01-30T09:29:28.613Z</time>
      </trkpt>
      <trkpt lat="43.73874" lon="6.17611">
        <ele>546.3</ele>
        <time>2023-01-30T09:29:45.724Z</time>
      </trkpt>
      <trkpt lat="43.73875" lon="6.1762">
        <ele>546.8</ele>
        <time>2023-01-30T09:29:58.895Z</time>
      </trkpt>
      <trkpt lat="43.73876" lon="6.17629">
        <ele>547.5</ele>
        <time>2023-01-30T09:30:13.528Z</time>
      </trkpt>
      <trkpt lat="43.73876" lon="6.17638">
        <ele>548.2</ele>
        <time>2023-01-30T09:30:27.991Z</time>
      </trkpt>
      <trkpt lat="43.73878" lon="6.1765">
        <ele>548.7</ele>
        <time>2023-01-30T09:30:44.789Z</time>
      </trkpt>
      <trkpt lat="43.7388" lon="6.17661">
        <ele>549.2</ele>
        <time>2023-01-30T09:31:00.262Z</time>
      </trkpt>
      <trkpt lat="43.73885" lon="6.17669">
        <ele>549.4</ele>
        <time>2023-01-30T09:31:13.254Z</time>
      </trkpt>
      <trkpt lat="43.73887" lon="6.17678">
        <ele>549.6</ele>
        <time>2023-01-30T09:31:24.928Z</time>
      </trkpt>
      <trkpt lat="43.73888" lon="6.17687">
        <ele>549.8</ele>
        <time>2023-01-30T09:31:36.219Z</time>
      </trkpt>
      <trkpt lat="43.7389" lon="6.17694">
        <ele>549.9</ele>
        <time>2023-01-30T09:31:47.411Z</time>
      </trkpt>
      <trkpt lat="43.73891" lon="6.17701">
        <ele>550.7</ele>
        <time>2023-01-30T09:31:58.021Z</time>
      </trkpt>
      <trkpt lat="43.73892" lon="6.17708">
        <ele>551.7</ele>
        <time>2023-01-30T09:32:14.103Z</time>
      </trkpt>
      <trkpt lat="43.73893" lon="6.17716">
        <ele>552.7</ele>
        <time>2023-01-30T09:32:32.401Z</time>
      </trkpt>
      <trkpt lat="43.73893" lon="6.17723">
        <ele>553.8</ele>
        <time>2023-01-30T09:32:48.178Z</time>
      </trkpt>
      <trkpt lat="43.73894" lon="6.1773">
        <ele>554.9</ele>
        <time>2023-01-30T09:33:04.261Z</time>
      </trkpt>
      <trkpt lat="43.73895" lon="6.17737">
        <ele>555.9</ele>
        <time>2023-01-30T09:33:20.841Z</time>
      </trkpt>
      <trkpt lat="43.73895" lon="6.17744">
        <ele>557</ele>
        <time>2023-01-30T09:33:37.108Z</time>
      </trkpt>
      <trkpt lat="43.73897" lon="6.17754">
        <ele>558.8</ele>
        <time>2023-01-30T09:34:09.713Z</time>
      </trkpt>
      <trkpt lat="43.73899" lon="6.17763">
        <ele>561</ele>
        <time>2023-01-30T09:34:39.303Z</time>
      </trkpt>
      <trkpt lat="43.73901" lon="6.1777">
        <ele>562.6</ele>
        <time>2023-01-30T09:35:06.342Z</time>
      </trkpt>
      <trkpt lat="43.73902" lon="6.17777">
        <ele>564.3</ele>
        <time>2023-01-30T09:35:31.975Z</time>
      </trkpt>
      <trkpt lat="43.73908" lon="6.17783">
        <ele>566.1</ele>
        <time>2023-01-30T09:36:04.208Z</time>
      </trkpt>
      <trkpt lat="43.73913" lon="6.17788">
        <ele>568.1</ele>
        <time>2023-01-30T09:36:31.069Z</time>
      </trkpt>
      <trkpt lat="43.73918" lon="6.1779">
        <ele>569.1</ele>
        <time>2023-01-30T09:36:46.963Z</time>
      </trkpt>
      <trkpt lat="43.73924" lon="6.17791">
        <ele>569.9</ele>
        <time>2023-01-30T09:37:02.356Z</time>
      </trkpt>
      <trkpt lat="43.73929" lon="6.17792">
        <ele>570.7</ele>
        <time>2023-01-30T09:37:15.225Z</time>
      </trkpt>
      <trkpt lat="43.73934" lon="6.17793">
        <ele>571.4</ele>
        <time>2023-01-30T09:37:26.781Z</time>
      </trkpt>
      <trkpt lat="43.73939" lon="6.17794">
        <ele>572.2</ele>
        <time>2023-01-30T09:37:38.337Z</time>
      </trkpt>
      <trkpt lat="43.73943" lon="6.17795">
        <ele>572.9</ele>
        <time>2023-01-30T09:37:47.634Z</time>
      </trkpt>
      <trkpt lat="43.73948" lon="6.17796">
        <ele>572.9</ele>
        <time>2023-01-30T09:37:59.191Z</time>
      </trkpt>
      <trkpt lat="43.73953" lon="6.178">
        <ele>573.4</ele>
        <time>2023-01-30T09:38:11.177Z</time>
      </trkpt>
      <trkpt lat="43.73955" lon="6.17808">
        <ele>575</ele>
        <time>2023-01-30T09:38:35.855Z</time>
      </trkpt>
      <trkpt lat="43.73959" lon="6.17814">
        <ele>575.8</ele>
        <time>2023-01-30T09:38:51.232Z</time>
      </trkpt>
      <trkpt lat="43.73963" lon="6.17819">
        <ele>576.7</ele>
        <time>2023-01-30T09:39:05.284Z</time>
      </trkpt>
      <trkpt lat="43.73969" lon="6.17824">
        <ele>577.6</ele>
        <time>2023-01-30T09:39:41.495Z</time>
      </trkpt>
      <trkpt lat="43.73974" lon="6.1783">
        <ele>579.2</ele>
        <time>2023-01-30T09:40:15.711Z</time>
      </trkpt>
      <trkpt lat="43.7398" lon="6.17835">
        <ele>582.2</ele>
        <time>2023-01-30T09:40:51.923Z</time>
      </trkpt>
      <trkpt lat="43.73985" lon="6.1784">
        <ele>585.3</ele>
        <time>2023-01-30T09:41:23.818Z</time>
      </trkpt>
      <trkpt lat="43.73991" lon="6.17846">
        <ele>588.4</ele>
        <time>2023-01-30T09:42:14.690Z</time>
      </trkpt>
      <trkpt lat="43.73997" lon="6.17852">
        <ele>591.1</ele>
        <time>2023-01-30T09:43:05.562Z</time>
      </trkpt>
      <trkpt lat="43.74002" lon="6.17854">
        <ele>592</ele>
        <time>2023-01-30T09:43:19.544Z</time>
      </trkpt>
      <trkpt lat="43.74006" lon="6.17856">
        <ele>592.6</ele>
        <time>2023-01-30T09:43:30.970Z</time>
      </trkpt>
      <trkpt lat="43.74012" lon="6.17859">
        <ele>593.5</ele>
        <time>2023-01-30T09:43:47.702Z</time>
      </trkpt>
      <trkpt lat="43.74017" lon="6.17862">
        <ele>594.4</ele>
        <time>2023-01-30T09:44:01.996Z</time>
      </trkpt>
      <trkpt lat="43.7402" lon="6.17862">
        <ele>594.4</ele>
        <time>2023-01-30T09:44:06.695Z</time>
      </trkpt>
      <trkpt lat="43.74027" lon="6.17862">
        <ele>594.4</ele>
        <time>2023-01-30T09:44:17.659Z</time>
      </trkpt>
      <trkpt lat="43.74032" lon="6.17862">
        <ele>594.9</ele>
        <time>2023-01-30T09:44:29.070Z</time>
      </trkpt>
      <trkpt lat="43.74038" lon="6.17863">
        <ele>595.6</ele>
        <time>2023-01-30T09:44:42.862Z</time>
      </trkpt>
      <trkpt lat="43.74043" lon="6.17863">
        <ele>596.2</ele>
        <time>2023-01-30T09:44:54.274Z</time>
      </trkpt>
      <trkpt lat="43.74048" lon="6.17863">
        <ele>596.8</ele>
        <time>2023-01-30T09:45:05.686Z</time>
      </trkpt>
      <trkpt lat="43.74056" lon="6.17863">
        <ele>597.4</ele>
        <time>2023-01-30T09:45:17.641Z</time>
      </trkpt>
      <trkpt lat="43.74065" lon="6.17863">
        <ele>597</ele>
        <time>2023-01-30T09:45:31.091Z</time>
      </trkpt>
      <trkpt lat="43.74073" lon="6.17862">
        <ele>596.6</ele>
        <time>2023-01-30T09:45:43.095Z</time>
      </trkpt>
      <trkpt lat="43.74081" lon="6.17862">
        <ele>596.3</ele>
        <time>2023-01-30T09:45:55.052Z</time>
      </trkpt>
      <trkpt lat="43.74087" lon="6.17863">
        <ele>596.1</ele>
        <time>2023-01-30T09:46:03.316Z</time>
      </trkpt>
      <trkpt lat="43.74093" lon="6.17863">
        <ele>595.7</ele>
        <time>2023-01-30T09:46:11.521Z</time>
      </trkpt>
      <trkpt lat="43.74098" lon="6.17864">
        <ele>595.4</ele>
        <time>2023-01-30T09:46:18.430Z</time>
      </trkpt>
      <trkpt lat="43.74104" lon="6.17864">
        <ele>595.1</ele>
        <time>2023-01-30T09:46:26.636Z</time>
      </trkpt>
      <trkpt lat="43.7411" lon="6.17864">
        <ele>594.7</ele>
        <time>2023-01-30T09:46:34.847Z</time>
      </trkpt>
      <trkpt lat="43.74115" lon="6.17864">
        <ele>594.4</ele>
        <time>2023-01-30T09:46:41.690Z</time>
      </trkpt>
      <trkpt lat="43.74121" lon="6.17863">
        <ele>594.1</ele>
        <time>2023-01-30T09:46:49.960Z</time>
      </trkpt>
      <trkpt lat="43.74126" lon="6.17863">
        <ele>593.9</ele>
        <time>2023-01-30T09:46:56.804Z</time>
      </trkpt>
      <trkpt lat="43.74132" lon="6.17864">
        <ele>593.9</ele>
        <time>2023-01-30T09:47:06.268Z</time>
      </trkpt>
      <trkpt lat="43.74137" lon="6.17865">
        <ele>593.9</ele>
        <time>2023-01-30T09:47:14.181Z</time>
      </trkpt>
      <trkpt lat="43.74142" lon="6.17868">
        <ele>594</ele>
        <time>2023-01-30T09:47:22.712Z</time>
      </trkpt>
      <trkpt lat="43.74146" lon="6.1787">
        <ele>593.9</ele>
        <time>2023-01-30T09:47:29.371Z</time>
      </trkpt>
      <trkpt lat="43.74151" lon="6.17874">
        <ele>593.9</ele>
        <time>2023-01-30T09:47:38.654Z</time>
      </trkpt>
      <trkpt lat="43.74156" lon="6.17877">
        <ele>594</ele>
        <time>2023-01-30T09:47:47.415Z</time>
      </trkpt>
      <trkpt lat="43.74158" lon="6.17885">
        <ele>595.3</ele>
        <time>2023-01-30T09:48:07.265Z</time>
      </trkpt>
      <trkpt lat="43.7416" lon="6.17892">
        <ele>596.4</ele>
        <time>2023-01-30T09:48:24.916Z</time>
      </trkpt>
      <trkpt lat="43.74162" lon="6.17898">
        <ele>597.1</ele>
        <time>2023-01-30T09:48:37.394Z</time>
      </trkpt>
      <trkpt lat="43.74163" lon="6.17904">
        <ele>597.8</ele>
        <time>2023-01-30T09:48:49.022Z</time>
      </trkpt>
      <trkpt lat="43.74167" lon="6.17908">
        <ele>597.7</ele>
        <time>2023-01-30T09:48:58.111Z</time>
      </trkpt>
      <trkpt lat="43.74171" lon="6.17911">
        <ele>597.8</ele>
        <time>2023-01-30T09:49:06.490Z</time>
      </trkpt>
      <trkpt lat="43.74174" lon="6.17915">
        <ele>597.9</ele>
        <time>2023-01-30T09:49:14.162Z</time>
      </trkpt>
      <trkpt lat="43.74178" lon="6.17919">
        <ele>598.1</ele>
        <time>2023-01-30T09:49:23.251Z</time>
      </trkpt>
      <trkpt lat="43.74182" lon="6.17922">
        <ele>598.5</ele>
        <time>2023-01-30T09:49:31.630Z</time>
      </trkpt>
      <trkpt lat="43.74186" lon="6.17926">
        <ele>598.8</ele>
        <time>2023-01-30T09:49:40.719Z</time>
      </trkpt>
      <trkpt lat="43.74189" lon="6.17929">
        <ele>599.2</ele>
        <time>2023-01-30T09:49:47.536Z</time>
      </trkpt>
      <trkpt lat="43.74193" lon="6.17933">
        <ele>599.7</ele>
        <time>2023-01-30T09:49:56.627Z</time>
      </trkpt>
      <trkpt lat="43.74199" lon="6.17937">
        <ele>599.9</ele>
        <time>2023-01-30T09:50:08.088Z</time>
      </trkpt>
      <trkpt lat="43.74203" lon="6.17941">
        <ele>600.3</ele>
        <time>2023-01-30T09:50:18.493Z</time>
      </trkpt>
      <trkpt lat="43.74207" lon="6.17945">
        <ele>600.8</ele>
        <time>2023-01-30T09:50:28.899Z</time>
      </trkpt>
      <trkpt lat="43.74211" lon="6.17952">
        <ele>601.6</ele>
        <time>2023-01-30T09:50:44.017Z</time>
      </trkpt>
      <trkpt lat="43.74215" lon="6.17958">
        <ele>602.3</ele>
        <time>2023-01-30T09:50:57.848Z</time>
      </trkpt>
      <trkpt lat="43.74221" lon="6.17966">
        <ele>603</ele>
        <time>2023-01-30T09:51:14.988Z</time>
      </trkpt>
      <trkpt lat="43.74226" lon="6.17968">
        <ele>603.2</ele>
        <time>2023-01-30T09:51:24.190Z</time>
      </trkpt>
      <trkpt lat="43.74232" lon="6.1797">
        <ele>603.5</ele>
        <time>2023-01-30T09:51:35.471Z</time>
      </trkpt>
      <trkpt lat="43.74238" lon="6.17971">
        <ele>603.8</ele>
        <time>2023-01-30T09:51:46.519Z</time>
      </trkpt>
      <trkpt lat="43.74245" lon="6.17976">
        <ele>605</ele>
        <time>2023-01-30T09:52:07.197Z</time>
      </trkpt>
      <trkpt lat="43.74252" lon="6.17982">
        <ele>606.4</ele>
        <time>2023-01-30T09:52:30.295Z</time>
      </trkpt>
      <trkpt lat="43.74258" lon="6.17985">
        <ele>606.8</ele>
        <time>2023-01-30T09:52:43.135Z</time>
      </trkpt>
      <trkpt lat="43.74263" lon="6.17987">
        <ele>607.3</ele>
        <time>2023-01-30T09:52:53.611Z</time>
      </trkpt>
      <trkpt lat="43.74271" lon="6.17991">
        <ele>608</ele>
        <time>2023-01-30T09:53:11.291Z</time>
      </trkpt>
      <trkpt lat="43.74278" lon="6.17995">
        <ele>608.7</ele>
        <time>2023-01-30T09:53:27.032Z</time>
      </trkpt>
      <trkpt lat="43.74283" lon="6.17997">
        <ele>608.9</ele>
        <time>2023-01-30T09:53:36.231Z</time>
      </trkpt>
      <trkpt lat="43.74288" lon="6.17998">
        <ele>609.1</ele>
        <time>2023-01-30T09:53:45.162Z</time>
      </trkpt>
      <trkpt lat="43.74295" lon="6.18">
        <ele>609.4</ele>
        <time>2023-01-30T09:53:57.461Z</time>
      </trkpt>
      <trkpt lat="43.74301" lon="6.18002">
        <ele>609.5</ele>
        <time>2023-01-30T09:54:08.082Z</time>
      </trkpt>
      <trkpt lat="43.74309" lon="6.18007">
        <ele>609.6</ele>
        <time>2023-01-30T09:54:21.820Z</time>
      </trkpt>
      <trkpt lat="43.74317" lon="6.18011">
        <ele>609.5</ele>
        <time>2023-01-30T09:54:35.133Z</time>
      </trkpt>
      <trkpt lat="43.74324" lon="6.18011">
        <ele>608.9</ele>
        <time>2023-01-30T09:54:44.727Z</time>
      </trkpt>
      <trkpt lat="43.74329" lon="6.18014">
        <ele>608.9</ele>
        <time>2023-01-30T09:54:53.508Z</time>
      </trkpt>
      <trkpt lat="43.74334" lon="6.18017">
        <ele>609</ele>
        <time>2023-01-30T09:55:02.290Z</time>
      </trkpt>
      <trkpt lat="43.7434" lon="6.18022">
        <ele>609.2</ele>
        <time>2023-01-30T09:55:14.564Z</time>
      </trkpt>
      <trkpt lat="43.74346" lon="6.18027">
        <ele>609.5</ele>
        <time>2023-01-30T09:55:26.838Z</time>
      </trkpt>
      <trkpt lat="43.74353" lon="6.18033">
        <ele>609.6</ele>
        <time>2023-01-30T09:55:40.229Z</time>
      </trkpt>
      <trkpt lat="43.7436" lon="6.18036">
        <ele>609.3</ele>
        <time>2023-01-30T09:55:50.379Z</time>
      </trkpt>
      <trkpt lat="43.74366" lon="6.18037">
        <ele>609.3</ele>
        <time>2023-01-30T09:55:59.828Z</time>
      </trkpt>
      <trkpt lat="43.74371" lon="6.18037">
        <ele>609.3</ele>
        <time>2023-01-30T09:56:07.646Z</time>
      </trkpt>
      <trkpt lat="43.74376" lon="6.18039">
        <ele>609.6</ele>
        <time>2023-01-30T09:56:17.444Z</time>
      </trkpt>
      <trkpt lat="43.7438" lon="6.18042">
        <ele>610</ele>
        <time>2023-01-30T09:56:26.930Z</time>
      </trkpt>
      <trkpt lat="43.74385" lon="6.18045">
        <ele>610.5</ele>
        <time>2023-01-30T09:56:38.443Z</time>
      </trkpt>
      <trkpt lat="43.7439" lon="6.18048">
        <ele>611</ele>
        <time>2023-01-30T09:56:49.957Z</time>
      </trkpt>
      <trkpt lat="43.74396" lon="6.18049">
        <ele>611.6</ele>
        <time>2023-01-30T09:57:02.692Z</time>
      </trkpt>
      <trkpt lat="43.74402" lon="6.1805">
        <ele>612.1</ele>
        <time>2023-01-30T09:57:15.428Z</time>
      </trkpt>
      <trkpt lat="43.74407" lon="6.18051">
        <ele>612.5</ele>
        <time>2023-01-30T09:57:25.197Z</time>
      </trkpt>
      <trkpt lat="43.74411" lon="6.18051">
        <ele>612.9</ele>
        <time>2023-01-30T09:57:32.931Z</time>
      </trkpt>
      <trkpt lat="43.74416" lon="6.18052">
        <ele>613.3</ele>
        <time>2023-01-30T09:57:42.700Z</time>
      </trkpt>
      <trkpt lat="43.7442" lon="6.18052">
        <ele>613.3</ele>
        <time>2023-01-30T09:57:50.436Z</time>
      </trkpt>
      <trkpt lat="43.74425" lon="6.18055">
        <ele>613.3</ele>
        <time>2023-01-30T09:57:58.972Z</time>
      </trkpt>
      <trkpt lat="43.74427" lon="6.18061">
        <ele>613.9</ele>
        <time>2023-01-30T09:58:10.047Z</time>
      </trkpt>
      <trkpt lat="43.74428" lon="6.18067">
        <ele>614.4</ele>
        <time>2023-01-30T09:58:20.368Z</time>
      </trkpt>
      <trkpt lat="43.74433" lon="6.1807">
        <ele>614.4</ele>
        <time>2023-01-30T09:58:28.904Z</time>
      </trkpt>
      <trkpt lat="43.74437" lon="6.18076">
        <ele>614.8</ele>
        <time>2023-01-30T09:58:40.517Z</time>
      </trkpt>
      <trkpt lat="43.7444" lon="6.18082">
        <ele>615.2</ele>
        <time>2023-01-30T09:58:50.897Z</time>
      </trkpt>
      <trkpt lat="43.74445" lon="6.18085">
        <ele>615.3</ele>
        <time>2023-01-30T09:58:59.934Z</time>
      </trkpt>
      <trkpt lat="43.7445" lon="6.18085">
        <ele>615.7</ele>
        <time>2023-01-30T09:59:10.081Z</time>
      </trkpt>
      <trkpt lat="43.74455" lon="6.18082">
        <ele>615.6</ele>
        <time>2023-01-30T09:59:18.153Z</time>
      </trkpt>
      <trkpt lat="43.74462" lon="6.18082">
        <ele>616</ele>
        <time>2023-01-30T09:59:31.310Z</time>
      </trkpt>
      <trkpt lat="43.74466" lon="6.18086">
        <ele>617</ele>
        <time>2023-01-30T09:59:47.010Z</time>
      </trkpt>
      <trkpt lat="43.7447" lon="6.18084">
        <ele>617</ele>
        <time>2023-01-30T09:59:53.672Z</time>
      </trkpt>
      <trkpt lat="43.74476" lon="6.18079">
        <ele>616.3</ele>
        <time>2023-01-30T10:00:03.270Z</time>
      </trkpt>
      <trkpt lat="43.74483" lon="6.18077">
        <ele>616.4</ele>
        <time>2023-01-30T10:00:14.962Z</time>
      </trkpt>
      <trkpt lat="43.74485" lon="6.18069">
        <ele>614.8</ele>
        <time>2023-01-30T10:00:23.344Z</time>
      </trkpt>
      <trkpt lat="43.74493" lon="6.18067">
        <ele>614.9</ele>
        <time>2023-01-30T10:00:36.604Z</time>
      </trkpt>
      <trkpt lat="43.745" lon="6.18065">
        <ele>615</ele>
        <time>2023-01-30T10:00:48.263Z</time>
      </trkpt>
      <trkpt lat="43.74505" lon="6.18066">
        <ele>615.3</ele>
        <time>2023-01-30T10:00:57.685Z</time>
      </trkpt>
      <trkpt lat="43.74509" lon="6.18067">
        <ele>615.5</ele>
        <time>2023-01-30T10:01:05.267Z</time>
      </trkpt>
      <trkpt lat="43.74517" lon="6.18064">
        <ele>615.1</ele>
        <time>2023-01-30T10:01:16.626Z</time>
      </trkpt>
      <trkpt lat="43.74525" lon="6.18061">
        <ele>614.7</ele>
        <time>2023-01-30T10:01:27.985Z</time>
      </trkpt>
      <trkpt lat="43.74533" lon="6.18062">
        <ele>614.3</ele>
        <time>2023-01-30T10:01:38.982Z</time>
      </trkpt>
      <trkpt lat="43.74541" lon="6.18062">
        <ele>613.5</ele>
        <time>2023-01-30T10:01:49.936Z</time>
      </trkpt>
      <trkpt lat="43.74547" lon="6.18066">
        <ele>613.4</ele>
        <time>2023-01-30T10:01:59.649Z</time>
      </trkpt>
      <trkpt lat="43.74553" lon="6.18069">
        <ele>613.2</ele>
        <time>2023-01-30T10:02:08.955Z</time>
      </trkpt>
      <trkpt lat="43.74559" lon="6.18075">
        <ele>613</ele>
        <time>2023-01-30T10:02:19.638Z</time>
      </trkpt>
      <trkpt lat="43.74566" lon="6.18081">
        <ele>612.4</ele>
        <time>2023-01-30T10:02:30.922Z</time>
      </trkpt>
      <trkpt lat="43.7457" lon="6.18087">
        <ele>612.4</ele>
        <time>2023-01-30T10:02:40.407Z</time>
      </trkpt>
      <trkpt lat="43.74574" lon="6.18092">
        <ele>612.5</ele>
        <time>2023-01-30T10:02:49.075Z</time>
      </trkpt>
      <trkpt lat="43.7458" lon="6.18099">
        <ele>612.5</ele>
        <time>2023-01-30T10:03:01.365Z</time>
      </trkpt>
      <trkpt lat="43.74586" lon="6.18106">
        <ele>612.5</ele>
        <time>2023-01-30T10:03:13.656Z</time>
      </trkpt>
      <trkpt lat="43.74591" lon="6.18111">
        <ele>612.3</ele>
        <time>2023-01-30T10:03:22.558Z</time>
      </trkpt>
      <trkpt lat="43.74595" lon="6.18115">
        <ele>612.2</ele>
        <time>2023-01-30T10:03:29.681Z</time>
      </trkpt>
      <trkpt lat="43.74598" lon="6.18122">
        <ele>612.9</ele>
        <time>2023-01-30T10:03:43.670Z</time>
      </trkpt>
      <trkpt lat="43.74601" lon="6.18128">
        <ele>613.6</ele>
        <time>2023-01-30T10:03:56.212Z</time>
      </trkpt>
      <trkpt lat="43.74606" lon="6.18135">
        <ele>614.1</ele>
        <time>2023-01-30T10:04:09.853Z</time>
      </trkpt>
      <trkpt lat="43.74611" lon="6.18142">
        <ele>614.5</ele>
        <time>2023-01-30T10:04:23.495Z</time>
      </trkpt>
      <trkpt lat="43.74618" lon="6.18144">
        <ele>615.2</ele>
        <time>2023-01-30T10:04:40.178Z</time>
      </trkpt>
      <trkpt lat="43.74624" lon="6.18146">
        <ele>616.1</ele>
        <time>2023-01-30T10:04:54.583Z</time>
      </trkpt>
      <trkpt lat="43.74629" lon="6.18147">
        <ele>616.5</ele>
        <time>2023-01-30T10:05:05.129Z</time>
      </trkpt>
      <trkpt lat="43.74634" lon="6.18147">
        <ele>617</ele>
        <time>2023-01-30T10:05:15.566Z</time>
      </trkpt>
      <trkpt lat="43.74638" lon="6.18148">
        <ele>617.5</ele>
        <time>2023-01-30T10:05:24.051Z</time>
      </trkpt>
      <trkpt lat="43.74643" lon="6.18148">
        <ele>617.8</ele>
        <time>2023-01-30T10:05:34.490Z</time>
      </trkpt>
      <trkpt lat="43.7465" lon="6.18154">
        <ele>619.1</ele>
        <time>2023-01-30T10:05:56.556Z</time>
      </trkpt>
      <trkpt lat="43.74655" lon="6.18155">
        <ele>619.5</ele>
        <time>2023-01-30T10:06:06.695Z</time>
      </trkpt>
      <trkpt lat="43.74659" lon="6.18156">
        <ele>619.8</ele>
        <time>2023-01-30T10:06:14.854Z</time>
      </trkpt>
      <trkpt lat="43.74666" lon="6.18156">
        <ele>620.1</ele>
        <time>2023-01-30T10:06:27.409Z</time>
      </trkpt>
      <trkpt lat="43.74671" lon="6.18157">
        <ele>620.5</ele>
        <time>2023-01-30T10:06:37.598Z</time>
      </trkpt>
      <trkpt lat="43.74676" lon="6.18159">
        <ele>620.9</ele>
        <time>2023-01-30T10:06:48.095Z</time>
      </trkpt>
      <trkpt lat="43.74681" lon="6.1816">
        <ele>621.3</ele>
        <time>2023-01-30T10:06:58.284Z</time>
      </trkpt>
      <trkpt lat="43.74686" lon="6.18161">
        <ele>621.7</ele>
        <time>2023-01-30T10:07:08.474Z</time>
      </trkpt>
      <trkpt lat="43.74693" lon="6.18165">
        <ele>622.6</ele>
        <time>2023-01-30T10:07:26.554Z</time>
      </trkpt>
      <trkpt lat="43.74699" lon="6.18169">
        <ele>623.5</ele>
        <time>2023-01-30T10:07:42.454Z</time>
      </trkpt>
      <trkpt lat="43.74703" lon="6.18175">
        <ele>624.6</ele>
        <time>2023-01-30T10:08:00.655Z</time>
      </trkpt>
      <trkpt lat="43.74707" lon="6.1818">
        <ele>625.7</ele>
        <time>2023-01-30T10:08:17.287Z</time>
      </trkpt>
      <trkpt lat="43.7471" lon="6.18186">
        <ele>626.8</ele>
        <time>2023-01-30T10:08:35.172Z</time>
      </trkpt>
      <trkpt lat="43.74712" lon="6.18192">
        <ele>627.9</ele>
        <time>2023-01-30T10:08:51.370Z</time>
      </trkpt>
      <trkpt lat="43.74714" lon="6.18198">
        <ele>629.1</ele>
        <time>2023-01-30T10:09:10.517Z</time>
      </trkpt>
      <trkpt lat="43.74716" lon="6.18204">
        <ele>630.3</ele>
        <time>2023-01-30T10:09:29.664Z</time>
      </trkpt>
      <trkpt lat="43.74717" lon="6.18209">
        <ele>631.5</ele>
        <time>2023-01-30T10:09:44.696Z</time>
      </trkpt>
      <trkpt lat="43.74719" lon="6.18215">
        <ele>632.6</ele>
        <time>2023-01-30T10:10:03.844Z</time>
      </trkpt>
      <trkpt lat="43.7472" lon="6.18222">
        <ele>634.1</ele>
        <time>2023-01-30T10:10:19.290Z</time>
      </trkpt>
      <trkpt lat="43.7472" lon="6.18229">
        <ele>634.9</ele>
        <time>2023-01-30T10:10:34.443Z</time>
      </trkpt>
      <trkpt lat="43.74721" lon="6.18235">
        <ele>635.6</ele>
        <time>2023-01-30T10:10:47.773Z</time>
      </trkpt>
      <trkpt lat="43.74721" lon="6.18242">
        <ele>636.3</ele>
        <time>2023-01-30T10:11:02.928Z</time>
      </trkpt>
      <trkpt lat="43.7472" lon="6.18251">
        <ele>637.4</ele>
        <time>2023-01-30T10:11:19.528Z</time>
      </trkpt>
      <trkpt lat="43.74718" lon="6.1826">
        <ele>638.2</ele>
        <time>2023-01-30T10:11:36.694Z</time>
      </trkpt>
      <trkpt lat="43.74714" lon="6.18265">
        <ele>639.1</ele>
        <time>2023-01-30T10:11:50.641Z</time>
      </trkpt>
      <trkpt lat="43.7471" lon="6.1827">
        <ele>640.1</ele>
        <time>2023-01-30T10:12:04.588Z</time>
      </trkpt>
      <trkpt lat="43.74706" lon="6.18275">
        <ele>641.1</ele>
        <time>2023-01-30T10:12:18.536Z</time>
      </trkpt>
      <trkpt lat="43.74703" lon="6.18281">
        <ele>642</ele>
        <time>2023-01-30T10:12:32.178Z</time>
      </trkpt>
      <trkpt lat="43.74699" lon="6.18286">
        <ele>642.7</ele>
        <time>2023-01-30T10:12:46.126Z</time>
      </trkpt>
      <trkpt lat="43.74695" lon="6.18291">
        <ele>643.4</ele>
        <time>2023-01-30T10:13:00.074Z</time>
      </trkpt>
      <trkpt lat="43.74691" lon="6.18296">
        <ele>644</ele>
        <time>2023-01-30T10:13:14.022Z</time>
      </trkpt>
      <trkpt lat="43.74687" lon="6.18301">
        <ele>644.6</ele>
        <time>2023-01-30T10:13:27.971Z</time>
      </trkpt>
      <trkpt lat="43.74682" lon="6.18309">
        <ele>645.5</ele>
        <time>2023-01-30T10:13:45.129Z</time>
      </trkpt>
      <trkpt lat="43.74677" lon="6.18316">
        <ele>646.3</ele>
        <time>2023-01-30T10:14:01.096Z</time>
      </trkpt>
      <trkpt lat="43.74671" lon="6.18324">
        <ele>647.1</ele>
        <time>2023-01-30T10:14:19.800Z</time>
      </trkpt>
      <trkpt lat="43.74666" lon="6.18331">
        <ele>647.9</ele>
        <time>2023-01-30T10:14:35.768Z</time>
      </trkpt>
      <trkpt lat="43.74662" lon="6.1834">
        <ele>648.4</ele>
        <time>2023-01-30T10:14:50.520Z</time>
      </trkpt>
      <trkpt lat="43.74662" lon="6.18347">
        <ele>648.8</ele>
        <time>2023-01-30T10:15:00.951Z</time>
      </trkpt>
      <trkpt lat="43.74662" lon="6.18355">
        <ele>649.1</ele>
        <time>2023-01-30T10:15:12.872Z</time>
      </trkpt>
      <trkpt lat="43.74661" lon="6.18362">
        <ele>649.5</ele>
        <time>2023-01-30T10:15:23.505Z</time>
      </trkpt>
      <trkpt lat="43.74661" lon="6.18369">
        <ele>650.2</ele>
        <time>2023-01-30T10:15:33.937Z</time>
      </trkpt>
      <trkpt lat="43.74657" lon="6.18379">
        <ele>651.4</ele>
        <time>2023-01-30T10:15:54.258Z</time>
      </trkpt>
      <trkpt lat="43.74652" lon="6.18389">
        <ele>652.5</ele>
        <time>2023-01-30T10:16:15.879Z</time>
      </trkpt>
      <trkpt lat="43.74652" lon="6.18396">
        <ele>653.2</ele>
        <time>2023-01-30T10:16:28.993Z</time>
      </trkpt>
      <trkpt lat="43.74652" lon="6.18402">
        <ele>653.9</ele>
        <time>2023-01-30T10:16:40.235Z</time>
      </trkpt>
      <trkpt lat="43.74651" lon="6.1841">
        <ele>654.7</ele>
        <time>2023-01-30T10:16:54.754Z</time>
      </trkpt>
      <trkpt lat="43.74648" lon="6.1842">
        <ele>655.8</ele>
        <time>2023-01-30T10:17:14.419Z</time>
      </trkpt>
      <trkpt lat="43.74648" lon="6.18427">
        <ele>656.7</ele>
        <time>2023-01-30T10:17:29.041Z</time>
      </trkpt>
      <trkpt lat="43.74649" lon="6.18436">
        <ele>657.8</ele>
        <time>2023-01-30T10:17:47.976Z</time>
      </trkpt>
      <trkpt lat="43.7465" lon="6.18444">
        <ele>658.9</ele>
        <time>2023-01-30T10:18:04.860Z</time>
      </trkpt>
      <trkpt lat="43.74652" lon="6.18452">
        <ele>660</ele>
        <time>2023-01-30T10:18:23.410Z</time>
      </trkpt>
      <trkpt lat="43.74654" lon="6.18459">
        <ele>661.1</ele>
        <time>2023-01-30T10:18:39.905Z</time>
      </trkpt>
      <trkpt lat="43.74657" lon="6.18464">
        <ele>661.8</ele>
        <time>2023-01-30T10:18:52.083Z</time>
      </trkpt>
      <trkpt lat="43.74658" lon="6.18466">
        <ele>662.1</ele>
        <time>2023-01-30T10:18:57.025Z</time>
      </trkpt>
      <trkpt lat="43.74667" lon="6.18464">
        <ele>661.8</ele>
        <time>2023-01-30T10:19:11.049Z</time>
      </trkpt>
      <trkpt lat="43.74675" lon="6.18462">
        <ele>662</ele>
        <time>2023-01-30T10:19:23.558Z</time>
      </trkpt>
      <trkpt lat="43.74681" lon="6.18461">
        <ele>662.2</ele>
        <time>2023-01-30T10:19:33.508Z</time>
      </trkpt>
      <trkpt lat="43.74687" lon="6.1846">
        <ele>662.3</ele>
        <time>2023-01-30T10:19:43.458Z</time>
      </trkpt>
      <trkpt lat="43.74693" lon="6.18458">
        <ele>662.4</ele>
        <time>2023-01-30T10:19:53.620Z</time>
      </trkpt>
      <trkpt lat="43.74699" lon="6.18457">
        <ele>662.4</ele>
        <time>2023-01-30T10:20:03.572Z</time>
      </trkpt>
      <trkpt lat="43.74704" lon="6.18455">
        <ele>662.2</ele>
        <time>2023-01-30T10:20:10.938Z</time>
      </trkpt>
      <trkpt lat="43.74709" lon="6.18453">
        <ele>662.1</ele>
        <time>2023-01-30T10:20:18.304Z</time>
      </trkpt>
      <trkpt lat="43.74714" lon="6.18451">
        <ele>661.9</ele>
        <time>2023-01-30T10:20:25.670Z</time>
      </trkpt>
      <trkpt lat="43.74719" lon="6.18449">
        <ele>661.7</ele>
        <time>2023-01-30T10:20:33.036Z</time>
      </trkpt>
      <trkpt lat="43.74725" lon="6.18444">
        <ele>661</ele>
        <time>2023-01-30T10:20:42.634Z</time>
      </trkpt>
      <trkpt lat="43.7473" lon="6.18442">
        <ele>660.9</ele>
        <time>2023-01-30T10:20:50.323Z</time>
      </trkpt>
      <trkpt lat="43.74735" lon="6.1844">
        <ele>660.8</ele>
        <time>2023-01-30T10:20:58.012Z</time>
      </trkpt>
      <trkpt lat="43.74739" lon="6.18436">
        <ele>660.3</ele>
        <time>2023-01-30T10:21:04.765Z</time>
      </trkpt>
      <trkpt lat="43.74743" lon="6.18431">
        <ele>659.8</ele>
        <time>2023-01-30T10:21:12.141Z</time>
      </trkpt>
      <trkpt lat="43.74747" lon="6.18426">
        <ele>659.2</ele>
        <time>2023-01-30T10:21:19.508Z</time>
      </trkpt>
      <trkpt lat="43.7475" lon="6.18421">
        <ele>658.6</ele>
        <time>2023-01-30T10:21:25.927Z</time>
      </trkpt>
      <trkpt lat="43.74757" lon="6.18417">
        <ele>658.3</ele>
        <time>2023-01-30T10:21:36.301Z</time>
      </trkpt>
      <trkpt lat="43.74763" lon="6.18413">
        <ele>657.9</ele>
        <time>2023-01-30T10:21:45.425Z</time>
      </trkpt>
      <trkpt lat="43.7477" lon="6.18411">
        <ele>657.9</ele>
        <time>2023-01-30T10:21:56.620Z</time>
      </trkpt>
      <trkpt lat="43.74777" lon="6.18409">
        <ele>657.9</ele>
        <time>2023-01-30T10:22:07.815Z</time>
      </trkpt>
      <trkpt lat="43.74784" lon="6.18404">
        <ele>657.6</ele>
        <time>2023-01-30T10:22:18.818Z</time>
      </trkpt>
      <trkpt lat="43.74788" lon="6.18397">
        <ele>656.9</ele>
        <time>2023-01-30T10:22:27.654Z</time>
      </trkpt>
      <trkpt lat="43.74793" lon="6.18395">
        <ele>656.9</ele>
        <time>2023-01-30T10:22:36.073Z</time>
      </trkpt>
      <trkpt lat="43.74797" lon="6.18393">
        <ele>657</ele>
        <time>2023-01-30T10:22:42.953Z</time>
      </trkpt>
      <trkpt lat="43.74801" lon="6.18389">
        <ele>656.6</ele>
        <time>2023-01-30T10:22:49.705Z</time>
      </trkpt>
      <trkpt lat="43.74805" lon="6.18384">
        <ele>656.3</ele>
        <time>2023-01-30T10:22:57.081Z</time>
      </trkpt>
      <trkpt lat="43.7481" lon="6.18383">
        <ele>656.3</ele>
        <time>2023-01-30T10:23:04.993Z</time>
      </trkpt>
      <trkpt lat="43.74814" lon="6.18382">
        <ele>656.3</ele>
        <time>2023-01-30T10:23:11.359Z</time>
      </trkpt>
      <trkpt lat="43.74819" lon="6.1838">
        <ele>656.2</ele>
        <time>2023-01-30T10:23:18.998Z</time>
      </trkpt>
      <trkpt lat="43.74823" lon="6.18378">
        <ele>656.1</ele>
        <time>2023-01-30T10:23:25.242Z</time>
      </trkpt>
      <trkpt lat="43.74831" lon="6.18378">
        <ele>656.3</ele>
        <time>2023-01-30T10:23:38.792Z</time>
      </trkpt>
      <trkpt lat="43.74837" lon="6.1838">
        <ele>656.6</ele>
        <time>2023-01-30T10:23:50.241Z</time>
      </trkpt>
      <trkpt lat="43.74842" lon="6.18381">
        <ele>656.9</ele>
        <time>2023-01-30T10:23:59.614Z</time>
      </trkpt>
      <trkpt lat="43.74849" lon="6.18379">
        <ele>656.6</ele>
        <time>2023-01-30T10:24:09.484Z</time>
      </trkpt>
      <trkpt lat="43.74855" lon="6.18376">
        <ele>656.1</ele>
        <time>2023-01-30T10:24:18.193Z</time>
      </trkpt>
      <trkpt lat="43.7486" lon="6.18372">
        <ele>655.6</ele>
        <time>2023-01-30T10:24:26.077Z</time>
      </trkpt>
      <trkpt lat="43.74866" lon="6.18374">
        <ele>655.6</ele>
        <time>2023-01-30T10:24:35.743Z</time>
      </trkpt>
      <trkpt lat="43.74871" lon="6.18379">
        <ele>656</ele>
        <time>2023-01-30T10:24:47.637Z</time>
      </trkpt>
      <trkpt lat="43.74875" lon="6.18385">
        <ele>656.4</ele>
        <time>2023-01-30T10:24:59.233Z</time>
      </trkpt>
      <trkpt lat="43.74879" lon="6.1839">
        <ele>656.8</ele>
        <time>2023-01-30T10:25:09.830Z</time>
      </trkpt>
      <trkpt lat="43.74883" lon="6.184">
        <ele>657.5</ele>
        <time>2023-01-30T10:25:27.432Z</time>
      </trkpt>
      <trkpt lat="43.74887" lon="6.18409">
        <ele>658.3</ele>
        <time>2023-01-30T10:25:43.705Z</time>
      </trkpt>
      <trkpt lat="43.74893" lon="6.18414">
        <ele>658.5</ele>
        <time>2023-01-30T10:25:56.002Z</time>
      </trkpt>
      <trkpt lat="43.74899" lon="6.18418">
        <ele>658.8</ele>
        <time>2023-01-30T10:26:07.696Z</time>
      </trkpt>
      <trkpt lat="43.74906" lon="6.1842">
        <ele>658.7</ele>
        <time>2023-01-30T10:26:18.654Z</time>
      </trkpt>
      <trkpt lat="43.74913" lon="6.18422">
        <ele>658.7</ele>
        <time>2023-01-30T10:26:29.612Z</time>
      </trkpt>
      <trkpt lat="43.74921" lon="6.18421">
        <ele>658.6</ele>
        <time>2023-01-30T10:26:42.172Z</time>
      </trkpt>
      <trkpt lat="43.74928" lon="6.18419">
        <ele>658.7</ele>
        <time>2023-01-30T10:26:53.350Z</time>
      </trkpt>
      <trkpt lat="43.74935" lon="6.18417">
        <ele>658.6</ele>
        <time>2023-01-30T10:27:04.266Z</time>
      </trkpt>
      <trkpt lat="43.74941" lon="6.18414">
        <ele>658.6</ele>
        <time>2023-01-30T10:27:14.009Z</time>
      </trkpt>
      <trkpt lat="43.74946" lon="6.18412">
        <ele>658.6</ele>
        <time>2023-01-30T10:27:22.015Z</time>
      </trkpt>
      <trkpt lat="43.7495" lon="6.18411">
        <ele>658.5</ele>
        <time>2023-01-30T10:27:28.267Z</time>
      </trkpt>
      <trkpt lat="43.74955" lon="6.18409">
        <ele>658.5</ele>
        <time>2023-01-30T10:27:36.274Z</time>
      </trkpt>
      <trkpt lat="43.74959" lon="6.18407">
        <ele>658.5</ele>
        <time>2023-01-30T10:27:42.817Z</time>
      </trkpt>
      <trkpt lat="43.74964" lon="6.18405">
        <ele>658.4</ele>
        <time>2023-01-30T10:27:50.313Z</time>
      </trkpt>
      <trkpt lat="43.74968" lon="6.18402">
        <ele>658.3</ele>
        <time>2023-01-30T10:27:56.865Z</time>
      </trkpt>
      <trkpt lat="43.74973" lon="6.184">
        <ele>658.2</ele>
        <time>2023-01-30T10:28:04.361Z</time>
      </trkpt>
      <trkpt lat="43.74977" lon="6.18397">
        <ele>658</ele>
        <time>2023-01-30T10:28:10.914Z</time>
      </trkpt>
      <trkpt lat="43.74982" lon="6.18393">
        <ele>657.8</ele>
        <time>2023-01-30T10:28:18.818Z</time>
      </trkpt>
      <trkpt lat="43.74987" lon="6.1839">
        <ele>657.6</ele>
        <time>2023-01-30T10:28:26.277Z</time>
      </trkpt>
      <trkpt lat="43.74992" lon="6.18386">
        <ele>657.3</ele>
        <time>2023-01-30T10:28:34.182Z</time>
      </trkpt>
      <trkpt lat="43.74997" lon="6.18382">
        <ele>656.9</ele>
        <time>2023-01-30T10:28:42.088Z</time>
      </trkpt>
      <trkpt lat="43.75003" lon="6.18379">
        <ele>656.6</ele>
        <time>2023-01-30T10:28:50.797Z</time>
      </trkpt>
      <trkpt lat="43.75008" lon="6.18375">
        <ele>656.3</ele>
        <time>2023-01-30T10:28:58.681Z</time>
      </trkpt>
      <trkpt lat="43.75013" lon="6.18376">
        <ele>656.6</ele>
        <time>2023-01-30T10:29:08.452Z</time>
      </trkpt>
      <trkpt lat="43.75017" lon="6.18377">
        <ele>656.9</ele>
        <time>2023-01-30T10:29:16.315Z</time>
      </trkpt>
      <trkpt lat="43.75023" lon="6.18373">
        <ele>656.5</ele>
        <time>2023-01-30T10:29:25.442Z</time>
      </trkpt>
      <trkpt lat="43.75028" lon="6.18371">
        <ele>656.3</ele>
        <time>2023-01-30T10:29:32.560Z</time>
      </trkpt>
      <trkpt lat="43.75033" lon="6.18368">
        <ele>655.9</ele>
        <time>2023-01-30T10:29:40.014Z</time>
      </trkpt>
      <trkpt lat="43.7504" lon="6.18365">
        <ele>655.1</ele>
        <time>2023-01-30T10:29:50.029Z</time>
      </trkpt>
      <trkpt lat="43.75046" lon="6.18361">
        <ele>654.3</ele>
        <time>2023-01-30T10:29:59.131Z</time>
      </trkpt>
      <trkpt lat="43.75051" lon="6.18361">
        <ele>654.1</ele>
        <time>2023-01-30T10:30:05.956Z</time>
      </trkpt>
      <trkpt lat="43.75055" lon="6.1836">
        <ele>653.8</ele>
        <time>2023-01-30T10:30:11.505Z</time>
      </trkpt>
      <trkpt lat="43.7506" lon="6.18361">
        <ele>653.9</ele>
        <time>2023-01-30T10:30:19.962Z</time>
      </trkpt>
      <trkpt lat="43.75064" lon="6.18361">
        <ele>654</ele>
        <time>2023-01-30T10:30:26.659Z</time>
      </trkpt>
      <trkpt lat="43.7507" lon="6.18361">
        <ele>653.9</ele>
        <time>2023-01-30T10:30:35.576Z</time>
      </trkpt>
      <trkpt lat="43.75076" lon="6.1836">
        <ele>653.8</ele>
        <time>2023-01-30T10:30:44.558Z</time>
      </trkpt>
      <trkpt lat="43.75084" lon="6.18358">
        <ele>653.4</ele>
        <time>2023-01-30T10:30:55.698Z</time>
      </trkpt>
      <trkpt lat="43.75091" lon="6.18356">
        <ele>652.9</ele>
        <time>2023-01-30T10:31:05.494Z</time>
      </trkpt>
      <trkpt lat="43.75099" lon="6.18354">
        <ele>652.3</ele>
        <time>2023-01-30T10:31:16.636Z</time>
      </trkpt>
      <trkpt lat="43.75107" lon="6.18355">
        <ele>652.2</ele>
        <time>2023-01-30T10:31:28.748Z</time>
      </trkpt>
      <trkpt lat="43.75112" lon="6.18354">
        <ele>651.9</ele>
        <time>2023-01-30T10:31:35.671Z</time>
      </trkpt>
      <trkpt lat="43.75117" lon="6.18353">
        <ele>651.3</ele>
        <time>2023-01-30T10:31:42.595Z</time>
      </trkpt>
      <trkpt lat="43.75122" lon="6.18354">
        <ele>650.9</ele>
        <time>2023-01-30T10:31:49.500Z</time>
      </trkpt>
      <trkpt lat="43.75126" lon="6.18354">
        <ele>650.5</ele>
        <time>2023-01-30T10:31:54.969Z</time>
      </trkpt>
      <trkpt lat="43.7513" lon="6.18358">
        <ele>650.6</ele>
        <time>2023-01-30T10:32:03.202Z</time>
      </trkpt>
      <trkpt lat="43.75132" lon="6.18364">
        <ele>651.1</ele>
        <time>2023-01-30T10:32:13.754Z</time>
      </trkpt>
      <trkpt lat="43.75134" lon="6.18374">
        <ele>651.9</ele>
        <time>2023-01-30T10:32:30.438Z</time>
      </trkpt>
      <trkpt lat="43.75137" lon="6.18381">
        <ele>652.4</ele>
        <time>2023-01-30T10:32:42.576Z</time>
      </trkpt>
      <trkpt lat="43.75142" lon="6.18389">
        <ele>652.7</ele>
        <time>2023-01-30T10:32:55.364Z</time>
      </trkpt>
      <trkpt lat="43.75146" lon="6.18396">
        <ele>652.7</ele>
        <time>2023-01-30T10:33:06.154Z</time>
      </trkpt>
      <trkpt lat="43.75152" lon="6.18403">
        <ele>652.7</ele>
        <time>2023-01-30T10:33:18.182Z</time>
      </trkpt>
      <trkpt lat="43.75157" lon="6.1841">
        <ele>652.6</ele>
        <time>2023-01-30T10:33:29.083Z</time>
      </trkpt>
      <trkpt lat="43.75165" lon="6.18415">
        <ele>652.1</ele>
        <time>2023-01-30T10:33:41.279Z</time>
      </trkpt>
      <trkpt lat="43.75173" lon="6.1842">
        <ele>651.9</ele>
        <time>2023-01-30T10:33:53.476Z</time>
      </trkpt>
      <trkpt lat="43.75181" lon="6.18421">
        <ele>651.5</ele>
        <time>2023-01-30T10:34:04.484Z</time>
      </trkpt>
      <trkpt lat="43.75188" lon="6.18422">
        <ele>651</ele>
        <time>2023-01-30T10:34:14.129Z</time>
      </trkpt>
      <trkpt lat="43.75191" lon="6.18422">
        <ele>650.8</ele>
        <time>2023-01-30T10:34:18.240Z</time>
      </trkpt>
      <trkpt lat="43.75196" lon="6.1842">
        <ele>650.3</ele>
        <time>2023-01-30T10:34:25.358Z</time>
      </trkpt>
      <trkpt lat="43.75201" lon="6.18417">
        <ele>650</ele>
        <time>2023-01-30T10:34:32.812Z</time>
      </trkpt>
      <trkpt lat="43.75203" lon="6.18415">
        <ele>649.8</ele>
        <time>2023-01-30T10:34:36.193Z</time>
      </trkpt>
      <trkpt lat="43.75208" lon="6.18409">
        <ele>649.2</ele>
        <time>2023-01-30T10:34:45.262Z</time>
      </trkpt>
      <trkpt lat="43.75213" lon="6.18408">
        <ele>649</ele>
        <time>2023-01-30T10:34:52.177Z</time>
      </trkpt>
      <trkpt lat="43.75217" lon="6.18406">
        <ele>648.8</ele>
        <time>2023-01-30T10:34:58.000Z</time>
      </trkpt>
      <trkpt lat="43.75224" lon="6.18408">
        <ele>649.2</ele>
        <time>2023-01-30T10:35:11.382Z</time>
      </trkpt>
      <trkpt lat="43.75229" lon="6.18409">
        <ele>649.7</ele>
        <time>2023-01-30T10:35:22.326Z</time>
      </trkpt>
      <trkpt lat="43.75235" lon="6.18408">
        <ele>650.1</ele>
        <time>2023-01-30T10:35:34.032Z</time>
      </trkpt>
      <trkpt lat="43.75238" lon="6.184">
        <ele>649.7</ele>
        <time>2023-01-30T10:35:42.955Z</time>
      </trkpt>
      <trkpt lat="43.75242" lon="6.18395">
        <ele>649.6</ele>
        <time>2023-01-30T10:35:50.880Z</time>
      </trkpt>
      <trkpt lat="43.75245" lon="6.1839">
        <ele>649.5</ele>
        <time>2023-01-30T10:35:57.786Z</time>
      </trkpt>
      <trkpt lat="43.7525" lon="6.18382">
        <ele>649.2</ele>
        <time>2023-01-30T10:36:08.243Z</time>
      </trkpt>
      <trkpt lat="43.75254" lon="6.18374">
        <ele>648.8</ele>
        <time>2023-01-30T10:36:17.861Z</time>
      </trkpt>
      <trkpt lat="43.75261" lon="6.18369">
        <ele>648.9</ele>
        <time>2023-01-30T10:36:30.695Z</time>
      </trkpt>
      <trkpt lat="43.75266" lon="6.18366">
        <ele>649.1</ele>
        <time>2023-01-30T10:36:39.989Z</time>
      </trkpt>
      <trkpt lat="43.7527" lon="6.18362">
        <ele>649.2</ele>
        <time>2023-01-30T10:36:48.406Z</time>
      </trkpt>
      <trkpt lat="43.75276" lon="6.18361">
        <ele>649.8</ele>
        <time>2023-01-30T10:37:01.512Z</time>
      </trkpt>
      <trkpt lat="43.75282" lon="6.18366">
        <ele>650.2</ele>
        <time>2023-01-30T10:37:14.673Z</time>
      </trkpt>
      <trkpt lat="43.75286" lon="6.1837">
        <ele>650.2</ele>
        <time>2023-01-30T10:37:22.385Z</time>
      </trkpt>
      <trkpt lat="43.7529" lon="6.18373">
        <ele>650.2</ele>
        <time>2023-01-30T10:37:29.497Z</time>
      </trkpt>
      <trkpt lat="43.75293" lon="6.18379">
        <ele>650.4</ele>
        <time>2023-01-30T10:37:38.828Z</time>
      </trkpt>
      <trkpt lat="43.75295" lon="6.18385">
        <ele>650.6</ele>
        <time>2023-01-30T10:37:47.278Z</time>
      </trkpt>
      <trkpt lat="43.75297" lon="6.18391">
        <ele>650.6</ele>
        <time>2023-01-30T10:37:54.518Z</time>
      </trkpt>
      <trkpt lat="43.75299" lon="6.18397">
        <ele>650.5</ele>
        <time>2023-01-30T10:38:01.759Z</time>
      </trkpt>
      <trkpt lat="43.75298" lon="6.18402">
        <ele>650.5</ele>
        <time>2023-01-30T10:38:07.629Z</time>
      </trkpt>
      <trkpt lat="43.75298" lon="6.18403">
        <ele>650.5</ele>
        <time>2023-01-30T10:38:08.760Z</time>
      </trkpt>
      <trkpt lat="43.75294" lon="6.18407">
        <ele>650.8</ele>
        <time>2023-01-30T10:38:18.148Z</time>
      </trkpt>
      <trkpt lat="43.75289" lon="6.18411">
        <ele>651.2</ele>
        <time>2023-01-30T10:38:29.449Z</time>
      </trkpt>
      <trkpt lat="43.75281" lon="6.18416">
        <ele>651.8</ele>
        <time>2023-01-30T10:38:46.575Z</time>
      </trkpt>
      <trkpt lat="43.75274" lon="6.1842">
        <ele>651.9</ele>
        <time>2023-01-30T10:38:58.932Z</time>
      </trkpt>
      <trkpt lat="43.7527" lon="6.18427">
        <ele>651.7</ele>
        <time>2023-01-30T10:39:08.128Z</time>
      </trkpt>
      <trkpt lat="43.75267" lon="6.18434">
        <ele>651.6</ele>
        <time>2023-01-30T10:39:16.872Z</time>
      </trkpt>
      <trkpt lat="43.75264" lon="6.18439">
        <ele>651.6</ele>
        <time>2023-01-30T10:39:24.226Z</time>
      </trkpt>
      <trkpt lat="43.7526" lon="6.18441">
        <ele>651.7</ele>
        <time>2023-01-30T10:39:31.395Z</time>
      </trkpt>
      <trkpt lat="43.75258" lon="6.18447">
        <ele>651.6</ele>
        <time>2023-01-30T10:39:38.410Z</time>
      </trkpt>
      <trkpt lat="43.7525" lon="6.18451">
        <ele>651.8</ele>
        <time>2023-01-30T10:39:52.748Z</time>
      </trkpt>
      <trkpt lat="43.75242" lon="6.18454">
        <ele>651.8</ele>
        <time>2023-01-30T10:40:05.730Z</time>
      </trkpt>
      <trkpt lat="43.75239" lon="6.1846">
        <ele>651.7</ele>
        <time>2023-01-30T10:40:13.523Z</time>
      </trkpt>
      <trkpt lat="43.75233" lon="6.18464">
        <ele>651.7</ele>
        <time>2023-01-30T10:40:23.953Z</time>
      </trkpt>
      <trkpt lat="43.75227" lon="6.18465">
        <ele>651.9</ele>
        <time>2023-01-30T10:40:34.457Z</time>
      </trkpt>
      <trkpt lat="43.75224" lon="6.18463">
        <ele>652</ele>
        <time>2023-01-30T10:40:40.187Z</time>
      </trkpt>
      <trkpt lat="43.75221" lon="6.18464">
        <ele>652</ele>
        <time>2023-01-30T10:40:45.020Z</time>
      </trkpt>
      <trkpt lat="43.75217" lon="6.18464">
        <ele>652.2</ele>
        <time>2023-01-30T10:40:52.231Z</time>
      </trkpt>
      <trkpt lat="43.75212" lon="6.18464">
        <ele>652.4</ele>
        <time>2023-01-30T10:41:01.246Z</time>
      </trkpt>
      <trkpt lat="43.75207" lon="6.18464">
        <ele>652.6</ele>
        <time>2023-01-30T10:41:10.200Z</time>
      </trkpt>
      <trkpt lat="43.75202" lon="6.18464">
        <ele>652.7</ele>
        <time>2023-01-30T10:41:19.154Z</time>
      </trkpt>
      <trkpt lat="43.75196" lon="6.18463">
        <ele>652.9</ele>
        <time>2023-01-30T10:41:29.977Z</time>
      </trkpt>
      <trkpt lat="43.75191" lon="6.18463">
        <ele>653.3</ele>
        <time>2023-01-30T10:41:38.932Z</time>
      </trkpt>
      <trkpt lat="43.75185" lon="6.18468">
        <ele>654</ele>
        <time>2023-01-30T10:41:54.155Z</time>
      </trkpt>
      <trkpt lat="43.75179" lon="6.18474">
        <ele>654.7</ele>
        <time>2023-01-30T10:42:09.946Z</time>
      </trkpt>
      <trkpt lat="43.75174" lon="6.18482">
        <ele>655.3</ele>
        <time>2023-01-30T10:42:25.375Z</time>
      </trkpt>
      <trkpt lat="43.75173" lon="6.18488">
        <ele>655.5</ele>
        <time>2023-01-30T10:42:33.055Z</time>
      </trkpt>
      <trkpt lat="43.75171" lon="6.18494">
        <ele>655.7</ele>
        <time>2023-01-30T10:42:41.296Z</time>
      </trkpt>
      <trkpt lat="43.7517" lon="6.185">
        <ele>655.8</ele>
        <time>2023-01-30T10:42:48.976Z</time>
      </trkpt>
      <trkpt lat="43.75168" lon="6.18506">
        <ele>655.9</ele>
        <time>2023-01-30T10:42:57.219Z</time>
      </trkpt>
      <trkpt lat="43.75165" lon="6.1851">
        <ele>656.2</ele>
        <time>2023-01-30T10:43:05.446Z</time>
      </trkpt>
      <trkpt lat="43.7516" lon="6.18515">
        <ele>656.7</ele>
        <time>2023-01-30T10:43:18.009Z</time>
      </trkpt>
      <trkpt lat="43.75153" lon="6.18521">
        <ele>657.5</ele>
        <time>2023-01-30T10:43:35.508Z</time>
      </trkpt>
      <trkpt lat="43.75146" lon="6.18526">
        <ele>658.3</ele>
        <time>2023-01-30T10:43:52.250Z</time>
      </trkpt>
      <trkpt lat="43.75138" lon="6.18532">
        <ele>658.9</ele>
        <time>2023-01-30T10:44:11.589Z</time>
      </trkpt>
      <trkpt lat="43.75131" lon="6.18538">
        <ele>659.8</ele>
        <time>2023-01-30T10:44:29.089Z</time>
      </trkpt>
      <trkpt lat="43.75124" lon="6.18543">
        <ele>660.6</ele>
        <time>2023-01-30T10:44:45.831Z</time>
      </trkpt>
      <trkpt lat="43.75117" lon="6.18549">
        <ele>661.5</ele>
        <time>2023-01-30T10:45:03.331Z</time>
      </trkpt>
      <trkpt lat="43.75109" lon="6.18555">
        <ele>662.2</ele>
        <time>2023-01-30T10:45:22.670Z</time>
      </trkpt>
      <trkpt lat="43.75102" lon="6.18561">
        <ele>662.9</ele>
        <time>2023-01-30T10:45:40.170Z</time>
      </trkpt>
      <trkpt lat="43.75095" lon="6.18566">
        <ele>663.6</ele>
        <time>2023-01-30T10:45:56.913Z</time>
      </trkpt>
      <trkpt lat="43.75088" lon="6.18572">
        <ele>664.5</ele>
        <time>2023-01-30T10:46:14.413Z</time>
      </trkpt>
      <trkpt lat="43.7508" lon="6.18578">
        <ele>665.3</ele>
        <time>2023-01-30T10:46:33.753Z</time>
      </trkpt>
      <trkpt lat="43.75073" lon="6.18583">
        <ele>666.1</ele>
        <time>2023-01-30T10:46:50.496Z</time>
      </trkpt>
      <trkpt lat="43.75066" lon="6.18589">
        <ele>666.8</ele>
        <time>2023-01-30T10:47:07.996Z</time>
      </trkpt>
      <trkpt lat="43.75059" lon="6.18595">
        <ele>667.6</ele>
        <time>2023-01-30T10:47:25.496Z</time>
      </trkpt>
      <trkpt lat="43.75051" lon="6.186">
        <ele>668.4</ele>
        <time>2023-01-30T10:47:44.154Z</time>
      </trkpt>
      <trkpt lat="43.75044" lon="6.18606">
        <ele>669.2</ele>
        <time>2023-01-30T10:48:01.655Z</time>
      </trkpt>
      <trkpt lat="43.7504" lon="6.18608">
        <ele>669.7</ele>
        <time>2023-01-30T10:48:11.116Z</time>
      </trkpt>
      <trkpt lat="43.75035" lon="6.18609">
        <ele>670.2</ele>
        <time>2023-01-30T10:48:22.355Z</time>
      </trkpt>
      <trkpt lat="43.75029" lon="6.1861">
        <ele>670.8</ele>
        <time>2023-01-30T10:48:35.849Z</time>
      </trkpt>
      <trkpt lat="43.75023" lon="6.1861">
        <ele>671.5</ele>
        <time>2023-01-30T10:48:49.248Z</time>
      </trkpt>
      <trkpt lat="43.75018" lon="6.18609">
        <ele>672</ele>
        <time>2023-01-30T10:49:00.021Z</time>
      </trkpt>
      <trkpt lat="43.75012" lon="6.18609">
        <ele>672.6</ele>
        <time>2023-01-30T10:49:12.817Z</time>
      </trkpt>
      <trkpt lat="43.75007" lon="6.18608">
        <ele>673.1</ele>
        <time>2023-01-30T10:49:23.591Z</time>
      </trkpt>
      <trkpt lat="43.75001" lon="6.18607">
        <ele>673.6</ele>
        <time>2023-01-30T10:49:36.480Z</time>
      </trkpt>
      <trkpt lat="43.74997" lon="6.18606">
        <ele>673.9</ele>
        <time>2023-01-30T10:49:44.342Z</time>
      </trkpt>
      <trkpt lat="43.74992" lon="6.18605">
        <ele>674.2</ele>
        <time>2023-01-30T10:49:54.114Z</time>
      </trkpt>
      <trkpt lat="43.74988" lon="6.18604">
        <ele>674.5</ele>
        <time>2023-01-30T10:50:01.976Z</time>
      </trkpt>
      <trkpt lat="43.74983" lon="6.18603">
        <ele>674.8</ele>
        <time>2023-01-30T10:50:11.749Z</time>
      </trkpt>
      <trkpt lat="43.74975" lon="6.18604">
        <ele>675.5</ele>
        <time>2023-01-30T10:50:28.452Z</time>
      </trkpt>
      <trkpt lat="43.74969" lon="6.18604">
        <ele>676</ele>
        <time>2023-01-30T10:50:40.739Z</time>
      </trkpt>
      <trkpt lat="43.74963" lon="6.18603">
        <ele>676.5</ele>
        <time>2023-01-30T10:50:53.115Z</time>
      </trkpt>
      <trkpt lat="43.74956" lon="6.18604">
        <ele>677.2</ele>
        <time>2023-01-30T10:51:08.389Z</time>
      </trkpt>
      <trkpt lat="43.74948" lon="6.18605">
        <ele>678</ele>
        <time>2023-01-30T10:51:25.824Z</time>
      </trkpt>
      <trkpt lat="43.74942" lon="6.18608">
        <ele>678.8</ele>
        <time>2023-01-30T10:51:41.000Z</time>
      </trkpt>
      <trkpt lat="43.74938" lon="6.18611">
        <ele>679.5</ele>
        <time>2023-01-30T10:51:52.078Z</time>
      </trkpt>
      <trkpt lat="43.74934" lon="6.18614">
        <ele>680</ele>
        <time>2023-01-30T10:52:03.157Z</time>
      </trkpt>
      <trkpt lat="43.74926" lon="6.18619">
        <ele>680.9</ele>
        <time>2023-01-30T10:52:22.410Z</time>
      </trkpt>
      <trkpt lat="43.74922" lon="6.1862">
        <ele>681.3</ele>
        <time>2023-01-30T10:52:31.198Z</time>
      </trkpt>
      <trkpt lat="43.74919" lon="6.1862">
        <ele>681.5</ele>
        <time>2023-01-30T10:52:37.018Z</time>
      </trkpt>
      <trkpt lat="43.74918" lon="6.18619">
        <ele>681.5</ele>
        <time>2023-01-30T10:52:38.950Z</time>
      </trkpt>
      <trkpt lat="43.74914" lon="6.18617">
        <ele>681.6</ele>
        <time>2023-01-30T10:52:46.286Z</time>
      </trkpt>
      <trkpt lat="43.74909" lon="6.18614">
        <ele>681.8</ele>
        <time>2023-01-30T10:52:55.688Z</time>
      </trkpt>
      <trkpt lat="43.74909" lon="6.18614">
        <ele>681.8</ele>
        <time>2023-01-30T10:52:55.688Z</time>
      </trkpt>
      <trkpt lat="43.74904" lon="6.18614">
        <ele>682.1</ele>
        <time>2023-01-30T10:53:05.146Z</time>
      </trkpt>
      <trkpt lat="43.74899" lon="6.18613">
        <ele>682.4</ele>
        <time>2023-01-30T10:53:14.703Z</time>
      </trkpt>
      <trkpt lat="43.74894" lon="6.18612">
        <ele>682.7</ele>
        <time>2023-01-30T10:53:24.102Z</time>
      </trkpt>
      <trkpt lat="43.74888" lon="6.18611">
        <ele>683</ele>
        <time>2023-01-30T10:53:35.346Z</time>
      </trkpt>
      <trkpt lat="43.74882" lon="6.18614">
        <ele>683.5</ele>
        <time>2023-01-30T10:53:47.678Z</time>
      </trkpt>
      <trkpt lat="43.74875" lon="6.18617">
        <ele>683.9</ele>
        <time>2023-01-30T10:54:01.844Z</time>
      </trkpt>
      <trkpt lat="43.7487" lon="6.18622">
        <ele>684.4</ele>
        <time>2023-01-30T10:54:14.509Z</time>
      </trkpt>
      <trkpt lat="43.74865" lon="6.18626">
        <ele>684.9</ele>
        <time>2023-01-30T10:54:26.368Z</time>
      </trkpt>
      <trkpt lat="43.74861" lon="6.1863">
        <ele>685.3</ele>
        <time>2023-01-30T10:54:36.516Z</time>
      </trkpt>
      <trkpt lat="43.74857" lon="6.18633">
        <ele>685.7</ele>
        <time>2023-01-30T10:54:45.873Z</time>
      </trkpt>
      <trkpt lat="43.74859" lon="6.18642">
        <ele>686.3</ele>
        <time>2023-01-30T10:55:00.036Z</time>
      </trkpt>
      <trkpt lat="43.7486" lon="6.18651">
        <ele>686.9</ele>
        <time>2023-01-30T10:55:13.733Z</time>
      </trkpt>
      <trkpt lat="43.74862" lon="6.18659">
        <ele>687.4</ele>
        <time>2023-01-30T10:55:26.466Z</time>
      </trkpt>
      <trkpt lat="43.74863" lon="6.18668">
        <ele>688</ele>
        <time>2023-01-30T10:55:40.164Z</time>
      </trkpt>
      <trkpt lat="43.74866" lon="6.18675">
        <ele>688.1</ele>
        <time>2023-01-30T10:55:49.873Z</time>
      </trkpt>
      <trkpt lat="43.74869" lon="6.1868">
        <ele>688.2</ele>
        <time>2023-01-30T10:55:57.605Z</time>
      </trkpt>
      <trkpt lat="43.74872" lon="6.18685">
        <ele>688.3</ele>
        <time>2023-01-30T10:56:05.337Z</time>
      </trkpt>
      <trkpt lat="43.74875" lon="6.18689">
        <ele>688.3</ele>
        <time>2023-01-30T10:56:12.196Z</time>
      </trkpt>
      <trkpt lat="43.74878" lon="6.18694">
        <ele>688.4</ele>
        <time>2023-01-30T10:56:19.929Z</time>
      </trkpt>
      <trkpt lat="43.74881" lon="6.18699">
        <ele>688.4</ele>
        <time>2023-01-30T10:56:27.241Z</time>
      </trkpt>
      <trkpt lat="43.74885" lon="6.18703">
        <ele>688.5</ele>
        <time>2023-01-30T10:56:34.926Z</time>
      </trkpt>
      <trkpt lat="43.74888" lon="6.18708">
        <ele>688.5</ele>
        <time>2023-01-30T10:56:42.239Z</time>
      </trkpt>
      <trkpt lat="43.74891" lon="6.18712">
        <ele>688.4</ele>
        <time>2023-01-30T10:56:48.728Z</time>
      </trkpt>
      <trkpt lat="43.74895" lon="6.18718">
        <ele>688.2</ele>
        <time>2023-01-30T10:56:56.815Z</time>
      </trkpt>
      <trkpt lat="43.749" lon="6.18725">
        <ele>687.9</ele>
        <time>2023-01-30T10:57:06.566Z</time>
      </trkpt>
      <trkpt lat="43.74904" lon="6.18731">
        <ele>687.6</ele>
        <time>2023-01-30T10:57:14.654Z</time>
      </trkpt>
      <trkpt lat="43.74908" lon="6.18737">
        <ele>687.3</ele>
        <time>2023-01-30T10:57:22.742Z</time>
      </trkpt>
      <trkpt lat="43.74913" lon="6.18744">
        <ele>687.1</ele>
        <time>2023-01-30T10:57:32.891Z</time>
      </trkpt>
      <trkpt lat="43.74917" lon="6.1875">
        <ele>687</ele>
        <time>2023-01-30T10:57:41.308Z</time>
      </trkpt>
      <trkpt lat="43.74922" lon="6.18757">
        <ele>686.7</ele>
        <time>2023-01-30T10:57:51.457Z</time>
      </trkpt>
      <trkpt lat="43.74926" lon="6.18763">
        <ele>686.5</ele>
        <time>2023-01-30T10:57:59.875Z</time>
      </trkpt>
      <trkpt lat="43.74929" lon="6.18768">
        <ele>686.3</ele>
        <time>2023-01-30T10:58:06.542Z</time>
      </trkpt>
      <trkpt lat="43.74933" lon="6.18773">
        <ele>686.1</ele>
        <time>2023-01-30T10:58:14.196Z</time>
      </trkpt>
      <trkpt lat="43.74936" lon="6.18777">
        <ele>685.9</ele>
        <time>2023-01-30T10:58:20.111Z</time>
      </trkpt>
      <trkpt lat="43.74939" lon="6.18782">
        <ele>685.9</ele>
        <time>2023-01-30T10:58:26.780Z</time>
      </trkpt>
      <trkpt lat="43.74944" lon="6.18791">
        <ele>686</ele>
        <time>2023-01-30T10:58:40.658Z</time>
      </trkpt>
      <trkpt lat="43.74949" lon="6.188">
        <ele>686.1</ele>
        <time>2023-01-30T10:58:54.536Z</time>
      </trkpt>
      <trkpt lat="43.74954" lon="6.18808">
        <ele>686.3</ele>
        <time>2023-01-30T10:59:07.467Z</time>
      </trkpt>
      <trkpt lat="43.74959" lon="6.18817">
        <ele>686.7</ele>
        <time>2023-01-30T10:59:21.346Z</time>
      </trkpt>
      <trkpt lat="43.74963" lon="6.18826">
        <ele>687.1</ele>
        <time>2023-01-30T10:59:34.263Z</time>
      </trkpt>
      <trkpt lat="43.74968" lon="6.18835">
        <ele>687.5</ele>
        <time>2023-01-30T10:59:48.142Z</time>
      </trkpt>
      <trkpt lat="43.74973" lon="6.18843">
        <ele>687.6</ele>
        <time>2023-01-30T11:00:01.073Z</time>
      </trkpt>
      <trkpt lat="43.74978" lon="6.18852">
        <ele>687.5</ele>
        <time>2023-01-30T11:00:14.953Z</time>
      </trkpt>
      <trkpt lat="43.74981" lon="6.18859">
        <ele>687.6</ele>
        <time>2023-01-30T11:00:24.141Z</time>
      </trkpt>
      <trkpt lat="43.74984" lon="6.18866">
        <ele>687.7</ele>
        <time>2023-01-30T11:00:33.329Z</time>
      </trkpt>
      <trkpt lat="43.74986" lon="6.18873">
        <ele>687.6</ele>
        <time>2023-01-30T11:00:41.826Z</time>
      </trkpt>
      <trkpt lat="43.74989" lon="6.1888">
        <ele>687.5</ele>
        <time>2023-01-30T11:00:51.015Z</time>
      </trkpt>
      <trkpt lat="43.74992" lon="6.18889">
        <ele>687.5</ele>
        <time>2023-01-30T11:01:02.982Z</time>
      </trkpt>
      <trkpt lat="43.74994" lon="6.18898">
        <ele>687.7</ele>
        <time>2023-01-30T11:01:14.351Z</time>
      </trkpt>
      <trkpt lat="43.74997" lon="6.18907">
        <ele>687.9</ele>
        <time>2023-01-30T11:01:26.318Z</time>
      </trkpt>
      <trkpt lat="43.74999" lon="6.18916">
        <ele>688.1</ele>
        <time>2023-01-30T11:01:37.688Z</time>
      </trkpt>
      <trkpt lat="43.75001" lon="6.18924">
        <ele>688.1</ele>
        <time>2023-01-30T11:01:47.225Z</time>
      </trkpt>
      <trkpt lat="43.75002" lon="6.18932">
        <ele>688.1</ele>
        <time>2023-01-30T11:01:56.372Z</time>
      </trkpt>
      <trkpt lat="43.75004" lon="6.18939">
        <ele>688.1</ele>
        <time>2023-01-30T11:02:04.852Z</time>
      </trkpt>
      <trkpt lat="43.75005" lon="6.18947">
        <ele>688.1</ele>
        <time>2023-01-30T11:02:14.000Z</time>
      </trkpt>
      <trkpt lat="43.75007" lon="6.18954">
        <ele>688.2</ele>
        <time>2023-01-30T11:02:22.768Z</time>
      </trkpt>
      <trkpt lat="43.75009" lon="6.18961">
        <ele>688.2</ele>
        <time>2023-01-30T11:02:31.536Z</time>
      </trkpt>
      <trkpt lat="43.75011" lon="6.18967">
        <ele>688.3</ele>
        <time>2023-01-30T11:02:39.233Z</time>
      </trkpt>
      <trkpt lat="43.75013" lon="6.18974">
        <ele>688.3</ele>
        <time>2023-01-30T11:02:48.003Z</time>
      </trkpt>
      <trkpt lat="43.75015" lon="6.18986">
        <ele>689</ele>
        <time>2023-01-30T11:03:06.173Z</time>
      </trkpt>
      <trkpt lat="43.75017" lon="6.18997">
        <ele>689.7</ele>
        <time>2023-01-30T11:03:22.910Z</time>
      </trkpt>
      <trkpt lat="43.75018" lon="6.19008">
        <ele>690.6</ele>
        <time>2023-01-30T11:03:41.453Z</time>
      </trkpt>
      <trkpt lat="43.75018" lon="6.19018">
        <ele>691.5</ele>
        <time>2023-01-30T11:03:58.179Z</time>
      </trkpt>
      <trkpt lat="43.75019" lon="6.19023">
        <ele>691.8</ele>
        <time>2023-01-30T11:04:05.785Z</time>
      </trkpt>
      <trkpt lat="43.75018" lon="6.1903">
        <ele>692.7</ele>
        <time>2023-01-30T11:04:22.084Z</time>
      </trkpt>
      <trkpt lat="43.75016" lon="6.19036">
        <ele>693.8</ele>
        <time>2023-01-30T11:04:37.179Z</time>
      </trkpt>
      <trkpt lat="43.75012" lon="6.19045">
        <ele>695.5</ele>
        <time>2023-01-30T11:05:02.015Z</time>
      </trkpt>
      <trkpt lat="43.75007" lon="6.19054">
        <ele>697.1</ele>
        <time>2023-01-30T11:05:28.702Z</time>
      </trkpt>
      <trkpt lat="43.75006" lon="6.1906">
        <ele>697.8</ele>
        <time>2023-01-30T11:05:39.870Z</time>
      </trkpt>
      <trkpt lat="43.75004" lon="6.19066">
        <ele>698.4</ele>
        <time>2023-01-30T11:05:51.856Z</time>
      </trkpt>
      <trkpt lat="43.74998" lon="6.19075">
        <ele>699.6</ele>
        <time>2023-01-30T11:06:13.696Z</time>
      </trkpt>
      <trkpt lat="43.74993" lon="6.19081">
        <ele>700.6</ele>
        <time>2023-01-30T11:06:30.988Z</time>
      </trkpt>
      <trkpt lat="43.74988" lon="6.19087">
        <ele>701.6</ele>
        <time>2023-01-30T11:06:48.281Z</time>
      </trkpt>
      <trkpt lat="43.74983" lon="6.19096">
        <ele>702.9</ele>
        <time>2023-01-30T11:07:09.100Z</time>
      </trkpt>
      <trkpt lat="43.74978" lon="6.19105">
        <ele>704.1</ele>
        <time>2023-01-30T11:07:29.919Z</time>
      </trkpt>
      <trkpt lat="43.74973" lon="6.19114">
        <ele>705.3</ele>
        <time>2023-01-30T11:07:50.739Z</time>
      </trkpt>
      <trkpt lat="43.74968" lon="6.19123">
        <ele>706.3</ele>
        <time>2023-01-30T11:08:11.560Z</time>
      </trkpt>
      <trkpt lat="43.74966" lon="6.19129">
        <ele>706.9</ele>
        <time>2023-01-30T11:08:22.715Z</time>
      </trkpt>
      <trkpt lat="43.74964" lon="6.19135">
        <ele>707.6</ele>
        <time>2023-01-30T11:08:33.870Z</time>
      </trkpt>
      <trkpt lat="43.74962" lon="6.19141">
        <ele>708.2</ele>
        <time>2023-01-30T11:08:45.025Z</time>
      </trkpt>
      <trkpt lat="43.7496" lon="6.19147">
        <ele>708.6</ele>
        <time>2023-01-30T11:08:56.182Z</time>
      </trkpt>
      <trkpt lat="43.74957" lon="6.19155">
        <ele>709.1</ele>
        <time>2023-01-30T11:09:09.794Z</time>
      </trkpt>
      <trkpt lat="43.74954" lon="6.19162">
        <ele>709.7</ele>
        <time>2023-01-30T11:09:22.087Z</time>
      </trkpt>
      <trkpt lat="43.74951" lon="6.19167">
        <ele>710</ele>
        <time>2023-01-30T11:09:30.798Z</time>
      </trkpt>
      <trkpt lat="43.74948" lon="6.19172">
        <ele>710.2</ele>
        <time>2023-01-30T11:09:39.511Z</time>
      </trkpt>
      <trkpt lat="43.74945" lon="6.19183">
        <ele>710.6</ele>
        <time>2023-01-30T11:09:54.957Z</time>
      </trkpt>
      <trkpt lat="43.74945" lon="6.19189">
        <ele>710.8</ele>
        <time>2023-01-30T11:10:02.815Z</time>
      </trkpt>
      <trkpt lat="43.74945" lon="6.19198">
        <ele>711.2</ele>
        <time>2023-01-30T11:10:16.012Z</time>
      </trkpt>
      <trkpt lat="43.74944" lon="6.19206">
        <ele>711.8</ele>
        <time>2023-01-30T11:10:27.917Z</time>
      </trkpt>
      <trkpt lat="43.7494" lon="6.19211">
        <ele>711.8</ele>
        <time>2023-01-30T11:10:36.311Z</time>
      </trkpt>
      <trkpt lat="43.74935" lon="6.19215">
        <ele>711.8</ele>
        <time>2023-01-30T11:10:45.307Z</time>
      </trkpt>
      <trkpt lat="43.74932" lon="6.1922">
        <ele>711.9</ele>
        <time>2023-01-30T11:10:53.167Z</time>
      </trkpt>
      <trkpt lat="43.7493" lon="6.19225">
        <ele>712.1</ele>
        <time>2023-01-30T11:11:00.708Z</time>
      </trkpt>
      <trkpt lat="43.74929" lon="6.19236">
        <ele>712.6</ele>
        <time>2023-01-30T11:11:16.027Z</time>
      </trkpt>
      <trkpt lat="43.74928" lon="6.19247">
        <ele>713</ele>
        <time>2023-01-30T11:11:30.466Z</time>
      </trkpt>
      <trkpt lat="43.74926" lon="6.19257">
        <ele>713.3</ele>
        <time>2023-01-30T11:11:43.981Z</time>
      </trkpt>
      <trkpt lat="43.74925" lon="6.19264">
        <ele>713.3</ele>
        <time>2023-01-30T11:11:52.254Z</time>
      </trkpt>
      <trkpt lat="43.74923" lon="6.1927">
        <ele>713.4</ele>
        <time>2023-01-30T11:11:59.916Z</time>
      </trkpt>
      <trkpt lat="43.74919" lon="6.19281">
        <ele>713.4</ele>
        <time>2023-01-30T11:12:13.850Z</time>
      </trkpt>
      <trkpt lat="43.74915" lon="6.1929">
        <ele>713.1</ele>
        <time>2023-01-30T11:12:24.633Z</time>
      </trkpt>
      <trkpt lat="43.74911" lon="6.19298">
        <ele>712.9</ele>
        <time>2023-01-30T11:12:34.563Z</time>
      </trkpt>
      <trkpt lat="43.74906" lon="6.19307">
        <ele>712.5</ele>
        <time>2023-01-30T11:12:45.779Z</time>
      </trkpt>
      <trkpt lat="43.74902" lon="6.19317">
        <ele>712</ele>
        <time>2023-01-30T11:12:57.071Z</time>
      </trkpt>
      <trkpt lat="43.74897" lon="6.19326">
        <ele>711.3</ele>
        <time>2023-01-30T11:13:08.288Z</time>
      </trkpt>
      <trkpt lat="43.74892" lon="6.19335">
        <ele>710.7</ele>
        <time>2023-01-30T11:13:19.506Z</time>
      </trkpt>
      <trkpt lat="43.74888" lon="6.19342">
        <ele>710.4</ele>
        <time>2023-01-30T11:13:28.727Z</time>
      </trkpt>
      <trkpt lat="43.74883" lon="6.19349">
        <ele>710.3</ele>
        <time>2023-01-30T11:13:38.899Z</time>
      </trkpt>
      <trkpt lat="43.74879" lon="6.19356">
        <ele>710.1</ele>
        <time>2023-01-30T11:13:48.273Z</time>
      </trkpt>
      <trkpt lat="43.74874" lon="6.19362">
        <ele>710</ele>
        <time>2023-01-30T11:13:57.895Z</time>
      </trkpt>
      <trkpt lat="43.74871" lon="6.19367">
        <ele>710</ele>
        <time>2023-01-30T11:14:05.236Z</time>
      </trkpt>
      <trkpt lat="43.74867" lon="6.19372">
        <ele>710</ele>
        <time>2023-01-30T11:14:13.663Z</time>
      </trkpt>
      <trkpt lat="43.74864" lon="6.19376">
        <ele>710</ele>
        <time>2023-01-30T11:14:20.176Z</time>
      </trkpt>
      <trkpt lat="43.7486" lon="6.19381">
        <ele>710</ele>
        <time>2023-01-30T11:14:28.604Z</time>
      </trkpt>
      <trkpt lat="43.74855" lon="6.19387">
        <ele>709.9</ele>
        <time>2023-01-30T11:14:38.475Z</time>
      </trkpt>
      <trkpt lat="43.7485" lon="6.19392">
        <ele>709.8</ele>
        <time>2023-01-30T11:14:47.677Z</time>
      </trkpt>
      <trkpt lat="43.74844" lon="6.19398">
        <ele>709.6</ele>
        <time>2023-01-30T11:14:58.674Z</time>
      </trkpt>
      <trkpt lat="43.74838" lon="6.19404">
        <ele>709.3</ele>
        <time>2023-01-30T11:15:09.671Z</time>
      </trkpt>
      <trkpt lat="43.74832" lon="6.19409">
        <ele>709.1</ele>
        <time>2023-01-30T11:15:20.075Z</time>
      </trkpt>
      <trkpt lat="43.74826" lon="6.19415">
        <ele>709.3</ele>
        <time>2023-01-30T11:15:31.073Z</time>
      </trkpt>
      <trkpt lat="43.7482" lon="6.19421">
        <ele>709.5</ele>
        <time>2023-01-30T11:15:43.422Z</time>
      </trkpt>
      <trkpt lat="43.74814" lon="6.19427">
        <ele>709.6</ele>
        <time>2023-01-30T11:15:55.772Z</time>
      </trkpt>
      <trkpt lat="43.7481" lon="6.19431">
        <ele>709.5</ele>
        <time>2023-01-30T11:16:03.038Z</time>
      </trkpt>
      <trkpt lat="43.74806" lon="6.19435">
        <ele>709.4</ele>
        <time>2023-01-30T11:16:10.306Z</time>
      </trkpt>
      <trkpt lat="43.74802" lon="6.19439">
        <ele>709.2</ele>
        <time>2023-01-30T11:16:17.356Z</time>
      </trkpt>
      <trkpt lat="43.74798" lon="6.19443">
        <ele>709.1</ele>
        <time>2023-01-30T11:16:24.408Z</time>
      </trkpt>
      <trkpt lat="43.74793" lon="6.19452">
        <ele>709.5</ele>
        <time>2023-01-30T11:16:39.405Z</time>
      </trkpt>
      <trkpt lat="43.74789" lon="6.19461">
        <ele>709.9</ele>
        <time>2023-01-30T11:16:53.722Z</time>
      </trkpt>
      <trkpt lat="43.74784" lon="6.1947">
        <ele>710.4</ele>
        <time>2023-01-30T11:17:09.106Z</time>
      </trkpt>
      <trkpt lat="43.7478" lon="6.19477">
        <ele>710.4</ele>
        <time>2023-01-30T11:17:18.710Z</time>
      </trkpt>
      <trkpt lat="43.74776" lon="6.19483">
        <ele>710.2</ele>
        <time>2023-01-30T11:17:27.497Z</time>
      </trkpt>
      <trkpt lat="43.7477" lon="6.19492">
        <ele>710</ele>
        <time>2023-01-30T11:17:40.435Z</time>
      </trkpt>
      <trkpt lat="43.74765" lon="6.19502">
        <ele>710.2</ele>
        <time>2023-01-30T11:17:55.210Z</time>
      </trkpt>
      <trkpt lat="43.74761" lon="6.19511">
        <ele>710.4</ele>
        <time>2023-01-30T11:18:08.188Z</time>
      </trkpt>
      <trkpt lat="43.74758" lon="6.19517">
        <ele>710.6</ele>
        <time>2023-01-30T11:18:17.784Z</time>
      </trkpt>
      <trkpt lat="43.74755" lon="6.19523">
        <ele>710.9</ele>
        <time>2023-01-30T11:18:27.381Z</time>
      </trkpt>
      <trkpt lat="43.74749" lon="6.19531">
        <ele>711</ele>
        <time>2023-01-30T11:18:40.924Z</time>
      </trkpt>
      <trkpt lat="43.74742" lon="6.19537">
        <ele>710.7</ele>
        <time>2023-01-30T11:18:52.480Z</time>
      </trkpt>
      <trkpt lat="43.74738" lon="6.1954">
        <ele>710.5</ele>
        <time>2023-01-30T11:18:58.981Z</time>
      </trkpt>
      <trkpt lat="43.74733" lon="6.19543">
        <ele>710.4</ele>
        <time>2023-01-30T11:19:06.769Z</time>
      </trkpt>
      <trkpt lat="43.74728" lon="6.19547">
        <ele>710.2</ele>
        <time>2023-01-30T11:19:14.971Z</time>
      </trkpt>
      <trkpt lat="43.74722" lon="6.19551">
        <ele>710</ele>
        <time>2023-01-30T11:19:24.430Z</time>
      </trkpt>
      <trkpt lat="43.74715" lon="6.19559">
        <ele>709.8</ele>
        <time>2023-01-30T11:19:37.925Z</time>
      </trkpt>
      <trkpt lat="43.74708" lon="6.19566">
        <ele>709.7</ele>
        <time>2023-01-30T11:19:50.764Z</time>
      </trkpt>
      <trkpt lat="43.74703" lon="6.19572">
        <ele>709.7</ele>
        <time>2023-01-30T11:20:01.373Z</time>
      </trkpt>
      <trkpt lat="43.74698" lon="6.19578">
        <ele>709.8</ele>
        <time>2023-01-30T11:20:11.983Z</time>
      </trkpt>
      <trkpt lat="43.74693" lon="6.19586">
        <ele>709.9</ele>
        <time>2023-01-30T11:20:23.940Z</time>
      </trkpt>
      <trkpt lat="43.74687" lon="6.19594">
        <ele>709.8</ele>
        <time>2023-01-30T11:20:36.975Z</time>
      </trkpt>
      <trkpt lat="43.74681" lon="6.19602">
        <ele>709.8</ele>
        <time>2023-01-30T11:20:50.518Z</time>
      </trkpt>
      <trkpt lat="43.74675" lon="6.1961">
        <ele>710</ele>
        <time>2023-01-30T11:21:04.062Z</time>
      </trkpt>
      <trkpt lat="43.74672" lon="6.19615">
        <ele>710.1</ele>
        <time>2023-01-30T11:21:11.639Z</time>
      </trkpt>
      <trkpt lat="43.74668" lon="6.1962">
        <ele>710.3</ele>
        <time>2023-01-30T11:21:20.336Z</time>
      </trkpt>
      <trkpt lat="43.74665" lon="6.19624">
        <ele>710.3</ele>
        <time>2023-01-30T11:21:27.058Z</time>
      </trkpt>
      <trkpt lat="43.74661" lon="6.19629">
        <ele>710.2</ele>
        <time>2023-01-30T11:21:35.757Z</time>
      </trkpt>
      <trkpt lat="43.74656" lon="6.19636">
        <ele>710.1</ele>
        <time>2023-01-30T11:21:46.320Z</time>
      </trkpt>
      <trkpt lat="43.74651" lon="6.19643">
        <ele>710</ele>
        <time>2023-01-30T11:21:56.883Z</time>
      </trkpt>
      <trkpt lat="43.74645" lon="6.1965">
        <ele>709.9</ele>
        <time>2023-01-30T11:22:08.538Z</time>
      </trkpt>
      <trkpt lat="43.7464" lon="6.19657">
        <ele>709.7</ele>
        <time>2023-01-30T11:22:19.102Z</time>
      </trkpt>
      <trkpt lat="43.74636" lon="6.19664">
        <ele>709.6</ele>
        <time>2023-01-30T11:22:28.269Z</time>
      </trkpt>
      <trkpt lat="43.74632" lon="6.19671">
        <ele>709.3</ele>
        <time>2023-01-30T11:22:37.437Z</time>
      </trkpt>
      <trkpt lat="43.74627" lon="6.19677">
        <ele>709.1</ele>
        <time>2023-01-30T11:22:46.846Z</time>
      </trkpt>
      <trkpt lat="43.74623" lon="6.19684">
        <ele>708.9</ele>
        <time>2023-01-30T11:22:56.015Z</time>
      </trkpt>
      <trkpt lat="43.74618" lon="6.19692">
        <ele>708.7</ele>
        <time>2023-01-30T11:23:07.479Z</time>
      </trkpt>
      <trkpt lat="43.74614" lon="6.19699">
        <ele>708.6</ele>
        <time>2023-01-30T11:23:17.152Z</time>
      </trkpt>
      <trkpt lat="43.74609" lon="6.19707">
        <ele>708.6</ele>
        <time>2023-01-30T11:23:28.617Z</time>
      </trkpt>
      <trkpt lat="43.74604" lon="6.19714">
        <ele>708.5</ele>
        <time>2023-01-30T11:23:39.286Z</time>
      </trkpt>
      <trkpt lat="43.746" lon="6.19719">
        <ele>708.3</ele>
        <time>2023-01-30T11:23:46.659Z</time>
      </trkpt>
      <trkpt lat="43.74597" lon="6.19724">
        <ele>708</ele>
        <time>2023-01-30T11:23:53.082Z</time>
      </trkpt>
      <trkpt lat="43.74593" lon="6.19729">
        <ele>707.7</ele>
        <time>2023-01-30T11:24:00.455Z</time>
      </trkpt>
      <trkpt lat="43.74589" lon="6.19734">
        <ele>707.3</ele>
        <time>2023-01-30T11:24:07.829Z</time>
      </trkpt>
      <trkpt lat="43.74584" lon="6.19742">
        <ele>706.7</ele>
        <time>2023-01-30T11:24:18.292Z</time>
      </trkpt>
      <trkpt lat="43.74578" lon="6.1975">
        <ele>706</ele>
        <time>2023-01-30T11:24:29.698Z</time>
      </trkpt>
      <trkpt lat="43.74573" lon="6.19756">
        <ele>705.7</ele>
        <time>2023-01-30T11:24:38.766Z</time>
      </trkpt>
      <trkpt lat="43.74568" lon="6.19762">
        <ele>705.3</ele>
        <time>2023-01-30T11:24:47.836Z</time>
      </trkpt>
      <trkpt lat="43.74561" lon="6.19769">
        <ele>704.5</ele>
        <time>2023-01-30T11:24:59.670Z</time>
      </trkpt>
      <trkpt lat="43.74554" lon="6.19776">
        <ele>703.7</ele>
        <time>2023-01-30T11:25:11.506Z</time>
      </trkpt>
      <trkpt lat="43.7455" lon="6.1978">
        <ele>703.6</ele>
        <time>2023-01-30T11:25:19.083Z</time>
      </trkpt>
      <trkpt lat="43.74546" lon="6.19784">
        <ele>703.7</ele>
        <time>2023-01-30T11:25:26.660Z</time>
      </trkpt>
      <trkpt lat="43.74541" lon="6.19787">
        <ele>703.6</ele>
        <time>2023-01-30T11:25:35.028Z</time>
      </trkpt>
      <trkpt lat="43.74537" lon="6.19791">
        <ele>703.6</ele>
        <time>2023-01-30T11:25:42.606Z</time>
      </trkpt>
      <trkpt lat="43.74532" lon="6.19795">
        <ele>703.4</ele>
        <time>2023-01-30T11:25:52.029Z</time>
      </trkpt>
      <trkpt lat="43.74528" lon="6.19799">
        <ele>703.3</ele>
        <time>2023-01-30T11:26:00.081Z</time>
      </trkpt>
      <trkpt lat="43.74523" lon="6.19803">
        <ele>703.5</ele>
        <time>2023-01-30T11:26:09.505Z</time>
      </trkpt>
      <trkpt lat="43.74518" lon="6.19807">
        <ele>703.9</ele>
        <time>2023-01-30T11:26:18.930Z</time>
      </trkpt>
      <trkpt lat="43.74512" lon="6.19811">
        <ele>704.3</ele>
        <time>2023-01-30T11:26:31.587Z</time>
      </trkpt>
      <trkpt lat="43.74507" lon="6.19816">
        <ele>704.7</ele>
        <time>2023-01-30T11:26:43.311Z</time>
      </trkpt>
      <trkpt lat="43.74501" lon="6.1982">
        <ele>705.1</ele>
        <time>2023-01-30T11:26:55.968Z</time>
      </trkpt>
      <trkpt lat="43.74495" lon="6.19824">
        <ele>705.5</ele>
        <time>2023-01-30T11:27:08.627Z</time>
      </trkpt>
      <trkpt lat="43.74488" lon="6.19829">
        <ele>705.9</ele>
        <time>2023-01-30T11:27:22.724Z</time>
      </trkpt>
      <trkpt lat="43.7448" lon="6.19833">
        <ele>706.2</ele>
        <time>2023-01-30T11:27:37.947Z</time>
      </trkpt>
      <trkpt lat="43.74473" lon="6.19839">
        <ele>706.8</ele>
        <time>2023-01-30T11:27:52.889Z</time>
      </trkpt>
      <trkpt lat="43.74465" lon="6.19844">
        <ele>707</ele>
        <time>2023-01-30T11:28:08.819Z</time>
      </trkpt>
      <trkpt lat="43.7446" lon="6.19849">
        <ele>707.3</ele>
        <time>2023-01-30T11:28:19.707Z</time>
      </trkpt>
      <trkpt lat="43.74454" lon="6.19853">
        <ele>707.5</ele>
        <time>2023-01-30T11:28:31.463Z</time>
      </trkpt>
      <trkpt lat="43.74449" lon="6.19858">
        <ele>707.8</ele>
        <time>2023-01-30T11:28:42.615Z</time>
      </trkpt>
      <trkpt lat="43.74443" lon="6.19863">
        <ele>708.1</ele>
        <time>2023-01-30T11:28:55.278Z</time>
      </trkpt>
      <trkpt lat="43.74439" lon="6.19868">
        <ele>708.3</ele>
        <time>2023-01-30T11:29:04.512Z</time>
      </trkpt>
      <trkpt lat="43.74435" lon="6.19872">
        <ele>708.4</ele>
        <time>2023-01-30T11:29:12.967Z</time>
      </trkpt>
      <trkpt lat="43.74432" lon="6.19877">
        <ele>708.5</ele>
        <time>2023-01-30T11:29:20.772Z</time>
      </trkpt>
      <trkpt lat="43.74428" lon="6.19882">
        <ele>708.6</ele>
        <time>2023-01-30T11:29:29.731Z</time>
      </trkpt>
      <trkpt lat="43.74421" lon="6.19889">
        <ele>708.5</ele>
        <time>2023-01-30T11:29:42.786Z</time>
      </trkpt>
      <trkpt lat="43.74418" lon="6.19893">
        <ele>708.5</ele>
        <time>2023-01-30T11:29:49.757Z</time>
      </trkpt>
      <trkpt lat="43.74414" lon="6.19897">
        <ele>708.7</ele>
        <time>2023-01-30T11:29:58.017Z</time>
      </trkpt>
      <trkpt lat="43.74409" lon="6.19901">
        <ele>708.6</ele>
        <time>2023-01-30T11:30:06.825Z</time>
      </trkpt>
      <trkpt lat="43.74404" lon="6.19905">
        <ele>708.6</ele>
        <time>2023-01-30T11:30:15.634Z</time>
      </trkpt>
      <trkpt lat="43.74399" lon="6.1991">
        <ele>708.4</ele>
        <time>2023-01-30T11:30:24.389Z</time>
      </trkpt>
      <trkpt lat="43.74393" lon="6.19914">
        <ele>708.2</ele>
        <time>2023-01-30T11:30:33.843Z</time>
      </trkpt>
      <trkpt lat="43.74388" lon="6.19918">
        <ele>708</ele>
        <time>2023-01-30T11:30:41.998Z</time>
      </trkpt>
      <trkpt lat="43.74382" lon="6.19921">
        <ele>707.8</ele>
        <time>2023-01-30T11:30:51.008Z</time>
      </trkpt>
      <trkpt lat="43.74378" lon="6.19923">
        <ele>707.5</ele>
        <time>2023-01-30T11:30:56.833Z</time>
      </trkpt>
      <trkpt lat="43.74373" lon="6.19925">
        <ele>707.3</ele>
        <time>2023-01-30T11:31:03.962Z</time>
      </trkpt>
      <trkpt lat="43.74369" lon="6.19927">
        <ele>707</ele>
        <time>2023-01-30T11:31:09.787Z</time>
      </trkpt>
      <trkpt lat="43.74364" lon="6.19929">
        <ele>706.7</ele>
        <time>2023-01-30T11:31:16.917Z</time>
      </trkpt>
      <trkpt lat="43.7436" lon="6.19933">
        <ele>706.5</ele>
        <time>2023-01-30T11:31:23.761Z</time>
      </trkpt>
      <trkpt lat="43.74356" lon="6.19938">
        <ele>706.2</ele>
        <time>2023-01-30T11:31:31.147Z</time>
      </trkpt>
      <trkpt lat="43.74351" lon="6.19947">
        <ele>706.1</ele>
        <time>2023-01-30T11:31:43.994Z</time>
      </trkpt>
      <trkpt lat="43.74346" lon="6.19956">
        <ele>706.2</ele>
        <time>2023-01-30T11:31:56.842Z</time>
      </trkpt>
      <trkpt lat="43.74342" lon="6.19963">
        <ele>706.3</ele>
        <time>2023-01-30T11:32:06.801Z</time>
      </trkpt>
      <trkpt lat="43.74339" lon="6.19969">
        <ele>706.3</ele>
        <time>2023-01-30T11:32:14.943Z</time>
      </trkpt>
      <trkpt lat="43.74335" lon="6.19976">
        <ele>706.3</ele>
        <time>2023-01-30T11:32:24.903Z</time>
      </trkpt>
      <trkpt lat="43.74331" lon="6.19982">
        <ele>706.1</ele>
        <time>2023-01-30T11:32:34.015Z</time>
      </trkpt>
      <trkpt lat="43.74328" lon="6.19988">
        <ele>706</ele>
        <time>2023-01-30T11:32:41.659Z</time>
      </trkpt>
      <trkpt lat="43.74325" lon="6.19993">
        <ele>705.8</ele>
        <time>2023-01-30T11:32:48.468Z</time>
      </trkpt>
      <trkpt lat="43.74322" lon="6.19999">
        <ele>705.7</ele>
        <time>2023-01-30T11:32:56.112Z</time>
      </trkpt>
      <trkpt lat="43.74319" lon="6.20004">
        <ele>705.6</ele>
        <time>2023-01-30T11:33:02.922Z</time>
      </trkpt>
      <trkpt lat="43.74315" lon="6.2001">
        <ele>705.4</ele>
        <time>2023-01-30T11:33:11.002Z</time>
      </trkpt>
      <trkpt lat="43.74311" lon="6.20015">
        <ele>705.1</ele>
        <time>2023-01-30T11:33:18.387Z</time>
      </trkpt>
      <trkpt lat="43.74307" lon="6.20019">
        <ele>704.8</ele>
        <time>2023-01-30T11:33:25.150Z</time>
      </trkpt>
      <trkpt lat="43.74303" lon="6.20022">
        <ele>704.5</ele>
        <time>2023-01-30T11:33:31.349Z</time>
      </trkpt>
      <trkpt lat="43.74298" lon="6.20024">
        <ele>704.1</ele>
        <time>2023-01-30T11:33:38.441Z</time>
      </trkpt>
      <trkpt lat="43.74294" lon="6.20027">
        <ele>703.7</ele>
        <time>2023-01-30T11:33:44.640Z</time>
      </trkpt>
      <trkpt lat="43.74289" lon="6.20029">
        <ele>703.3</ele>
        <time>2023-01-30T11:33:51.733Z</time>
      </trkpt>
      <trkpt lat="43.74282" lon="6.20035">
        <ele>702.7</ele>
        <time>2023-01-30T11:34:03.016Z</time>
      </trkpt>
      <trkpt lat="43.74275" lon="6.20041">
        <ele>702.2</ele>
        <time>2023-01-30T11:34:14.301Z</time>
      </trkpt>
      <trkpt lat="43.74271" lon="6.20045">
        <ele>701.9</ele>
        <time>2023-01-30T11:34:21.024Z</time>
      </trkpt>
      <trkpt lat="43.74266" lon="6.20048">
        <ele>701.6</ele>
        <time>2023-01-30T11:34:28.449Z</time>
      </trkpt>
      <trkpt lat="43.74259" lon="6.20054">
        <ele>700.9</ele>
        <time>2023-01-30T11:34:39.709Z</time>
      </trkpt>
      <trkpt lat="43.74251" lon="6.20059">
        <ele>700.2</ele>
        <time>2023-01-30T11:34:51.714Z</time>
      </trkpt>
      <trkpt lat="43.74244" lon="6.20064">
        <ele>699.8</ele>
        <time>2023-01-30T11:35:02.494Z</time>
      </trkpt>
      <trkpt lat="43.74238" lon="6.20069">
        <ele>699.4</ele>
        <time>2023-01-30T11:35:12.079Z</time>
      </trkpt>
      <trkpt lat="43.74231" lon="6.20073">
        <ele>698.8</ele>
        <time>2023-01-30T11:35:22.443Z</time>
      </trkpt>
      <trkpt lat="43.74224" lon="6.20078">
        <ele>698.2</ele>
        <time>2023-01-30T11:35:33.225Z</time>
      </trkpt>
      <trkpt lat="43.74217" lon="6.20084">
        <ele>697.6</ele>
        <time>2023-01-30T11:35:44.504Z</time>
      </trkpt>
      <trkpt lat="43.74209" lon="6.2009">
        <ele>697.3</ele>
        <time>2023-01-30T11:35:56.970Z</time>
      </trkpt>
      <trkpt lat="43.74204" lon="6.20094">
        <ele>697.1</ele>
        <time>2023-01-30T11:36:04.871Z</time>
      </trkpt>
      <trkpt lat="43.74199" lon="6.20097">
        <ele>696.8</ele>
        <time>2023-01-30T11:36:12.328Z</time>
      </trkpt>
      <trkpt lat="43.74193" lon="6.20103">
        <ele>696.6</ele>
        <time>2023-01-30T11:36:22.463Z</time>
      </trkpt>
      <trkpt lat="43.74187" lon="6.20108">
        <ele>696.1</ele>
        <time>2023-01-30T11:36:32.054Z</time>
      </trkpt>
      <trkpt lat="43.74183" lon="6.20113">
        <ele>695.8</ele>
        <time>2023-01-30T11:36:39.429Z</time>
      </trkpt>
      <trkpt lat="43.74179" lon="6.20117">
        <ele>695.3</ele>
        <time>2023-01-30T11:36:46.183Z</time>
      </trkpt>
      <trkpt lat="43.74175" lon="6.20123">
        <ele>694.9</ele>
        <time>2023-01-30T11:36:54.258Z</time>
      </trkpt>
      <trkpt lat="43.74171" lon="6.20128">
        <ele>694.5</ele>
        <time>2023-01-30T11:37:01.637Z</time>
      </trkpt>
      <trkpt lat="43.74166" lon="6.20136">
        <ele>693.9</ele>
        <time>2023-01-30T11:37:12.111Z</time>
      </trkpt>
      <trkpt lat="43.74164" lon="6.20142">
        <ele>693.9</ele>
        <time>2023-01-30T11:37:19.588Z</time>
      </trkpt>
      <trkpt lat="43.74163" lon="6.20151">
        <ele>694.1</ele>
        <time>2023-01-30T11:37:30.924Z</time>
      </trkpt>
      <trkpt lat="43.74164" lon="6.20161">
        <ele>694.5</ele>
        <time>2023-01-30T11:37:44.529Z</time>
      </trkpt>
      <trkpt lat="43.74166" lon="6.20171">
        <ele>694.9</ele>
        <time>2023-01-30T11:37:58.444Z</time>
      </trkpt>
      <trkpt lat="43.74169" lon="6.20178">
        <ele>695.1</ele>
        <time>2023-01-30T11:38:08.799Z</time>
      </trkpt>
      <trkpt lat="43.74171" lon="6.20184">
        <ele>695.3</ele>
        <time>2023-01-30T11:38:17.206Z</time>
      </trkpt>
      <trkpt lat="43.74174" lon="6.20194">
        <ele>695.5</ele>
        <time>2023-01-30T11:38:30.479Z</time>
      </trkpt>
      <trkpt lat="43.74175" lon="6.20204">
        <ele>695.6</ele>
        <time>2023-01-30T11:38:42.399Z</time>
      </trkpt>
      <trkpt lat="43.74175" lon="6.20212">
        <ele>695.6</ele>
        <time>2023-01-30T11:38:51.451Z</time>
      </trkpt>
      <trkpt lat="43.74175" lon="6.20219">
        <ele>695.6</ele>
        <time>2023-01-30T11:38:59.373Z</time>
      </trkpt>
      <trkpt lat="43.74174" lon="6.20227">
        <ele>695.7</ele>
        <time>2023-01-30T11:39:09.061Z</time>
      </trkpt>
      <trkpt lat="43.74171" lon="6.20233">
        <ele>695.6</ele>
        <time>2023-01-30T11:39:16.855Z</time>
      </trkpt>
      <trkpt lat="43.74166" lon="6.2024">
        <ele>695.6</ele>
        <time>2023-01-30T11:39:27.994Z</time>
      </trkpt>
      <trkpt lat="43.74163" lon="6.20246">
        <ele>695.6</ele>
        <time>2023-01-30T11:39:36.251Z</time>
      </trkpt>
      <trkpt lat="43.74162" lon="6.20248">
        <ele>695.6</ele>
        <time>2023-01-30T11:39:39.003Z</time>
      </trkpt>
      <trkpt lat="43.74159" lon="6.20255">
        <ele>695.5</ele>
        <time>2023-01-30T11:39:47.748Z</time>
      </trkpt>
      <trkpt lat="43.74156" lon="6.20262">
        <ele>695.4</ele>
        <time>2023-01-30T11:39:56.494Z</time>
      </trkpt>
      <trkpt lat="43.74152" lon="6.20257">
        <ele>695</ele>
        <time>2023-01-30T11:40:03.854Z</time>
      </trkpt>
      <trkpt lat="43.74147" lon="6.20252">
        <ele>694.6</ele>
        <time>2023-01-30T11:40:12.277Z</time>
      </trkpt>
      <trkpt lat="43.74143" lon="6.20246">
        <ele>694.1</ele>
        <time>2023-01-30T11:40:20.332Z</time>
      </trkpt>
      <trkpt lat="43.74138" lon="6.20241">
        <ele>693.6</ele>
        <time>2023-01-30T11:40:28.757Z</time>
      </trkpt>
      <trkpt lat="43.74132" lon="6.20233">
        <ele>693</ele>
        <time>2023-01-30T11:40:40.166Z</time>
      </trkpt>
      <trkpt lat="43.74125" lon="6.20225">
        <ele>692.2</ele>
        <time>2023-01-30T11:40:52.598Z</time>
      </trkpt>
      <trkpt lat="43.74119" lon="6.20217">
        <ele>691.3</ele>
        <time>2023-01-30T11:41:04.007Z</time>
      </trkpt>
      <trkpt lat="43.74112" lon="6.20209">
        <ele>690.6</ele>
        <time>2023-01-30T11:41:16.440Z</time>
      </trkpt>
      <trkpt lat="43.74107" lon="6.20203">
        <ele>690</ele>
        <time>2023-01-30T11:41:25.509Z</time>
      </trkpt>
      <trkpt lat="43.74101" lon="6.20196">
        <ele>689.4</ele>
        <time>2023-01-30T11:41:36.263Z</time>
      </trkpt>
      <trkpt lat="43.74096" lon="6.2019">
        <ele>688.6</ele>
        <time>2023-01-30T11:41:45.332Z</time>
      </trkpt>
      <trkpt lat="43.74091" lon="6.20184">
        <ele>687.5</ele>
        <time>2023-01-30T11:41:54.401Z</time>
      </trkpt>
      <trkpt lat="43.74085" lon="6.20177">
        <ele>686.3</ele>
        <time>2023-01-30T11:42:05.155Z</time>
      </trkpt>
      <trkpt lat="43.7408" lon="6.20171">
        <ele>685.3</ele>
        <time>2023-01-30T11:42:14.224Z</time>
      </trkpt>
      <trkpt lat="43.74074" lon="6.20164">
        <ele>684.6</ele>
        <time>2023-01-30T11:42:24.979Z</time>
      </trkpt>
      <trkpt lat="43.74069" lon="6.20158">
        <ele>684</ele>
        <time>2023-01-30T11:42:34.049Z</time>
      </trkpt>
      <trkpt lat="43.74065" lon="6.20153">
        <ele>683.4</ele>
        <time>2023-01-30T11:42:41.429Z</time>
      </trkpt>
      <trkpt lat="43.74061" lon="6.20148">
        <ele>682.5</ele>
        <time>2023-01-30T11:42:48.809Z</time>
      </trkpt>
      <trkpt lat="43.74057" lon="6.20142">
        <ele>681.5</ele>
        <time>2023-01-30T11:42:56.886Z</time>
      </trkpt>
      <trkpt lat="43.74053" lon="6.20137">
        <ele>680.8</ele>
        <time>2023-01-30T11:43:04.267Z</time>
      </trkpt>
      <trkpt lat="43.74049" lon="6.20132">
        <ele>680.4</ele>
        <time>2023-01-30T11:43:11.648Z</time>
      </trkpt>
      <trkpt lat="43.74045" lon="6.20127">
        <ele>680</ele>
        <time>2023-01-30T11:43:19.029Z</time>
      </trkpt>
      <trkpt lat="43.74041" lon="6.20121">
        <ele>679.5</ele>
        <time>2023-01-30T11:43:27.106Z</time>
      </trkpt>
      <trkpt lat="43.74037" lon="6.20116">
        <ele>679</ele>
        <time>2023-01-30T11:43:34.488Z</time>
      </trkpt>
      <trkpt lat="43.74031" lon="6.20109">
        <ele>678.2</ele>
        <time>2023-01-30T11:43:45.242Z</time>
      </trkpt>
      <trkpt lat="43.74025" lon="6.20102">
        <ele>677.7</ele>
        <time>2023-01-30T11:43:55.996Z</time>
      </trkpt>
      <trkpt lat="43.74018" lon="6.20094">
        <ele>676.9</ele>
        <time>2023-01-30T11:44:08.437Z</time>
      </trkpt>
      <trkpt lat="43.74012" lon="6.20087">
        <ele>675.9</ele>
        <time>2023-01-30T11:44:19.192Z</time>
      </trkpt>
      <trkpt lat="43.74007" lon="6.20081">
        <ele>675.2</ele>
        <time>2023-01-30T11:44:28.255Z</time>
      </trkpt>
      <trkpt lat="43.74002" lon="6.20074">
        <ele>674.9</ele>
        <time>2023-01-30T11:44:37.995Z</time>
      </trkpt>
      <trkpt lat="43.73999" lon="6.2007">
        <ele>674.9</ele>
        <time>2023-01-30T11:44:43.756Z</time>
      </trkpt>
      <trkpt lat="43.73995" lon="6.20065">
        <ele>674.8</ele>
        <time>2023-01-30T11:44:51.210Z</time>
      </trkpt>
      <trkpt lat="43.73992" lon="6.20061">
        <ele>674.6</ele>
        <time>2023-01-30T11:44:56.971Z</time>
      </trkpt>
      <trkpt lat="43.73988" lon="6.20057">
        <ele>674.2</ele>
        <time>2023-01-30T11:45:03.796Z</time>
      </trkpt>
      <trkpt lat="43.73985" lon="6.20052">
        <ele>674</ele>
        <time>2023-01-30T11:45:10.290Z</time>
      </trkpt>
      <trkpt lat="43.73981" lon="6.20048">
        <ele>673.7</ele>
        <time>2023-01-30T11:45:17.115Z</time>
      </trkpt>
      <trkpt lat="43.73978" lon="6.20043">
        <ele>673.6</ele>
        <time>2023-01-30T11:45:23.610Z</time>
      </trkpt>
      <trkpt lat="43.73974" lon="6.20039">
        <ele>673.4</ele>
        <time>2023-01-30T11:45:30.437Z</time>
      </trkpt>
      <trkpt lat="43.7397" lon="6.20034">
        <ele>673.3</ele>
        <time>2023-01-30T11:45:37.962Z</time>
      </trkpt>
      <trkpt lat="43.73966" lon="6.20029">
        <ele>673.3</ele>
        <time>2023-01-30T11:45:45.487Z</time>
      </trkpt>
      <trkpt lat="43.73962" lon="6.20024">
        <ele>673.1</ele>
        <time>2023-01-30T11:45:53.013Z</time>
      </trkpt>
      <trkpt lat="43.73959" lon="6.2002">
        <ele>672.8</ele>
        <time>2023-01-30T11:45:58.829Z</time>
      </trkpt>
      <trkpt lat="43.73955" lon="6.20015">
        <ele>672.6</ele>
        <time>2023-01-30T11:46:06.355Z</time>
      </trkpt>
      <trkpt lat="43.73951" lon="6.2001">
        <ele>672.3</ele>
        <time>2023-01-30T11:46:13.881Z</time>
      </trkpt>
      <trkpt lat="43.73947" lon="6.20005">
        <ele>672.1</ele>
        <time>2023-01-30T11:46:21.407Z</time>
      </trkpt>
      <trkpt lat="43.73943" lon="6.2">
        <ele>671.8</ele>
        <time>2023-01-30T11:46:28.934Z</time>
      </trkpt>
      <trkpt lat="43.73938" lon="6.19994">
        <ele>671.4</ele>
        <time>2023-01-30T11:46:38.003Z</time>
      </trkpt>
      <trkpt lat="43.73934" lon="6.19989">
        <ele>671</ele>
        <time>2023-01-30T11:46:45.389Z</time>
      </trkpt>
      <trkpt lat="43.73929" lon="6.19983">
        <ele>670.7</ele>
        <time>2023-01-30T11:46:54.458Z</time>
      </trkpt>
      <trkpt lat="43.73924" lon="6.19977">
        <ele>670.5</ele>
        <time>2023-01-30T11:47:03.528Z</time>
      </trkpt>
      <trkpt lat="43.73918" lon="6.1997">
        <ele>670.1</ele>
        <time>2023-01-30T11:47:14.276Z</time>
      </trkpt>
      <trkpt lat="43.73912" lon="6.19962">
        <ele>669.4</ele>
        <time>2023-01-30T11:47:25.688Z</time>
      </trkpt>
      <trkpt lat="43.73909" lon="6.19957">
        <ele>669</ele>
        <time>2023-01-30T11:47:32.107Z</time>
      </trkpt>
      <trkpt lat="43.73905" lon="6.19952">
        <ele>668.6</ele>
        <time>2023-01-30T11:47:39.475Z</time>
      </trkpt>
      <trkpt lat="43.73902" lon="6.19945">
        <ele>668.4</ele>
        <time>2023-01-30T11:47:47.857Z</time>
      </trkpt>
      <trkpt lat="43.73898" lon="6.19937">
        <ele>668.2</ele>
        <time>2023-01-30T11:47:57.877Z</time>
      </trkpt>
      <trkpt lat="43.73894" lon="6.19928">
        <ele>668</ele>
        <time>2023-01-30T11:48:09.380Z</time>
      </trkpt>
      <trkpt lat="43.7389" lon="6.19918">
        <ele>668</ele>
        <time>2023-01-30T11:48:21.824Z</time>
      </trkpt>
      <trkpt lat="43.73888" lon="6.19912">
        <ele>667.8</ele>
        <time>2023-01-30T11:48:28.352Z</time>
      </trkpt>
      <trkpt lat="43.73887" lon="6.19907">
        <ele>667.4</ele>
        <time>2023-01-30T11:48:33.478Z</time>
      </trkpt>
      <trkpt lat="43.73885" lon="6.19901">
        <ele>667.1</ele>
        <time>2023-01-30T11:48:40.007Z</time>
      </trkpt>
      <trkpt lat="43.73883" lon="6.19895">
        <ele>666.7</ele>
        <time>2023-01-30T11:48:46.537Z</time>
      </trkpt>
      <trkpt lat="43.73881" lon="6.19886">
        <ele>666.4</ele>
        <time>2023-01-30T11:48:55.873Z</time>
      </trkpt>
      <trkpt lat="43.73879" lon="6.19877">
        <ele>666.1</ele>
        <time>2023-01-30T11:49:05.211Z</time>
      </trkpt>
      <trkpt lat="43.73878" lon="6.19868">
        <ele>665.9</ele>
        <time>2023-01-30T11:49:14.203Z</time>
      </trkpt>
      <trkpt lat="43.73876" lon="6.19859">
        <ele>665.5</ele>
        <time>2023-01-30T11:49:23.503Z</time>
      </trkpt>
      <trkpt lat="43.73876" lon="6.19858">
        <ele>665.5</ele>
        <time>2023-01-30T11:49:24.634Z</time>
      </trkpt>
      <trkpt lat="43.73876" lon="6.19849">
        <ele>665.2</ele>
        <time>2023-01-30T11:49:33.545Z</time>
      </trkpt>
      <trkpt lat="43.73876" lon="6.19839">
        <ele>664.8</ele>
        <time>2023-01-30T11:49:43.448Z</time>
      </trkpt>
      <trkpt lat="43.73877" lon="6.1983">
        <ele>664.4</ele>
        <time>2023-01-30T11:49:52.438Z</time>
      </trkpt>
      <trkpt lat="43.73877" lon="6.1982">
        <ele>664</ele>
        <time>2023-01-30T11:50:02.312Z</time>
      </trkpt>
      <trkpt lat="43.73879" lon="6.19809">
        <ele>663.4</ele>
        <time>2023-01-30T11:50:13.519Z</time>
      </trkpt>
      <trkpt lat="43.7388" lon="6.19797">
        <ele>663.1</ele>
        <time>2023-01-30T11:50:25.455Z</time>
      </trkpt>
      <trkpt lat="43.73881" lon="6.1979">
        <ele>662.9</ele>
        <time>2023-01-30T11:50:32.519Z</time>
      </trkpt>
      <trkpt lat="43.73882" lon="6.19784">
        <ele>662.7</ele>
        <time>2023-01-30T11:50:38.615Z</time>
      </trkpt>
      <trkpt lat="43.73883" lon="6.19777">
        <ele>662.5</ele>
        <time>2023-01-30T11:50:45.680Z</time>
      </trkpt>
      <trkpt lat="43.73884" lon="6.1977">
        <ele>662.1</ele>
        <time>2023-01-30T11:50:52.746Z</time>
      </trkpt>
      <trkpt lat="43.73885" lon="6.19762">
        <ele>661.6</ele>
        <time>2023-01-30T11:51:00.755Z</time>
      </trkpt>
      <trkpt lat="43.73885" lon="6.19754">
        <ele>661.1</ele>
        <time>2023-01-30T11:51:08.648Z</time>
      </trkpt>
      <trkpt lat="43.73885" lon="6.19744">
        <ele>660.4</ele>
        <time>2023-01-30T11:51:18.526Z</time>
      </trkpt>
      <trkpt lat="43.73884" lon="6.19734">
        <ele>659.7</ele>
        <time>2023-01-30T11:51:28.500Z</time>
      </trkpt>
      <trkpt lat="43.73884" lon="6.19725">
        <ele>659</ele>
        <time>2023-01-30T11:51:37.385Z</time>
      </trkpt>
      <trkpt lat="43.73883" lon="6.19716">
        <ele>658.5</ele>
        <time>2023-01-30T11:51:46.375Z</time>
      </trkpt>
      <trkpt lat="43.73883" lon="6.19706">
        <ele>658.2</ele>
        <time>2023-01-30T11:51:56.248Z</time>
      </trkpt>
      <trkpt lat="43.73882" lon="6.19697">
        <ele>657.8</ele>
        <time>2023-01-30T11:52:05.239Z</time>
      </trkpt>
      <trkpt lat="43.73882" lon="6.19686">
        <ele>657.1</ele>
        <time>2023-01-30T11:52:16.113Z</time>
      </trkpt>
      <trkpt lat="43.73881" lon="6.19674">
        <ele>656.2</ele>
        <time>2023-01-30T11:52:28.054Z</time>
      </trkpt>
      <trkpt lat="43.73881" lon="6.19663">
        <ele>655.5</ele>
        <time>2023-01-30T11:52:38.928Z</time>
      </trkpt>
      <trkpt lat="43.7388" lon="6.19651">
        <ele>654.9</ele>
        <time>2023-01-30T11:52:50.871Z</time>
      </trkpt>
      <trkpt lat="43.73881" lon="6.19642">
        <ele>654.5</ele>
        <time>2023-01-30T11:52:59.861Z</time>
      </trkpt>
      <trkpt lat="43.73881" lon="6.19633">
        <ele>653.9</ele>
        <time>2023-01-30T11:53:08.747Z</time>
      </trkpt>
      <trkpt lat="43.73883" lon="6.19624">
        <ele>653.3</ele>
        <time>2023-01-30T11:53:18.046Z</time>
      </trkpt>
      <trkpt lat="43.73884" lon="6.19615">
        <ele>652.8</ele>
        <time>2023-01-30T11:53:27.039Z</time>
      </trkpt>
      <trkpt lat="43.73886" lon="6.19605">
        <ele>651.9</ele>
        <time>2023-01-30T11:53:37.312Z</time>
      </trkpt>
      <trkpt lat="43.73888" lon="6.19594">
        <ele>651</ele>
        <time>2023-01-30T11:53:48.543Z</time>
      </trkpt>
      <trkpt lat="43.73891" lon="6.19585">
        <ele>650.2</ele>
        <time>2023-01-30T11:53:58.325Z</time>
      </trkpt>
      <trkpt lat="43.73893" lon="6.19575">
        <ele>649.7</ele>
        <time>2023-01-30T11:54:08.566Z</time>
      </trkpt>
      <trkpt lat="43.73893" lon="6.19565">
        <ele>648.9</ele>
        <time>2023-01-30T11:54:18.468Z</time>
      </trkpt>
      <trkpt lat="43.73892" lon="6.19554">
        <ele>647.9</ele>
        <time>2023-01-30T11:54:29.446Z</time>
      </trkpt>
      <trkpt lat="43.73891" lon="6.19549">
        <ele>647.4</ele>
        <time>2023-01-30T11:54:34.583Z</time>
      </trkpt>
      <trkpt lat="43.73889" lon="6.19541">
        <ele>646.4</ele>
        <time>2023-01-30T11:54:42.941Z</time>
      </trkpt>
      <trkpt lat="43.73888" lon="6.19532">
        <ele>645.3</ele>
        <time>2023-01-30T11:54:51.932Z</time>
      </trkpt>
      <trkpt lat="43.73886" lon="6.19524">
        <ele>644.4</ele>
        <time>2023-01-30T11:55:00.291Z</time>
      </trkpt>
      <trkpt lat="43.73884" lon="6.19515">
        <ele>643.6</ele>
        <time>2023-01-30T11:55:09.590Z</time>
      </trkpt>
      <trkpt lat="43.73878" lon="6.19514">
        <ele>642.8</ele>
        <time>2023-01-30T11:55:17.872Z</time>
      </trkpt>
      <trkpt lat="43.73872" lon="6.19513">
        <ele>642.1</ele>
        <time>2023-01-30T11:55:26.154Z</time>
      </trkpt>
      <trkpt lat="43.73865" lon="6.19512">
        <ele>641.3</ele>
        <time>2023-01-30T11:55:35.798Z</time>
      </trkpt>
      <trkpt lat="43.73859" lon="6.19511">
        <ele>640.3</ele>
        <time>2023-01-30T11:55:44.081Z</time>
      </trkpt>
      <trkpt lat="43.73856" lon="6.19518">
        <ele>640</ele>
        <time>2023-01-30T11:55:52.135Z</time>
      </trkpt>
      <trkpt lat="43.73853" lon="6.19524">
        <ele>639.7</ele>
        <time>2023-01-30T11:55:59.356Z</time>
      </trkpt>
      <trkpt lat="43.73851" lon="6.1953">
        <ele>639.6</ele>
        <time>2023-01-30T11:56:06.024Z</time>
      </trkpt>
      <trkpt lat="43.73849" lon="6.19536">
        <ele>639.3</ele>
        <time>2023-01-30T11:56:12.692Z</time>
      </trkpt>
      <trkpt lat="43.73847" lon="6.19541">
        <ele>639.2</ele>
        <time>2023-01-30T11:56:18.459Z</time>
      </trkpt>
      <trkpt lat="43.73845" lon="6.19547">
        <ele>639</ele>
        <time>2023-01-30T11:56:25.128Z</time>
      </trkpt>
      <trkpt lat="43.73842" lon="6.19554">
        <ele>638.6</ele>
        <time>2023-01-30T11:56:33.391Z</time>
      </trkpt>
      <trkpt lat="43.73838" lon="6.1956">
        <ele>638.6</ele>
        <time>2023-01-30T11:56:41.681Z</time>
      </trkpt>
      <trkpt lat="43.73833" lon="6.19568">
        <ele>638.7</ele>
        <time>2023-01-30T11:56:53.895Z</time>
      </trkpt>
      <trkpt lat="43.73828" lon="6.19576">
        <ele>638.7</ele>
        <time>2023-01-30T11:57:06.111Z</time>
      </trkpt>
      <trkpt lat="43.73822" lon="6.19585">
        <ele>638.8</ele>
        <time>2023-01-30T11:57:20.213Z</time>
      </trkpt>
      <trkpt lat="43.73816" lon="6.19594">
        <ele>638.8</ele>
        <time>2023-01-30T11:57:34.316Z</time>
      </trkpt>
      <trkpt lat="43.73811" lon="6.196">
        <ele>638.6</ele>
        <time>2023-01-30T11:57:43.776Z</time>
      </trkpt>
      <trkpt lat="43.73806" lon="6.19606">
        <ele>638.4</ele>
        <time>2023-01-30T11:57:53.237Z</time>
      </trkpt>
      <trkpt lat="43.73802" lon="6.19613">
        <ele>638.6</ele>
        <time>2023-01-30T11:58:03.784Z</time>
      </trkpt>
      <trkpt lat="43.73797" lon="6.19619">
        <ele>638.6</ele>
        <time>2023-01-30T11:58:14.610Z</time>
      </trkpt>
      <trkpt lat="43.73793" lon="6.19628">
        <ele>638.6</ele>
        <time>2023-01-30T11:58:26.059Z</time>
      </trkpt>
      <trkpt lat="43.73788" lon="6.19636">
        <ele>638.4</ele>
        <time>2023-01-30T11:58:37.522Z</time>
      </trkpt>
      <trkpt lat="43.73785" lon="6.19641">
        <ele>638.1</ele>
        <time>2023-01-30T11:58:44.268Z</time>
      </trkpt>
      <trkpt lat="43.73783" lon="6.19646">
        <ele>638</ele>
        <time>2023-01-30T11:58:50.200Z</time>
      </trkpt>
      <trkpt lat="43.7378" lon="6.19651">
        <ele>637.8</ele>
        <time>2023-01-30T11:58:56.946Z</time>
      </trkpt>
      <trkpt lat="43.73777" lon="6.19656">
        <ele>637.9</ele>
        <time>2023-01-30T11:59:03.693Z</time>
      </trkpt>
      <trkpt lat="43.73774" lon="6.19665">
        <ele>639.2</ele>
        <time>2023-01-30T11:59:23.185Z</time>
      </trkpt>
      <trkpt lat="43.7377" lon="6.19674">
        <ele>640.3</ele>
        <time>2023-01-30T11:59:43.965Z</time>
      </trkpt>
      <trkpt lat="43.73767" lon="6.19681">
        <ele>641</ele>
        <time>2023-01-30T11:59:57.089Z</time>
      </trkpt>
      <trkpt lat="43.73764" lon="6.19687">
        <ele>641.5</ele>
        <time>2023-01-30T12:00:08.856Z</time>
      </trkpt>
      <trkpt lat="43.73762" lon="6.19689">
        <ele>641.5</ele>
        <time>2023-01-30T12:00:12.721Z</time>
      </trkpt>
      <trkpt lat="43.73757" lon="6.19697">
        <ele>641.6</ele>
        <time>2023-01-30T12:00:25.188Z</time>
      </trkpt>
      <trkpt lat="43.73755" lon="6.19699">
        <ele>641.6</ele>
        <time>2023-01-30T12:00:29.052Z</time>
      </trkpt>
      <trkpt lat="43.73751" lon="6.19705">
        <ele>641.5</ele>
        <time>2023-01-30T12:00:40.219Z</time>
      </trkpt>
      <trkpt lat="43.73747" lon="6.19711">
        <ele>642.3</ele>
        <time>2023-01-30T12:00:51.387Z</time>
      </trkpt>
      <trkpt lat="43.73744" lon="6.19716">
        <ele>643.1</ele>
        <time>2023-01-30T12:01:03.745Z</time>
      </trkpt>
      <trkpt lat="43.73742" lon="6.19722">
        <ele>643.8</ele>
        <time>2023-01-30T12:01:16.309Z</time>
      </trkpt>
      <trkpt lat="43.73739" lon="6.19727">
        <ele>644.5</ele>
        <time>2023-01-30T12:01:28.667Z</time>
      </trkpt>
      <trkpt lat="43.73736" lon="6.19732">
        <ele>645.2</ele>
        <time>2023-01-30T12:01:41.026Z</time>
      </trkpt>
      <trkpt lat="43.73733" lon="6.1974">
        <ele>646</ele>
        <time>2023-01-30T12:01:56.103Z</time>
      </trkpt>
      <trkpt lat="43.73729" lon="6.19748">
        <ele>646.8</ele>
        <time>2023-01-30T12:02:12.377Z</time>
      </trkpt>
      <trkpt lat="43.73726" lon="6.19754">
        <ele>647.6</ele>
        <time>2023-01-30T12:02:25.742Z</time>
      </trkpt>
      <trkpt lat="43.73722" lon="6.1976">
        <ele>648.4</ele>
        <time>2023-01-30T12:02:40.697Z</time>
      </trkpt>
      <trkpt lat="43.73719" lon="6.19765">
        <ele>648.9</ele>
        <time>2023-01-30T12:02:50.515Z</time>
      </trkpt>
      <trkpt lat="43.73715" lon="6.1977">
        <ele>649.3</ele>
        <time>2023-01-30T12:03:01.785Z</time>
      </trkpt>
      <trkpt lat="43.73709" lon="6.19779">
        <ele>650</ele>
        <time>2023-01-30T12:03:19.686Z</time>
      </trkpt>
      <trkpt lat="43.73706" lon="6.19785">
        <ele>650.5</ele>
        <time>2023-01-30T12:03:30.943Z</time>
      </trkpt>
      <trkpt lat="43.73703" lon="6.19791">
        <ele>651</ele>
        <time>2023-01-30T12:03:42.202Z</time>
      </trkpt>
      <trkpt lat="43.73701" lon="6.19799">
        <ele>651.5</ele>
        <time>2023-01-30T12:03:54.359Z</time>
      </trkpt>
      <trkpt lat="43.73698" lon="6.19806">
        <ele>651.9</ele>
        <time>2023-01-30T12:04:06.048Z</time>
      </trkpt>
      <trkpt lat="43.73695" lon="6.19816">
        <ele>652.3</ele>
        <time>2023-01-30T12:04:20.569Z</time>
      </trkpt>
      <trkpt lat="43.73692" lon="6.19825">
        <ele>652.7</ele>
        <time>2023-01-30T12:04:33.862Z</time>
      </trkpt>
      <trkpt lat="43.73692" lon="6.19832">
        <ele>652.9</ele>
        <time>2023-01-30T12:04:44.224Z</time>
      </trkpt>
      <trkpt lat="43.73691" lon="6.19838">
        <ele>653.5</ele>
        <time>2023-01-30T12:04:53.340Z</time>
      </trkpt>
      <trkpt lat="43.73688" lon="6.19847">
        <ele>654.4</ele>
        <time>2023-01-30T12:05:10.393Z</time>
      </trkpt>
      <trkpt lat="43.73684" lon="6.19851">
        <ele>654.7</ele>
        <time>2023-01-30T12:05:19.781Z</time>
      </trkpt>
      <trkpt lat="43.7368" lon="6.19859">
        <ele>655.3</ele>
        <time>2023-01-30T12:05:34.309Z</time>
      </trkpt>
      <trkpt lat="43.73678" lon="6.19865">
        <ele>655.6</ele>
        <time>2023-01-30T12:05:43.614Z</time>
      </trkpt>
      <trkpt lat="43.73676" lon="6.19871">
        <ele>655.9</ele>
        <time>2023-01-30T12:05:52.920Z</time>
      </trkpt>
      <trkpt lat="43.73674" lon="6.19877">
        <ele>656.3</ele>
        <time>2023-01-30T12:06:02.226Z</time>
      </trkpt>
      <trkpt lat="43.73672" lon="6.19883">
        <ele>656.6</ele>
        <time>2023-01-30T12:06:11.533Z</time>
      </trkpt>
      <trkpt lat="43.7367" lon="6.1989">
        <ele>657.1</ele>
        <time>2023-01-30T12:06:21.484Z</time>
      </trkpt>
      <trkpt lat="43.73668" lon="6.19898">
        <ele>657.3</ele>
        <time>2023-01-30T12:06:32.676Z</time>
      </trkpt>
      <trkpt lat="43.73666" lon="6.19905">
        <ele>657.5</ele>
        <time>2023-01-30T12:06:42.628Z</time>
      </trkpt>
      <trkpt lat="43.73664" lon="6.19912">
        <ele>657.7</ele>
        <time>2023-01-30T12:06:52.581Z</time>
      </trkpt>
      <trkpt lat="43.73662" lon="6.19918">
        <ele>657.9</ele>
        <time>2023-01-30T12:07:01.458Z</time>
      </trkpt>
      <trkpt lat="43.73661" lon="6.19924">
        <ele>658.2</ele>
        <time>2023-01-30T12:07:09.730Z</time>
      </trkpt>
      <trkpt lat="43.73659" lon="6.19929">
        <ele>658.5</ele>
        <time>2023-01-30T12:07:17.408Z</time>
      </trkpt>
      <trkpt lat="43.73657" lon="6.19935">
        <ele>658.7</ele>
        <time>2023-01-30T12:07:26.286Z</time>
      </trkpt>
      <trkpt lat="43.73654" lon="6.19945">
        <ele>659.1</ele>
        <time>2023-01-30T12:07:40.702Z</time>
      </trkpt>
      <trkpt lat="43.73652" lon="6.19957">
        <ele>659.4</ele>
        <time>2023-01-30T12:07:56.197Z</time>
      </trkpt>
      <trkpt lat="43.7365" lon="6.19967">
        <ele>659.6</ele>
        <time>2023-01-30T12:08:08.961Z</time>
      </trkpt>
      <trkpt lat="43.73648" lon="6.19977">
        <ele>659.8</ele>
        <time>2023-01-30T12:08:21.727Z</time>
      </trkpt>
      <trkpt lat="43.73646" lon="6.19988">
        <ele>660.1</ele>
        <time>2023-01-30T12:08:35.914Z</time>
      </trkpt>
      <trkpt lat="43.73644" lon="6.19998">
        <ele>660.3</ele>
        <time>2023-01-30T12:08:48.892Z</time>
      </trkpt>
      <trkpt lat="43.73643" lon="6.20006">
        <ele>660.3</ele>
        <time>2023-01-30T12:08:57.785Z</time>
      </trkpt>
      <trkpt lat="43.73641" lon="6.20013">
        <ele>660.2</ele>
        <time>2023-01-30T12:09:06.032Z</time>
      </trkpt>
      <trkpt lat="43.73639" lon="6.20021">
        <ele>660</ele>
        <time>2023-01-30T12:09:14.713Z</time>
      </trkpt>
      <trkpt lat="43.73635" lon="6.2003">
        <ele>659.6</ele>
        <time>2023-01-30T12:09:25.176Z</time>
      </trkpt>
      <trkpt lat="43.73631" lon="6.20038">
        <ele>659.1</ele>
        <time>2023-01-30T12:09:34.810Z</time>
      </trkpt>
      <trkpt lat="43.73628" lon="6.20044">
        <ele>658.8</ele>
        <time>2023-01-30T12:09:42.035Z</time>
      </trkpt>
      <trkpt lat="43.73627" lon="6.20051">
        <ele>658.7</ele>
        <time>2023-01-30T12:09:49.648Z</time>
      </trkpt>
      <trkpt lat="43.73626" lon="6.20058">
        <ele>658.5</ele>
        <time>2023-01-30T12:09:56.834Z</time>
      </trkpt>
      <trkpt lat="43.73626" lon="6.20065">
        <ele>658.3</ele>
        <time>2023-01-30T12:10:03.806Z</time>
      </trkpt>
      <trkpt lat="43.73626" lon="6.20071">
        <ele>658.1</ele>
        <time>2023-01-30T12:10:09.783Z</time>
      </trkpt>
      <trkpt lat="43.73626" lon="6.2008">
        <ele>657.7</ele>
        <time>2023-01-30T12:10:18.695Z</time>
      </trkpt>
      <trkpt lat="43.73625" lon="6.20089">
        <ele>657.2</ele>
        <time>2023-01-30T12:10:27.712Z</time>
      </trkpt>
      <trkpt lat="43.73623" lon="6.20101">
        <ele>656.3</ele>
        <time>2023-01-30T12:10:39.907Z</time>
      </trkpt>
      <trkpt lat="43.73621" lon="6.20111">
        <ele>655.4</ele>
        <time>2023-01-30T12:10:50.181Z</time>
      </trkpt>
      <trkpt lat="43.73621" lon="6.20118">
        <ele>655</ele>
        <time>2023-01-30T12:10:57.112Z</time>
      </trkpt>
      <trkpt lat="43.73621" lon="6.20124">
        <ele>654.7</ele>
        <time>2023-01-30T12:11:03.054Z</time>
      </trkpt>
      <trkpt lat="43.73621" lon="6.20131">
        <ele>654.2</ele>
        <time>2023-01-30T12:11:09.960Z</time>
      </trkpt>
      <trkpt lat="43.73621" lon="6.20138">
        <ele>653.7</ele>
        <time>2023-01-30T12:11:16.867Z</time>
      </trkpt>
      <trkpt lat="43.7362" lon="6.20145">
        <ele>653.2</ele>
        <time>2023-01-30T12:11:23.907Z</time>
      </trkpt>
      <trkpt lat="43.7362" lon="6.20152">
        <ele>652.7</ele>
        <time>2023-01-30T12:11:30.815Z</time>
      </trkpt>
      <trkpt lat="43.7362" lon="6.20162">
        <ele>651.9</ele>
        <time>2023-01-30T12:11:40.717Z</time>
      </trkpt>
      <trkpt lat="43.7362" lon="6.20172">
        <ele>651.3</ele>
        <time>2023-01-30T12:11:50.620Z</time>
      </trkpt>
      <trkpt lat="43.7362" lon="6.20179">
        <ele>651</ele>
        <time>2023-01-30T12:11:57.507Z</time>
      </trkpt>
      <trkpt lat="43.73619" lon="6.20185">
        <ele>650.6</ele>
        <time>2023-01-30T12:12:03.566Z</time>
      </trkpt>
      <trkpt lat="43.73618" lon="6.20192">
        <ele>650.1</ele>
        <time>2023-01-30T12:12:10.632Z</time>
      </trkpt>
      <trkpt lat="43.73616" lon="6.20198">
        <ele>649.8</ele>
        <time>2023-01-30T12:12:17.175Z</time>
      </trkpt>
      <trkpt lat="43.73614" lon="6.20203">
        <ele>649.7</ele>
        <time>2023-01-30T12:12:23.185Z</time>
      </trkpt>
      <trkpt lat="43.73611" lon="6.20208">
        <ele>649.5</ele>
        <time>2023-01-30T12:12:29.658Z</time>
      </trkpt>
      <trkpt lat="43.73608" lon="6.20211">
        <ele>649.4</ele>
        <time>2023-01-30T12:12:35.000Z</time>
      </trkpt>
      <trkpt lat="43.73607" lon="6.20213">
        <ele>649.5</ele>
        <time>2023-01-30T12:12:38.300Z</time>
      </trkpt>
      <trkpt lat="43.736" lon="6.20219">
        <ele>649.4</ele>
        <time>2023-01-30T12:12:50.727Z</time>
      </trkpt>
      <trkpt lat="43.73593" lon="6.20224">
        <ele>649.5</ele>
        <time>2023-01-30T12:13:04.022Z</time>
      </trkpt>
      <trkpt lat="43.73585" lon="6.20229">
        <ele>649.8</ele>
        <time>2023-01-30T12:13:18.838Z</time>
      </trkpt>
      <trkpt lat="43.73579" lon="6.20234">
        <ele>650</ele>
        <time>2023-01-30T12:13:30.574Z</time>
      </trkpt>
      <trkpt lat="43.73573" lon="6.20238">
        <ele>650.1</ele>
        <time>2023-01-30T12:13:41.734Z</time>
      </trkpt>
      <trkpt lat="43.73568" lon="6.20243">
        <ele>650.2</ele>
        <time>2023-01-30T12:13:51.900Z</time>
      </trkpt>
      <trkpt lat="43.73563" lon="6.20247">
        <ele>650.3</ele>
        <time>2023-01-30T12:14:01.418Z</time>
      </trkpt>
      <trkpt lat="43.73558" lon="6.20253">
        <ele>650.4</ele>
        <time>2023-01-30T12:14:12.004Z</time>
      </trkpt>
      <trkpt lat="43.73552" lon="6.20259">
        <ele>650.4</ele>
        <time>2023-01-30T12:14:23.846Z</time>
      </trkpt>
      <trkpt lat="43.73548" lon="6.20264">
        <ele>650.3</ele>
        <time>2023-01-30T12:14:31.775Z</time>
      </trkpt>
      <trkpt lat="43.73545" lon="6.20268">
        <ele>650.2</ele>
        <time>2023-01-30T12:14:37.903Z</time>
      </trkpt>
      <trkpt lat="43.73541" lon="6.20273">
        <ele>650.1</ele>
        <time>2023-01-30T12:14:45.833Z</time>
      </trkpt>
      <trkpt lat="43.73537" lon="6.20277">
        <ele>650</ele>
        <time>2023-01-30T12:14:53.094Z</time>
      </trkpt>
      <trkpt lat="43.73534" lon="6.20281">
        <ele>649.7</ele>
        <time>2023-01-30T12:14:58.789Z</time>
      </trkpt>
      <trkpt lat="43.7353" lon="6.20285">
        <ele>649.5</ele>
        <time>2023-01-30T12:15:05.535Z</time>
      </trkpt>
      <trkpt lat="43.73527" lon="6.20289">
        <ele>649.3</ele>
        <time>2023-01-30T12:15:11.230Z</time>
      </trkpt>
      <trkpt lat="43.73523" lon="6.20293">
        <ele>649</ele>
        <time>2023-01-30T12:15:17.978Z</time>
      </trkpt>
      <trkpt lat="43.73519" lon="6.20299">
        <ele>648.7</ele>
        <time>2023-01-30T12:15:26.091Z</time>
      </trkpt>
      <trkpt lat="43.73514" lon="6.20304">
        <ele>648.5</ele>
        <time>2023-01-30T12:15:34.576Z</time>
      </trkpt>
      <trkpt lat="43.73511" lon="6.20309">
        <ele>648.2</ele>
        <time>2023-01-30T12:15:41.011Z</time>
      </trkpt>
      <trkpt lat="43.73508" lon="6.20314">
        <ele>647.7</ele>
        <time>2023-01-30T12:15:47.447Z</time>
      </trkpt>
      <trkpt lat="43.73504" lon="6.20322">
        <ele>647</ele>
        <time>2023-01-30T12:15:57.075Z</time>
      </trkpt>
      <trkpt lat="43.735" lon="6.20329">
        <ele>646.2</ele>
        <time>2023-01-30T12:16:05.909Z</time>
      </trkpt>
      <trkpt lat="43.73496" lon="6.20338">
        <ele>645.4</ele>
        <time>2023-01-30T12:16:16.368Z</time>
      </trkpt>
      <trkpt lat="43.73492" lon="6.20346">
        <ele>644.7</ele>
        <time>2023-01-30T12:16:25.999Z</time>
      </trkpt>
      <trkpt lat="43.73489" lon="6.20353">
        <ele>644.1</ele>
        <time>2023-01-30T12:16:34.053Z</time>
      </trkpt>
      <trkpt lat="43.73486" lon="6.20359">
        <ele>643.5</ele>
        <time>2023-01-30T12:16:41.275Z</time>
      </trkpt>
      <trkpt lat="43.73484" lon="6.20364">
        <ele>643.2</ele>
        <time>2023-01-30T12:16:46.934Z</time>
      </trkpt>
      <trkpt lat="43.73481" lon="6.20367">
        <ele>642.8</ele>
        <time>2023-01-30T12:16:52.007Z</time>
      </trkpt>
      <trkpt lat="43.73478" lon="6.20369">
        <ele>642.4</ele>
        <time>2023-01-30T12:16:56.571Z</time>
      </trkpt>
      <trkpt lat="43.73477" lon="6.20369">
        <ele>642.3</ele>
        <time>2023-01-30T12:16:57.941Z</time>
      </trkpt>
      <trkpt lat="43.73473" lon="6.20369">
        <ele>641.7</ele>
        <time>2023-01-30T12:17:03.423Z</time>
      </trkpt>
      <trkpt lat="43.73468" lon="6.20368">
        <ele>641.3</ele>
        <time>2023-01-30T12:17:10.347Z</time>
      </trkpt>
      <trkpt lat="43.73462" lon="6.20366">
        <ele>640.7</ele>
        <time>2023-01-30T12:17:18.792Z</time>
      </trkpt>
      <trkpt lat="43.73456" lon="6.20363">
        <ele>640</ele>
        <time>2023-01-30T12:17:27.522Z</time>
      </trkpt>
      <trkpt lat="43.73452" lon="6.20361">
        <ele>639.5</ele>
        <time>2023-01-30T12:17:33.330Z</time>
      </trkpt>
      <trkpt lat="43.73447" lon="6.2036">
        <ele>639.1</ele>
        <time>2023-01-30T12:17:40.229Z</time>
      </trkpt>
      <trkpt lat="43.73443" lon="6.20358">
        <ele>638.8</ele>
        <time>2023-01-30T12:17:46.038Z</time>
      </trkpt>
      <trkpt lat="43.73438" lon="6.20356">
        <ele>638.5</ele>
        <time>2023-01-30T12:17:53.147Z</time>
      </trkpt>
      <trkpt lat="43.7343" lon="6.20357">
        <ele>638.2</ele>
        <time>2023-01-30T12:18:04.392Z</time>
      </trkpt>
      <trkpt lat="43.73427" lon="6.20357">
        <ele>638</ele>
        <time>2023-01-30T12:18:08.503Z</time>
      </trkpt>
      <trkpt lat="43.73421" lon="6.2036">
        <ele>638</ele>
        <time>2023-01-30T12:18:18.495Z</time>
      </trkpt>
      <trkpt lat="43.73415" lon="6.20363">
        <ele>638.2</ele>
        <time>2023-01-30T12:18:29.521Z</time>
      </trkpt>
      <trkpt lat="43.73408" lon="6.20365">
        <ele>638.6</ele>
        <time>2023-01-30T12:18:42.903Z</time>
      </trkpt>
      <trkpt lat="43.73402" lon="6.20367">
        <ele>638.9</ele>
        <time>2023-01-30T12:18:54.184Z</time>
      </trkpt>
      <trkpt lat="43.73396" lon="6.20368">
        <ele>639.2</ele>
        <time>2023-01-30T12:19:05.232Z</time>
      </trkpt>
      <trkpt lat="43.73388" lon="6.20369">
        <ele>639.7</ele>
        <time>2023-01-30T12:19:21.008Z</time>
      </trkpt>
      <trkpt lat="43.73379" lon="6.2037">
        <ele>640.4</ele>
        <time>2023-01-30T12:19:38.742Z</time>
      </trkpt>
      <trkpt lat="43.73372" lon="6.20372">
        <ele>641</ele>
        <time>2023-01-30T12:19:53.463Z</time>
      </trkpt>
      <trkpt lat="43.73365" lon="6.20373">
        <ele>641.6</ele>
        <time>2023-01-30T12:20:07.957Z</time>
      </trkpt>
      <trkpt lat="43.73361" lon="6.20375">
        <ele>642</ele>
        <time>2023-01-30T12:20:16.416Z</time>
      </trkpt>
      <trkpt lat="43.73356" lon="6.20376">
        <ele>642.3</ele>
        <time>2023-01-30T12:20:26.465Z</time>
      </trkpt>
      <trkpt lat="43.7335" lon="6.20379">
        <ele>642.7</ele>
        <time>2023-01-30T12:20:38.387Z</time>
      </trkpt>
      <trkpt lat="43.73344" lon="6.20381">
        <ele>643</ele>
        <time>2023-01-30T12:20:49.921Z</time>
      </trkpt>
      <trkpt lat="43.73338" lon="6.20384">
        <ele>643.5</ele>
        <time>2023-01-30T12:21:02.459Z</time>
      </trkpt>
      <trkpt lat="43.73332" lon="6.20387">
        <ele>643.9</ele>
        <time>2023-01-30T12:21:14.998Z</time>
      </trkpt>
      <trkpt lat="43.73328" lon="6.2039">
        <ele>644.2</ele>
        <time>2023-01-30T12:21:23.918Z</time>
      </trkpt>
      <trkpt lat="43.73324" lon="6.20392">
        <ele>644.6</ele>
        <time>2023-01-30T12:21:32.257Z</time>
      </trkpt>
      <trkpt lat="43.73319" lon="6.20395">
        <ele>644.9</ele>
        <time>2023-01-30T12:21:42.943Z</time>
      </trkpt>
      <trkpt lat="43.73315" lon="6.20397">
        <ele>645.2</ele>
        <time>2023-01-30T12:21:51.283Z</time>
      </trkpt>
      <trkpt lat="43.73309" lon="6.20401">
        <ele>645.7</ele>
        <time>2023-01-30T12:22:04.075Z</time>
      </trkpt>
      <trkpt lat="43.73302" lon="6.20404">
        <ele>646.1</ele>
        <time>2023-01-30T12:22:18.152Z</time>
      </trkpt>
      <trkpt lat="43.73296" lon="6.20409">
        <ele>646.5</ele>
        <time>2023-01-30T12:22:30.896Z</time>
      </trkpt>
      <trkpt lat="43.73289" lon="6.20413">
        <ele>646.8</ele>
        <time>2023-01-30T12:22:44.678Z</time>
      </trkpt>
      <trkpt lat="43.73284" lon="6.20417">
        <ele>647</ele>
        <time>2023-01-30T12:22:54.498Z</time>
      </trkpt>
      <trkpt lat="43.73279" lon="6.2042">
        <ele>647.1</ele>
        <time>2023-01-30T12:23:03.765Z</time>
      </trkpt>
      <trkpt lat="43.73273" lon="6.20427">
        <ele>647</ele>
        <time>2023-01-30T12:23:15.587Z</time>
      </trkpt>
      <trkpt lat="43.73269" lon="6.20431">
        <ele>646.9</ele>
        <time>2023-01-30T12:23:22.638Z</time>
      </trkpt>
      <trkpt lat="43.73263" lon="6.20436">
        <ele>646.6</ele>
      </trkpt>
      <trkpt lat="43.73264" lon="6.20437">
        <ele>646.7</ele>
      </trkpt>
      <trkpt lat="43.73259" lon="6.20442">
        <ele>646.6</ele>
      </trkpt>
      <trkpt lat="43.73254" lon="6.20449">
        <ele>646.5</ele>
      </trkpt>
      <trkpt lat="43.7325" lon="6.20457">
        <ele>646.5</ele>
      </trkpt>
      <trkpt lat="43.73244" lon="6.20469">
        <ele>645.6</ele>
      </trkpt>
      <trkpt lat="43.73235" lon="6.20487">
        <ele>643.5</ele>
      </trkpt>
      <trkpt lat="43.73226" lon="6.20505">
        <ele>641</ele>
      </trkpt>
      <trkpt lat="43.73218" lon="6.2052">
        <ele>639</ele>
      </trkpt>
      <trkpt lat="43.73208" lon="6.2054">
        <ele>636.9</ele>
      </trkpt>
      <trkpt lat="43.73204" lon="6.20547">
        <ele>636.5</ele>
      </trkpt>
      <trkpt lat="43.73201" lon="6.20551">
        <ele>636.4</ele>
      </trkpt>
      <trkpt lat="43.73199" lon="6.20554">
        <ele>636.4</ele>
      </trkpt>
      <trkpt lat="43.73197" lon="6.20555">
        <ele>636.2</ele>
      </trkpt>
      <trkpt lat="43.73195" lon="6.20556">
        <ele>636.1</ele>
      </trkpt>
      <trkpt lat="43.73191" lon="6.20557">
        <ele>636.7</ele>
      </trkpt>
      <trkpt lat="43.73183" lon="6.20555">
        <ele>637.6</ele>
      </trkpt>
      <trkpt lat="43.73165" lon="6.20549">
        <ele>639</ele>
      </trkpt>
      <trkpt lat="43.73147" lon="6.20545">
        <ele>640.1</ele>
      </trkpt>
      <trkpt lat="43.73136" lon="6.20543">
        <ele>640.6</ele>
      </trkpt>
      <trkpt lat="43.73129" lon="6.20543">
        <ele>640.6</ele>
      </trkpt>
      <trkpt lat="43.7312" lon="6.20545">
        <ele>640.9</ele>
      </trkpt>
      <trkpt lat="43.73109" lon="6.20549">
        <ele>641.1</ele>
      </trkpt>
      <trkpt lat="43.73097" lon="6.20556">
        <ele>641</ele>
      </trkpt>
      <trkpt lat="43.73084" lon="6.20564">
        <ele>641</ele>
      </trkpt>
      <trkpt lat="43.73074" lon="6.20574">
        <ele>640.5</ele>
      </trkpt>
      <trkpt lat="43.73061" lon="6.20587">
        <ele>640.2</ele>
      </trkpt>
      <trkpt lat="43.73049" lon="6.20602">
        <ele>640.1</ele>
      </trkpt>
      <trkpt lat="43.73041" lon="6.20612">
        <ele>639.9</ele>
      </trkpt>
      <trkpt lat="43.73036" lon="6.20619">
        <ele>639.5</ele>
      </trkpt>
      <trkpt lat="43.73033" lon="6.20626">
        <ele>639.3</ele>
      </trkpt>
      <trkpt lat="43.73027" lon="6.2064">
        <ele>638.9</ele>
      </trkpt>
      <trkpt lat="43.7302" lon="6.20656">
        <ele>637.4</ele>
      </trkpt>
      <trkpt lat="43.73015" lon="6.20672">
        <ele>636.2</ele>
      </trkpt>
      <trkpt lat="43.73013" lon="6.20681">
        <ele>635.8</ele>
      </trkpt>
      <trkpt lat="43.73008" lon="6.20696">
        <ele>634.7</ele>
      </trkpt>
      <trkpt lat="43.73003" lon="6.2071">
        <ele>633.6</ele>
      </trkpt>
      <trkpt lat="43.73" lon="6.20714">
        <ele>633</ele>
      </trkpt>
      <trkpt lat="43.72999" lon="6.20714">
        <ele>633.1</ele>
      </trkpt>
      <trkpt lat="43.72997" lon="6.20715">
        <ele>633.2</ele>
      </trkpt>
      <trkpt lat="43.72995" lon="6.20716">
        <ele>633.3</ele>
      </trkpt>
      <trkpt lat="43.7299" lon="6.20716">
        <ele>633.6</ele>
      </trkpt>
      <trkpt lat="43.72976" lon="6.20711">
        <ele>634</ele>
      </trkpt>
      <trkpt lat="43.72966" lon="6.2071">
        <ele>635.1</ele>
      </trkpt>
      <trkpt lat="43.72951" lon="6.20707">
        <ele>637.3</ele>
      </trkpt>
      <trkpt lat="43.72945" lon="6.2071">
        <ele>638.6</ele>
      </trkpt>
      <trkpt lat="43.72933" lon="6.20718">
        <ele>640.4</ele>
      </trkpt>
      <trkpt lat="43.72923" lon="6.20726">
        <ele>641.8</ele>
      </trkpt>
      <trkpt lat="43.72915" lon="6.20728">
        <ele>642.4</ele>
      </trkpt>
      <trkpt lat="43.72907" lon="6.20727">
        <ele>642</ele>
      </trkpt>
      <trkpt lat="43.72893" lon="6.20725">
        <ele>641.3</ele>
      </trkpt>
      <trkpt lat="43.72886" lon="6.20725">
        <ele>641</ele>
      </trkpt>
      <trkpt lat="43.72879" lon="6.20727">
        <ele>640.7</ele>
      </trkpt>
      <trkpt lat="43.72871" lon="6.20732">
        <ele>640.6</ele>
      </trkpt>
      <trkpt lat="43.72855" lon="6.20747">
        <ele>641.2</ele>
      </trkpt>
      <trkpt lat="43.72842" lon="6.20759">
        <ele>641.3</ele>
      </trkpt>
      <trkpt lat="43.72827" lon="6.2077">
        <ele>640.9</ele>
      </trkpt>
      <trkpt lat="43.72812" lon="6.20781">
        <ele>640.6</ele>
      </trkpt>
      <trkpt lat="43.72803" lon="6.20789">
        <ele>640</ele>
      </trkpt>
      <trkpt lat="43.72795" lon="6.20798">
        <ele>639.4</ele>
      </trkpt>
      <trkpt lat="43.72787" lon="6.20811">
        <ele>639.4</ele>
      </trkpt>
      <trkpt lat="43.72779" lon="6.20824">
        <ele>639.5</ele>
      </trkpt>
      <trkpt lat="43.72771" lon="6.20832">
        <ele>639.4</ele>
      </trkpt>
      <trkpt lat="43.72758" lon="6.20844">
        <ele>639.1</ele>
      </trkpt>
      <trkpt lat="43.72757" lon="6.20845">
        <ele>639</ele>
      </trkpt>
      <trkpt lat="43.7275" lon="6.20851">
        <ele>638.6</ele>
      </trkpt>
      <trkpt lat="43.72743" lon="6.20855">
        <ele>639.1</ele>
      </trkpt>
      <trkpt lat="43.72742" lon="6.20852">
        <ele>639.1</ele>
      </trkpt>
      <trkpt lat="43.72741" lon="6.20852">
        <ele>639.2</ele>
      </trkpt>
      <trkpt lat="43.72758" lon="6.20821">
        <ele>638.3</ele>
      </trkpt>
      <trkpt lat="43.72769" lon="6.20797">
        <ele>637.5</ele>
      </trkpt>
      <trkpt lat="43.72777" lon="6.20772">
        <ele>634.9</ele>
      </trkpt>
      <trkpt lat="43.72785" lon="6.20744">
        <ele>634.7</ele>
      </trkpt>
      <trkpt lat="43.728" lon="6.20715">
        <ele>633.1</ele>
      </trkpt>
      <trkpt lat="43.7281" lon="6.20699">
        <ele>631.7</ele>
      </trkpt>
      <trkpt lat="43.72823" lon="6.20678">
        <ele>631.1</ele>
      </trkpt>
      <trkpt lat="43.7284" lon="6.20657">
        <ele>629</ele>
      </trkpt>
      <trkpt lat="43.72856" lon="6.20644">
        <ele>628.1</ele>
      </trkpt>
      <trkpt lat="43.72874" lon="6.20626">
        <ele>627.6</ele>
      </trkpt>
      <trkpt lat="43.72895" lon="6.20598">
        <ele>626</ele>
      </trkpt>
      <trkpt lat="43.72909" lon="6.20584">
        <ele>624.9</ele>
      </trkpt>
      <trkpt lat="43.72925" lon="6.20561">
        <ele>624.1</ele>
      </trkpt>
      <trkpt lat="43.72946" lon="6.20548">
        <ele>622.8</ele>
      </trkpt>
      <trkpt lat="43.7296" lon="6.20535">
        <ele>622.4</ele>
      </trkpt>
      <trkpt lat="43.72979" lon="6.20521">
        <ele>621.2</ele>
      </trkpt>
      <trkpt lat="43.72992" lon="6.20511">
        <ele>621.1</ele>
      </trkpt>
      <trkpt lat="43.73012" lon="6.20499">
        <ele>619.5</ele>
      </trkpt>
      <trkpt lat="43.73023" lon="6.20486">
        <ele>618.9</ele>
      </trkpt>
      <trkpt lat="43.73031" lon="6.20473">
        <ele>617.7</ele>
      </trkpt>
      <trkpt lat="43.73035" lon="6.20457">
        <ele>618.3</ele>
      </trkpt>
      <trkpt lat="43.73041" lon="6.20441">
        <ele>618</ele>
      </trkpt>
      <trkpt lat="43.73047" lon="6.20434">
        <ele>617.3</ele>
      </trkpt>
      <trkpt lat="43.73052" lon="6.20426">
        <ele>616</ele>
      </trkpt>
      <trkpt lat="43.73062" lon="6.20411">
        <ele>615.1</ele>
      </trkpt>
      <trkpt lat="43.73071" lon="6.20391">
        <ele>614.1</ele>
        <time>2023-01-30T12:30:45.672Z</time>
      </trkpt>
      <trkpt lat="43.73071" lon="6.20386">
        <ele>613.8</ele>
      </trkpt>
      <trkpt lat="43.7307" lon="6.20385">
        <ele>613.7</ele>
        <time>2023-01-30T12:30:51.770Z</time>
      </trkpt>
      <trkpt lat="43.7307" lon="6.20378">
        <ele>613.4</ele>
        <time>2023-01-30T12:30:58.794Z</time>
      </trkpt>
      <trkpt lat="43.7307" lon="6.20372">
        <ele>613</ele>
        <time>2023-01-30T12:31:04.815Z</time>
      </trkpt>
      <trkpt lat="43.7307" lon="6.20365">
        <ele>612.6</ele>
        <time>2023-01-30T12:31:11.839Z</time>
      </trkpt>
      <trkpt lat="43.73071" lon="6.20359">
        <ele>612.3</ele>
        <time>2023-01-30T12:31:18.018Z</time>
      </trkpt>
      <trkpt lat="43.73071" lon="6.20352">
        <ele>612.3</ele>
        <time>2023-01-30T12:31:25.043Z</time>
      </trkpt>
      <trkpt lat="43.73071" lon="6.20345">
        <ele>612.3</ele>
        <time>2023-01-30T12:31:32.068Z</time>
      </trkpt>
      <trkpt lat="43.73071" lon="6.20339">
        <ele>612.2</ele>
        <time>2023-01-30T12:31:38.089Z</time>
      </trkpt>
      <trkpt lat="43.73071" lon="6.20332">
        <ele>612.2</ele>
        <time>2023-01-30T12:31:45.115Z</time>
      </trkpt>
      <trkpt lat="43.73071" lon="6.20325">
        <ele>612</ele>
        <time>2023-01-30T12:31:52.023Z</time>
      </trkpt>
      <trkpt lat="43.73072" lon="6.20318">
        <ele>611.8</ele>
        <time>2023-01-30T12:31:59.064Z</time>
      </trkpt>
      <trkpt lat="43.73072" lon="6.2031">
        <ele>611.6</ele>
        <time>2023-01-30T12:32:06.959Z</time>
      </trkpt>
      <trkpt lat="43.73072" lon="6.20303">
        <ele>611.2</ele>
        <time>2023-01-30T12:32:13.868Z</time>
      </trkpt>
      <trkpt lat="43.73074" lon="6.20297">
        <ele>609.8</ele>
        <time>2023-01-30T12:32:20.389Z</time>
      </trkpt>
      <trkpt lat="43.73077" lon="6.20291">
        <ele>608.4</ele>
        <time>2023-01-30T12:32:27.589Z</time>
      </trkpt>
      <trkpt lat="43.73079" lon="6.20284">
        <ele>606.7</ele>
        <time>2023-01-30T12:32:35.017Z</time>
      </trkpt>
      <trkpt lat="43.73082" lon="6.20278">
        <ele>604.8</ele>
        <time>2023-01-30T12:32:42.217Z</time>
      </trkpt>
      <trkpt lat="43.73084" lon="6.20272">
        <ele>604.4</ele>
        <time>2023-01-30T12:32:48.738Z</time>
      </trkpt>
      <trkpt lat="43.73086" lon="6.20266">
        <ele>605</ele>
        <time>2023-01-30T12:32:55.259Z</time>
      </trkpt>
      <trkpt lat="43.73089" lon="6.20259">
        <ele>605.2</ele>
        <time>2023-01-30T12:33:03.292Z</time>
      </trkpt>
      <trkpt lat="43.73091" lon="6.20253">
        <ele>605.2</ele>
        <time>2023-01-30T12:33:09.814Z</time>
      </trkpt>
      <trkpt lat="43.73093" lon="6.20247">
        <ele>604.9</ele>
        <time>2023-01-30T12:33:16.355Z</time>
      </trkpt>
      <trkpt lat="43.73095" lon="6.2024">
        <ele>604.7</ele>
        <time>2023-01-30T12:33:23.806Z</time>
      </trkpt>
      <trkpt lat="43.73097" lon="6.20234">
        <ele>604.1</ele>
        <time>2023-01-30T12:33:30.347Z</time>
      </trkpt>
      <trkpt lat="43.73099" lon="6.20227">
        <ele>603.4</ele>
        <time>2023-01-30T12:33:37.798Z</time>
      </trkpt>
      <trkpt lat="43.73101" lon="6.20221">
        <ele>602.5</ele>
        <time>2023-01-30T12:33:44.339Z</time>
      </trkpt>
      <trkpt lat="43.73103" lon="6.20214">
        <ele>601.8</ele>
        <time>2023-01-30T12:33:51.791Z</time>
      </trkpt>
      <trkpt lat="43.73105" lon="6.20208">
        <ele>600.9</ele>
        <time>2023-01-30T12:33:58.332Z</time>
      </trkpt>
      <trkpt lat="43.73107" lon="6.20201">
        <ele>600</ele>
        <time>2023-01-30T12:34:05.785Z</time>
      </trkpt>
      <trkpt lat="43.73112" lon="6.20193">
        <ele>598.2</ele>
        <time>2023-01-30T12:34:16.226Z</time>
      </trkpt>
      <trkpt lat="43.73116" lon="6.20184">
        <ele>599.2</ele>
        <time>2023-01-30T12:34:26.656Z</time>
      </trkpt>
      <trkpt lat="43.73119" lon="6.20173">
        <ele>599.5</ele>
        <time>2023-01-30T12:34:38.286Z</time>
      </trkpt>
      <trkpt lat="43.73122" lon="6.20163">
        <ele>599.3</ele>
        <time>2023-01-30T12:34:48.997Z</time>
      </trkpt>
      <trkpt lat="43.73125" lon="6.20152">
        <ele>598.9</ele>
        <time>2023-01-30T12:35:00.627Z</time>
      </trkpt>
      <trkpt lat="43.73129" lon="6.20142">
        <ele>598</ele>
        <time>2023-01-30T12:35:11.934Z</time>
      </trkpt>
      <trkpt lat="43.73132" lon="6.20131">
        <ele>596.8</ele>
        <time>2023-01-30T12:35:23.565Z</time>
      </trkpt>
      <trkpt lat="43.73135" lon="6.2012">
        <ele>595.5</ele>
        <time>2023-01-30T12:35:35.196Z</time>
      </trkpt>
      <trkpt lat="43.73138" lon="6.2011">
        <ele>594.1</ele>
        <time>2023-01-30T12:35:45.907Z</time>
      </trkpt>
      <trkpt lat="43.73141" lon="6.20099">
        <ele>594.4</ele>
        <time>2023-01-30T12:35:57.539Z</time>
      </trkpt>
      <trkpt lat="43.73136" lon="6.20096">
        <ele>593.7</ele>
        <time>2023-01-30T12:36:04.995Z</time>
      </trkpt>
      <trkpt lat="43.73131" lon="6.20092">
        <ele>593.6</ele>
        <time>2023-01-30T12:36:12.897Z</time>
      </trkpt>
      <trkpt lat="43.73126" lon="6.20089">
        <ele>593.3</ele>
        <time>2023-01-30T12:36:20.353Z</time>
      </trkpt>
      <trkpt lat="43.73121" lon="6.20085">
        <ele>592.7</ele>
        <time>2023-01-30T12:36:28.256Z</time>
      </trkpt>
      <trkpt lat="43.73116" lon="6.20077">
        <ele>592.4</ele>
        <time>2023-01-30T12:36:39.013Z</time>
      </trkpt>
      <trkpt lat="43.73111" lon="6.20069">
        <ele>592</ele>
        <time>2023-01-30T12:36:49.771Z</time>
      </trkpt>
      <trkpt lat="43.73105" lon="6.20061">
        <ele>592</ele>
        <time>2023-01-30T12:37:01.498Z</time>
      </trkpt>
      <trkpt lat="43.731" lon="6.20053">
        <ele>591.6</ele>
        <time>2023-01-30T12:37:12.257Z</time>
      </trkpt>
      <trkpt lat="43.73096" lon="6.20049">
        <ele>591.3</ele>
        <time>2023-01-30T12:37:18.985Z</time>
      </trkpt>
      <trkpt lat="43.73093" lon="6.20044">
        <ele>590.6</ele>
        <time>2023-01-30T12:37:25.388Z</time>
      </trkpt>
      <trkpt lat="43.73089" lon="6.2004">
        <ele>589.7</ele>
        <time>2023-01-30T12:37:32.117Z</time>
      </trkpt>
      <trkpt lat="43.73085" lon="6.20035">
        <ele>588.4</ele>
        <time>2023-01-30T12:37:39.467Z</time>
      </trkpt>
      <trkpt lat="43.73078" lon="6.20037">
        <ele>588.3</ele>
        <time>2023-01-30T12:37:51.032Z</time>
      </trkpt>
      <trkpt lat="43.73071" lon="6.20039">
        <ele>588.4</ele>
        <time>2023-01-30T12:38:02.597Z</time>
      </trkpt>
      <trkpt lat="43.73064" lon="6.20041">
        <ele>588.6</ele>
        <time>2023-01-30T12:38:14.162Z</time>
      </trkpt>
      <trkpt lat="43.73057" lon="6.20043">
        <ele>588.7</ele>
        <time>2023-01-30T12:38:25.728Z</time>
      </trkpt>
      <trkpt lat="43.73052" lon="6.20043">
        <ele>588.7</ele>
        <time>2023-01-30T12:38:33.909Z</time>
      </trkpt>
      <trkpt lat="43.73047" lon="6.20043">
        <ele>588.7</ele>
        <time>2023-01-30T12:38:42.090Z</time>
      </trkpt>
      <trkpt lat="43.73042" lon="6.20043">
        <ele>588.8</ele>
        <time>2023-01-30T12:38:50.271Z</time>
      </trkpt>
      <trkpt lat="43.73037" lon="6.20043">
        <ele>588.9</ele>
        <time>2023-01-30T12:38:58.452Z</time>
      </trkpt>
      <trkpt lat="43.73029" lon="6.20041">
        <ele>589</ele>
        <time>2023-01-30T12:39:12.084Z</time>
      </trkpt>
      <trkpt lat="43.73021" lon="6.20039">
        <ele>589.2</ele>
        <time>2023-01-30T12:39:25.717Z</time>
      </trkpt>
      <trkpt lat="43.73014" lon="6.20037">
        <ele>589.4</ele>
        <time>2023-01-30T12:39:38.079Z</time>
      </trkpt>
      <trkpt lat="43.73008" lon="6.20036">
        <ele>589.5</ele>
        <time>2023-01-30T12:39:47.946Z</time>
      </trkpt>
      <trkpt lat="43.73003" lon="6.20035">
        <ele>589.7</ele>
        <time>2023-01-30T12:39:56.196Z</time>
      </trkpt>
      <trkpt lat="43.72995" lon="6.2004">
        <ele>590.2</ele>
        <time>2023-01-30T12:40:12.048Z</time>
      </trkpt>
      <trkpt lat="43.72987" lon="6.20045">
        <ele>590.5</ele>
        <time>2023-01-30T12:40:27.901Z</time>
      </trkpt>
      <trkpt lat="43.72982" lon="6.20052">
        <ele>589.7</ele>
        <time>2023-01-30T12:40:37.944Z</time>
      </trkpt>
      <trkpt lat="43.72977" lon="6.20059">
        <ele>589.1</ele>
        <time>2023-01-30T12:40:47.987Z</time>
      </trkpt>
      <trkpt lat="43.72972" lon="6.20066">
        <ele>589</ele>
        <time>2023-01-30T12:40:58.030Z</time>
      </trkpt>
      <trkpt lat="43.72967" lon="6.20073">
        <ele>589.5</ele>
        <time>2023-01-30T12:41:08.074Z</time>
      </trkpt>
      <trkpt lat="43.72962" lon="6.20079">
        <ele>589.6</ele>
        <time>2023-01-30T12:41:18.275Z</time>
      </trkpt>
      <trkpt lat="43.72957" lon="6.20085">
        <ele>589.6</ele>
        <time>2023-01-30T12:41:28.476Z</time>
      </trkpt>
      <trkpt lat="43.72952" lon="6.20091">
        <ele>589.8</ele>
        <time>2023-01-30T12:41:38.677Z</time>
      </trkpt>
      <trkpt lat="43.72947" lon="6.20097">
        <ele>589.3</ele>
        <time>2023-01-30T12:41:48.880Z</time>
      </trkpt>
      <trkpt lat="43.72943" lon="6.20103">
        <ele>589</ele>
        <time>2023-01-30T12:42:00.422Z</time>
      </trkpt>
      <trkpt lat="43.72938" lon="6.20109">
        <ele>589.3</ele>
        <time>2023-01-30T12:42:13.371Z</time>
      </trkpt>
      <trkpt lat="43.72934" lon="6.20115">
        <ele>590.2</ele>
        <time>2023-01-30T12:42:24.914Z</time>
      </trkpt>
      <trkpt lat="43.7293" lon="6.20121">
        <ele>590.9</ele>
        <time>2023-01-30T12:42:36.458Z</time>
      </trkpt>
      <trkpt lat="43.72924" lon="6.2013">
        <ele>590.7</ele>
        <time>2023-01-30T12:42:49.278Z</time>
      </trkpt>
      <trkpt lat="43.72919" lon="6.20126">
        <ele>590.9</ele>
        <time>2023-01-30T12:42:58.736Z</time>
      </trkpt>
      <trkpt lat="43.72919" lon="6.20126">
        <ele>590.9</ele>
        <time>2023-01-30T12:42:58.736Z</time>
      </trkpt>
      <trkpt lat="43.72918" lon="6.20116">
        <ele>592.2</ele>
        <time>2023-01-30T12:43:19.702Z</time>
      </trkpt>
      <trkpt lat="43.72917" lon="6.20105">
        <ele>593.6</ele>
        <time>2023-01-30T12:43:42.728Z</time>
      </trkpt>
      <trkpt lat="43.72916" lon="6.20096">
        <ele>594.7</ele>
        <time>2023-01-30T12:44:00.989Z</time>
      </trkpt>
      <trkpt lat="43.72913" lon="6.20089">
        <ele>595.8</ele>
        <time>2023-01-30T12:44:18.597Z</time>
      </trkpt>
      <trkpt lat="43.72909" lon="6.20084">
        <ele>597.1</ele>
        <time>2023-01-30T12:44:37.071Z</time>
      </trkpt>
      <trkpt lat="43.72905" lon="6.20078">
        <ele>598.3</ele>
        <time>2023-01-30T12:44:57.289Z</time>
      </trkpt>
      <trkpt lat="43.72901" lon="6.20074">
        <ele>599.6</ele>
        <time>2023-01-30T12:45:15.090Z</time>
      </trkpt>
      <trkpt lat="43.72896" lon="6.20069">
        <ele>600.9</ele>
        <time>2023-01-30T12:45:37.343Z</time>
      </trkpt>
      <trkpt lat="43.7289" lon="6.20063">
        <ele>602.7</ele>
        <time>2023-01-30T12:46:05.039Z</time>
      </trkpt>
      <trkpt lat="43.72886" lon="6.20054">
        <ele>604.8</ele>
        <time>2023-01-30T12:46:37.607Z</time>
      </trkpt>
      <trkpt lat="43.72884" lon="6.20046">
        <ele>606.5</ele>
        <time>2023-01-30T12:47:04.012Z</time>
      </trkpt>
      <trkpt lat="43.72881" lon="6.20042">
        <ele>607.7</ele>
        <time>2023-01-30T12:47:22.770Z</time>
      </trkpt>
      <trkpt lat="43.72877" lon="6.20039">
        <ele>608.9</ele>
        <time>2023-01-30T12:47:40.473Z</time>
      </trkpt>
      <trkpt lat="43.72873" lon="6.20036">
        <ele>610</ele>
        <time>2023-01-30T12:47:58.177Z</time>
      </trkpt>
      <trkpt lat="43.72867" lon="6.20032">
        <ele>611.6</ele>
        <time>2023-01-30T12:48:21.314Z</time>
      </trkpt>
      <trkpt lat="43.7286" lon="6.20028">
        <ele>613.2</ele>
        <time>2023-01-30T12:48:47.626Z</time>
      </trkpt>
      <trkpt lat="43.72855" lon="6.20023">
        <ele>615.1</ele>
        <time>2023-01-30T12:49:14.486Z</time>
      </trkpt>
      <trkpt lat="43.72849" lon="6.20017">
        <ele>617</ele>
        <time>2023-01-30T12:49:46.720Z</time>
      </trkpt>
      <trkpt lat="43.72845" lon="6.20013">
        <ele>618.3</ele>
        <time>2023-01-30T12:50:05.537Z</time>
      </trkpt>
      <trkpt lat="43.72841" lon="6.20009">
        <ele>619.6</ele>
        <time>2023-01-30T12:50:24.354Z</time>
      </trkpt>
      <trkpt lat="43.72836" lon="6.20005">
        <ele>620.8</ele>
        <time>2023-01-30T12:50:46.376Z</time>
      </trkpt>
      <trkpt lat="43.72832" lon="6.20001">
        <ele>622.1</ele>
        <time>2023-01-30T12:51:05.194Z</time>
      </trkpt>
      <trkpt lat="43.72828" lon="6.19997">
        <ele>623.2</ele>
        <time>2023-01-30T12:51:20.773Z</time>
      </trkpt>
      <trkpt lat="43.72825" lon="6.19993">
        <ele>624.2</ele>
        <time>2023-01-30T12:51:33.924Z</time>
      </trkpt>
      <trkpt lat="43.72821" lon="6.19988">
        <ele>625.1</ele>
        <time>2023-01-30T12:51:50.940Z</time>
      </trkpt>
      <trkpt lat="43.72817" lon="6.19984">
        <ele>626</ele>
        <time>2023-01-30T12:52:06.521Z</time>
      </trkpt>
      <trkpt lat="43.72813" lon="6.19978">
        <ele>627</ele>
        <time>2023-01-30T12:52:20.712Z</time>
      </trkpt>
      <trkpt lat="43.72808" lon="6.19972">
        <ele>627.9</ele>
        <time>2023-01-30T12:52:36.633Z</time>
      </trkpt>
      <trkpt lat="43.72804" lon="6.19965">
        <ele>628.6</ele>
        <time>2023-01-30T12:52:52.146Z</time>
      </trkpt>
      <trkpt lat="43.72799" lon="6.19959">
        <ele>629.3</ele>
        <time>2023-01-30T12:53:08.068Z</time>
      </trkpt>
      <trkpt lat="43.72795" lon="6.19951">
        <ele>630</ele>
        <time>2023-01-30T12:53:23.329Z</time>
      </trkpt>
      <trkpt lat="43.72791" lon="6.19941">
        <ele>630.6</ele>
        <time>2023-01-30T12:53:39.677Z</time>
      </trkpt>
      <trkpt lat="43.72786" lon="6.19934">
        <ele>631.1</ele>
        <time>2023-01-30T12:53:53.645Z</time>
      </trkpt>
      <trkpt lat="43.72778" lon="6.19929">
        <ele>631.5</ele>
        <time>2023-01-30T12:54:09.529Z</time>
      </trkpt>
      <trkpt lat="43.72772" lon="6.19926">
        <ele>631.7</ele>
        <time>2023-01-30T12:54:20.172Z</time>
      </trkpt>
      <trkpt lat="43.72767" lon="6.19923">
        <ele>631.9</ele>
        <time>2023-01-30T12:54:29.263Z</time>
      </trkpt>
      <trkpt lat="43.72761" lon="6.1992">
        <ele>632</ele>
        <time>2023-01-30T12:54:39.906Z</time>
      </trkpt>
      <trkpt lat="43.72755" lon="6.19917">
        <ele>632</ele>
        <time>2023-01-30T12:54:50.550Z</time>
      </trkpt>
      <trkpt lat="43.72749" lon="6.19912">
        <ele>632.2</ele>
        <time>2023-01-30T12:55:02.824Z</time>
      </trkpt>
      <trkpt lat="43.72743" lon="6.19907">
        <ele>632.5</ele>
        <time>2023-01-30T12:55:15.100Z</time>
      </trkpt>
      <trkpt lat="43.7274" lon="6.19903">
        <ele>632.7</ele>
        <time>2023-01-30T12:55:22.165Z</time>
      </trkpt>
      <trkpt lat="43.72737" lon="6.19898">
        <ele>632.8</ele>
        <time>2023-01-30T12:55:30.129Z</time>
      </trkpt>
      <trkpt lat="43.72733" lon="6.19894">
        <ele>632.9</ele>
        <time>2023-01-30T12:55:38.499Z</time>
      </trkpt>
      <trkpt lat="43.7273" lon="6.19889">
        <ele>633</ele>
        <time>2023-01-30T12:55:46.464Z</time>
      </trkpt>
      <trkpt lat="43.72725" lon="6.19884">
        <ele>633.2</ele>
        <time>2023-01-30T12:55:57.162Z</time>
      </trkpt>
      <trkpt lat="43.7272" lon="6.19879">
        <ele>633.4</ele>
        <time>2023-01-30T12:56:07.860Z</time>
      </trkpt>
      <trkpt lat="43.72715" lon="6.19874">
        <ele>633.7</ele>
        <time>2023-01-30T12:56:18.558Z</time>
      </trkpt>
      <trkpt lat="43.7271" lon="6.19869">
        <ele>633.8</ele>
        <time>2023-01-30T12:56:29.257Z</time>
      </trkpt>
      <trkpt lat="43.72705" lon="6.19863">
        <ele>634</ele>
        <time>2023-01-30T12:56:39.843Z</time>
      </trkpt>
      <trkpt lat="43.72699" lon="6.19857">
        <ele>634</ele>
        <time>2023-01-30T12:56:51.685Z</time>
      </trkpt>
      <trkpt lat="43.72694" lon="6.19851">
        <ele>634</ele>
        <time>2023-01-30T12:57:02.272Z</time>
      </trkpt>
      <trkpt lat="43.72688" lon="6.19845">
        <ele>634</ele>
        <time>2023-01-30T12:57:14.115Z</time>
      </trkpt>
      <trkpt lat="43.72683" lon="6.19841">
        <ele>634</ele>
        <time>2023-01-30T12:57:23.160Z</time>
      </trkpt>
      <trkpt lat="43.72677" lon="6.19836">
        <ele>634</ele>
        <time>2023-01-30T12:57:34.130Z</time>
      </trkpt>
      <trkpt lat="43.72672" lon="6.19832">
        <ele>634</ele>
        <time>2023-01-30T12:57:43.176Z</time>
      </trkpt>
      <trkpt lat="43.72667" lon="6.19824">
        <ele>634</ele>
        <time>2023-01-30T12:57:55.143Z</time>
      </trkpt>
      <trkpt lat="43.72662" lon="6.19817">
        <ele>634</ele>
        <time>2023-01-30T12:58:06.279Z</time>
      </trkpt>
      <trkpt lat="43.72657" lon="6.19809">
        <ele>634</ele>
        <time>2023-01-30T12:58:18.246Z</time>
      </trkpt>
      <trkpt lat="43.72652" lon="6.19801">
        <ele>634</ele>
        <time>2023-01-30T12:58:30.214Z</time>
      </trkpt>
      <trkpt lat="43.72648" lon="6.19794">
        <ele>634</ele>
        <time>2023-01-30T12:58:40.294Z</time>
      </trkpt>
      <trkpt lat="43.72645" lon="6.19787">
        <ele>634</ele>
        <time>2023-01-30T12:58:49.487Z</time>
      </trkpt>
      <trkpt lat="43.72641" lon="6.1978">
        <ele>634</ele>
        <time>2023-01-30T12:58:59.567Z</time>
      </trkpt>
      <trkpt lat="43.72638" lon="6.19773">
        <ele>634</ele>
        <time>2023-01-30T12:59:08.760Z</time>
      </trkpt>
      <trkpt lat="43.72634" lon="6.19766">
        <ele>634</ele>
        <time>2023-01-30T12:59:18.840Z</time>
      </trkpt>
      <trkpt lat="43.7263" lon="6.19759">
        <ele>634</ele>
        <time>2023-01-30T12:59:28.920Z</time>
      </trkpt>
      <trkpt lat="43.72627" lon="6.19752">
        <ele>634</ele>
        <time>2023-01-30T12:59:38.113Z</time>
      </trkpt>
      <trkpt lat="43.72623" lon="6.19745">
        <ele>634</ele>
        <time>2023-01-30T12:59:48.195Z</time>
      </trkpt>
      <trkpt lat="43.7262" lon="6.1974">
        <ele>634</ele>
        <time>2023-01-30T12:59:56.038Z</time>
      </trkpt>
      <trkpt lat="43.72617" lon="6.19735">
        <ele>634</ele>
        <time>2023-01-30T13:00:03.881Z</time>
      </trkpt>
      <trkpt lat="43.72614" lon="6.1973">
        <ele>634</ele>
        <time>2023-01-30T13:00:11.724Z</time>
      </trkpt>
      <trkpt lat="43.72611" lon="6.19725">
        <ele>634</ele>
        <time>2023-01-30T13:00:19.567Z</time>
      </trkpt>
      <trkpt lat="43.72607" lon="6.19719">
        <ele>634.2</ele>
        <time>2023-01-30T13:00:29.419Z</time>
      </trkpt>
      <trkpt lat="43.72604" lon="6.19714">
        <ele>634.5</ele>
        <time>2023-01-30T13:00:37.262Z</time>
      </trkpt>
      <trkpt lat="43.72601" lon="6.19709">
        <ele>634.7</ele>
        <time>2023-01-30T13:00:45.106Z</time>
      </trkpt>
      <trkpt lat="43.72598" lon="6.19704">
        <ele>634.8</ele>
        <time>2023-01-30T13:00:52.951Z</time>
      </trkpt>
      <trkpt lat="43.72594" lon="6.19696">
        <ele>635</ele>
        <time>2023-01-30T13:01:04.184Z</time>
      </trkpt>
      <trkpt lat="43.72589" lon="6.19687">
        <ele>635</ele>
        <time>2023-01-30T13:01:17.293Z</time>
      </trkpt>
      <trkpt lat="43.72585" lon="6.19679">
        <ele>635</ele>
        <time>2023-01-30T13:01:28.526Z</time>
      </trkpt>
      <trkpt lat="43.7258" lon="6.1967">
        <ele>635</ele>
        <time>2023-01-30T13:01:41.636Z</time>
      </trkpt>
      <trkpt lat="43.72578" lon="6.19665">
        <ele>635</ele>
        <time>2023-01-30T13:01:48.061Z</time>
      </trkpt>
      <trkpt lat="43.72575" lon="6.1966">
        <ele>635</ele>
        <time>2023-01-30T13:01:55.367Z</time>
      </trkpt>
      <trkpt lat="43.72573" lon="6.19654">
        <ele>635</ele>
        <time>2023-01-30T13:02:02.795Z</time>
      </trkpt>
      <trkpt lat="43.7257" lon="6.19649">
        <ele>635</ele>
        <time>2023-01-30T13:02:10.101Z</time>
      </trkpt>
      <trkpt lat="43.72568" lon="6.19644">
        <ele>635</ele>
        <time>2023-01-30T13:02:16.526Z</time>
      </trkpt>
      <trkpt lat="43.72565" lon="6.19639">
        <ele>635</ele>
        <time>2023-01-30T13:02:23.832Z</time>
      </trkpt>
      <trkpt lat="43.72563" lon="6.19633">
        <ele>635</ele>
        <time>2023-01-30T13:02:31.261Z</time>
      </trkpt>
      <trkpt lat="43.7256" lon="6.19628">
        <ele>635</ele>
        <time>2023-01-30T13:02:38.569Z</time>
      </trkpt>
      <trkpt lat="43.72557" lon="6.19619">
        <ele>635</ele>
        <time>2023-01-30T13:02:49.210Z</time>
      </trkpt>
      <trkpt lat="43.72553" lon="6.1961">
        <ele>634.9</ele>
        <time>2023-01-30T13:03:00.554Z</time>
      </trkpt>
      <trkpt lat="43.7255" lon="6.19601">
        <ele>634.8</ele>
        <time>2023-01-30T13:03:11.196Z</time>
      </trkpt>
      <trkpt lat="43.72547" lon="6.19592">
        <ele>634.7</ele>
        <time>2023-01-30T13:03:21.838Z</time>
      </trkpt>
      <trkpt lat="43.72543" lon="6.19582">
        <ele>634.5</ele>
        <time>2023-01-30T13:03:34.110Z</time>
      </trkpt>
      <trkpt lat="43.7254" lon="6.19573">
        <ele>634.3</ele>
        <time>2023-01-30T13:03:44.752Z</time>
      </trkpt>
      <trkpt lat="43.72536" lon="6.19564">
        <ele>634.1</ele>
        <time>2023-01-30T13:03:56.097Z</time>
      </trkpt>
      <trkpt lat="43.72533" lon="6.19555">
        <ele>634</ele>
        <time>2023-01-30T13:04:06.740Z</time>
      </trkpt>
      <trkpt lat="43.7253" lon="6.19547">
        <ele>633.7</ele>
        <time>2023-01-30T13:04:16.351Z</time>
      </trkpt>
      <trkpt lat="43.72526" lon="6.19539">
        <ele>633.4</ele>
        <time>2023-01-30T13:04:26.725Z</time>
      </trkpt>
      <trkpt lat="43.72523" lon="6.19531">
        <ele>633.1</ele>
        <time>2023-01-30T13:04:36.336Z</time>
      </trkpt>
      <trkpt lat="43.72519" lon="6.19524">
        <ele>633</ele>
        <time>2023-01-30T13:04:45.852Z</time>
      </trkpt>
      <trkpt lat="43.72516" lon="6.19516">
        <ele>633</ele>
        <time>2023-01-30T13:04:55.463Z</time>
      </trkpt>
      <trkpt lat="43.72512" lon="6.19508">
        <ele>633</ele>
        <time>2023-01-30T13:05:05.837Z</time>
      </trkpt>
      <trkpt lat="43.72509" lon="6.195">
        <ele>633</ele>
        <time>2023-01-30T13:05:15.449Z</time>
      </trkpt>
      <trkpt lat="43.72505" lon="6.19492">
        <ele>633</ele>
        <time>2023-01-30T13:05:25.825Z</time>
      </trkpt>
      <trkpt lat="43.72503" lon="6.19483">
        <ele>633</ele>
        <time>2023-01-30T13:05:36.473Z</time>
      </trkpt>
      <trkpt lat="43.72501" lon="6.19474">
        <ele>633</ele>
        <time>2023-01-30T13:05:47.121Z</time>
      </trkpt>
      <trkpt lat="43.72498" lon="6.19464">
        <ele>633</ele>
        <time>2023-01-30T13:05:59.365Z</time>
      </trkpt>
      <trkpt lat="43.72496" lon="6.19455">
        <ele>633</ele>
        <time>2023-01-30T13:06:10.014Z</time>
      </trkpt>
      <trkpt lat="43.725" lon="6.19452">
        <ele>633</ele>
        <time>2023-01-30T13:06:17.141Z</time>
      </trkpt>
      <trkpt lat="43.72505" lon="6.19446">
        <ele>633</ele>
        <time>2023-01-30T13:06:27.507Z</time>
      </trkpt>
      <trkpt lat="43.7251" lon="6.1944">
        <ele>633</ele>
        <time>2023-01-30T13:06:37.873Z</time>
      </trkpt>
      <trkpt lat="43.72516" lon="6.19433">
        <ele>633</ele>
        <time>2023-01-30T13:06:49.933Z</time>
      </trkpt>
      <trkpt lat="43.72523" lon="6.19425">
        <ele>633</ele>
        <time>2023-01-30T13:07:03.885Z</time>
      </trkpt>
      <trkpt lat="43.72529" lon="6.19418">
        <ele>633</ele>
        <time>2023-01-30T13:07:15.946Z</time>
      </trkpt>
      <trkpt lat="43.72535" lon="6.1941">
        <ele>632.8</ele>
        <time>2023-01-30T13:07:28.752Z</time>
      </trkpt>
      <trkpt lat="43.72539" lon="6.19407">
        <ele>632.7</ele>
        <time>2023-01-30T13:07:35.637Z</time>
      </trkpt>
      <trkpt lat="43.72543" lon="6.19403">
        <ele>632.7</ele>
        <time>2023-01-30T13:07:43.106Z</time>
      </trkpt>
      <trkpt lat="43.72548" lon="6.194">
        <ele>632.7</ele>
        <time>2023-01-30T13:07:51.893Z</time>
      </trkpt>
      <trkpt lat="43.72553" lon="6.19397">
        <ele>632.7</ele>
        <time>2023-01-30T13:08:00.680Z</time>
      </trkpt>
      <trkpt lat="43.72557" lon="6.19394">
        <ele>632.8</ele>
        <time>2023-01-30T13:08:08.015Z</time>
      </trkpt>
      <trkpt lat="43.72562" lon="6.19391">
        <ele>632.9</ele>
        <time>2023-01-30T13:08:16.803Z</time>
      </trkpt>
      <trkpt lat="43.72567" lon="6.19386">
        <ele>633</ele>
        <time>2023-01-30T13:08:26.965Z</time>
      </trkpt>
      <trkpt lat="43.72571" lon="6.1938">
        <ele>632.8</ele>
        <time>2023-01-30T13:08:35.308Z</time>
      </trkpt>
      <trkpt lat="43.72573" lon="6.19374">
        <ele>632.7</ele>
        <time>2023-01-30T13:08:42.006Z</time>
      </trkpt>
      <trkpt lat="43.72575" lon="6.19368">
        <ele>632.5</ele>
        <time>2023-01-30T13:08:48.704Z</time>
      </trkpt>
      <trkpt lat="43.72577" lon="6.19362">
        <ele>632.3</ele>
        <time>2023-01-30T13:08:55.402Z</time>
      </trkpt>
      <trkpt lat="43.72579" lon="6.19356">
        <ele>632.1</ele>
        <time>2023-01-30T13:09:02.100Z</time>
      </trkpt>
      <trkpt lat="43.72583" lon="6.19346">
        <ele>632</ele>
        <time>2023-01-30T13:09:14.772Z</time>
      </trkpt>
      <trkpt lat="43.72586" lon="6.19336">
        <ele>632</ele>
        <time>2023-01-30T13:09:26.777Z</time>
      </trkpt>
      <trkpt lat="43.72592" lon="6.19328">
        <ele>632</ele>
        <time>2023-01-30T13:09:39.814Z</time>
      </trkpt>
      <trkpt lat="43.72597" lon="6.1932">
        <ele>632</ele>
        <time>2023-01-30T13:09:51.774Z</time>
      </trkpt>
      <trkpt lat="43.72602" lon="6.19311">
        <ele>632</ele>
        <time>2023-01-30T13:10:04.623Z</time>
      </trkpt>
      <trkpt lat="43.72605" lon="6.193">
        <ele>632</ele>
        <time>2023-01-30T13:10:17.932Z</time>
      </trkpt>
      <trkpt lat="43.72611" lon="6.19293">
        <ele>632</ele>
        <time>2023-01-30T13:10:30.224Z</time>
      </trkpt>
      <trkpt lat="43.72617" lon="6.19287">
        <ele>632</ele>
        <time>2023-01-30T13:10:41.819Z</time>
      </trkpt>
      <trkpt lat="43.72622" lon="6.19283">
        <ele>632</ele>
        <time>2023-01-30T13:10:50.865Z</time>
      </trkpt>
      <trkpt lat="43.72626" lon="6.19283">
        <ele>632</ele>
        <time>2023-01-30T13:10:57.130Z</time>
      </trkpt>
      <trkpt lat="43.72632" lon="6.19281">
        <ele>632</ele>
        <time>2023-01-30T13:11:06.797Z</time>
      </trkpt>
      <trkpt lat="43.72635" lon="6.19278">
        <ele>632</ele>
        <time>2023-01-30T13:11:12.594Z</time>
      </trkpt>
      <trkpt lat="43.7264" lon="6.19275">
        <ele>632</ele>
        <time>2023-01-30T13:11:21.130Z</time>
      </trkpt>
      <trkpt lat="43.72646" lon="6.19274">
        <ele>632.2</ele>
        <time>2023-01-30T13:11:31.389Z</time>
      </trkpt>
      <trkpt lat="43.72651" lon="6.19272">
        <ele>632.3</ele>
        <time>2023-01-30T13:11:40.225Z</time>
      </trkpt>
      <trkpt lat="43.72657" lon="6.1927">
        <ele>632.5</ele>
        <time>2023-01-30T13:11:50.927Z</time>
      </trkpt>
      <trkpt lat="43.72661" lon="6.19263">
        <ele>632.4</ele>
        <time>2023-01-30T13:12:00.562Z</time>
      </trkpt>
      <trkpt lat="43.72665" lon="6.19258">
        <ele>632.3</ele>
        <time>2023-01-30T13:12:08.541Z</time>
      </trkpt>
      <trkpt lat="43.72671" lon="6.19253">
        <ele>632.1</ele>
        <time>2023-01-30T13:12:18.769Z</time>
      </trkpt>
      <trkpt lat="43.72676" lon="6.19248">
        <ele>632</ele>
        <time>2023-01-30T13:12:27.778Z</time>
      </trkpt>
      <trkpt lat="43.72682" lon="6.19241">
        <ele>631.8</ele>
        <time>2023-01-30T13:12:39.832Z</time>
      </trkpt>
      <trkpt lat="43.72688" lon="6.19233">
        <ele>631.9</ele>
        <time>2023-01-30T13:12:52.631Z</time>
      </trkpt>
      <trkpt lat="43.72693" lon="6.19228">
        <ele>631.9</ele>
        <time>2023-01-30T13:13:02.541Z</time>
      </trkpt>
      <trkpt lat="43.72697" lon="6.19223">
        <ele>632</ele>
        <time>2023-01-30T13:13:11.201Z</time>
      </trkpt>
      <trkpt lat="43.72703" lon="6.19217">
        <ele>631.9</ele>
        <time>2023-01-30T13:13:22.327Z</time>
      </trkpt>
      <trkpt lat="43.72709" lon="6.19212">
        <ele>631.8</ele>
        <time>2023-01-30T13:13:32.830Z</time>
      </trkpt>
      <trkpt lat="43.72714" lon="6.1921">
        <ele>631.9</ele>
        <time>2023-01-30T13:13:41.228Z</time>
      </trkpt>
      <trkpt lat="43.72719" lon="6.19208">
        <ele>631.9</ele>
        <time>2023-01-30T13:13:49.626Z</time>
      </trkpt>
      <trkpt lat="43.72725" lon="6.19205">
        <ele>632</ele>
        <time>2023-01-30T13:14:00.118Z</time>
      </trkpt>
      <trkpt lat="43.7273" lon="6.192">
        <ele>632</ele>
        <time>2023-01-30T13:14:09.780Z</time>
      </trkpt>
      <trkpt lat="43.72735" lon="6.19195">
        <ele>632</ele>
        <time>2023-01-30T13:14:19.443Z</time>
      </trkpt>
      <trkpt lat="43.72741" lon="6.19191">
        <ele>631.9</ele>
        <time>2023-01-30T13:14:29.407Z</time>
      </trkpt>
      <trkpt lat="43.72745" lon="6.19191">
        <ele>631.9</ele>
        <time>2023-01-30T13:14:35.672Z</time>
      </trkpt>
      <trkpt lat="43.72748" lon="6.19193">
        <ele>631.9</ele>
        <time>2023-01-30T13:14:40.888Z</time>
      </trkpt>
      <trkpt lat="43.72756" lon="6.19189">
        <ele>631.8</ele>
        <time>2023-01-30T13:14:53.741Z</time>
      </trkpt>
      <trkpt lat="43.7276" lon="6.19186">
        <ele>631.8</ele>
        <time>2023-01-30T13:15:00.868Z</time>
      </trkpt>
      <trkpt lat="43.72762" lon="6.19183">
        <ele>631.8</ele>
        <time>2023-01-30T13:15:05.487Z</time>
      </trkpt>
      <trkpt lat="43.72764" lon="6.19182">
        <ele>631.8</ele>
        <time>2023-01-30T13:15:08.818Z</time>
      </trkpt>
      <trkpt lat="43.72769" lon="6.19183">
        <ele>631.9</ele>
        <time>2023-01-30T13:15:17.235Z</time>
      </trkpt>
      <trkpt lat="43.72774" lon="6.19184">
        <ele>631.9</ele>
        <time>2023-01-30T13:15:25.394Z</time>
      </trkpt>
      <trkpt lat="43.72779" lon="6.19185">
        <ele>632</ele>
        <time>2023-01-30T13:15:33.553Z</time>
      </trkpt>
      <trkpt lat="43.72784" lon="6.19185">
        <ele>632</ele>
        <time>2023-01-30T13:15:41.385Z</time>
      </trkpt>
      <trkpt lat="43.72789" lon="6.19179">
        <ele>632</ele>
        <time>2023-01-30T13:15:51.751Z</time>
      </trkpt>
      <trkpt lat="43.72793" lon="6.19174">
        <ele>632</ele>
        <time>2023-01-30T13:16:00.193Z</time>
      </trkpt>
      <trkpt lat="43.72797" lon="6.19172">
        <ele>632</ele>
        <time>2023-01-30T13:16:06.855Z</time>
      </trkpt>
      <trkpt lat="43.72802" lon="6.19174">
        <ele>632</ele>
        <time>2023-01-30T13:16:15.007Z</time>
      </trkpt>
      <trkpt lat="43.72809" lon="6.19176">
        <ele>631.9</ele>
        <time>2023-01-30T13:16:25.735Z</time>
      </trkpt>
      <trkpt lat="43.72814" lon="6.19176">
        <ele>631.8</ele>
        <time>2023-01-30T13:16:33.104Z</time>
      </trkpt>
      <trkpt lat="43.72816" lon="6.19173">
        <ele>631.7</ele>
        <time>2023-01-30T13:16:37.275Z</time>
      </trkpt>
      <trkpt lat="43.72821" lon="6.19169">
        <ele>631.5</ele>
        <time>2023-01-30T13:16:45.425Z</time>
      </trkpt>
      <trkpt lat="43.72827" lon="6.19165">
        <ele>631.2</ele>
        <time>2023-01-30T13:16:54.552Z</time>
      </trkpt>
      <trkpt lat="43.72831" lon="6.19163">
        <ele>631.1</ele>
        <time>2023-01-30T13:17:00.755Z</time>
      </trkpt>
      <trkpt lat="43.72833" lon="6.19159">
        <ele>631</ele>
        <time>2023-01-30T13:17:05.807Z</time>
      </trkpt>
      <trkpt lat="43.72836" lon="6.19153">
        <ele>631</ele>
        <time>2023-01-30T13:17:14.065Z</time>
      </trkpt>
      <trkpt lat="43.72839" lon="6.19147">
        <ele>631</ele>
        <time>2023-01-30T13:17:22.323Z</time>
      </trkpt>
      <trkpt lat="43.72842" lon="6.19141">
        <ele>631</ele>
        <time>2023-01-30T13:17:30.345Z</time>
      </trkpt>
      <trkpt lat="43.72845" lon="6.19135">
        <ele>630.9</ele>
        <time>2023-01-30T13:17:38.368Z</time>
      </trkpt>
      <trkpt lat="43.7285" lon="6.19128">
        <ele>630.6</ele>
        <time>2023-01-30T13:17:48.184Z</time>
      </trkpt>
      <trkpt lat="43.72854" lon="6.19124">
        <ele>630.5</ele>
        <time>2023-01-30T13:17:55.452Z</time>
      </trkpt>
      <trkpt lat="43.72858" lon="6.19123">
        <ele>630.4</ele>
        <time>2023-01-30T13:18:01.361Z</time>
      </trkpt>
      <trkpt lat="43.72863" lon="6.19123">
        <ele>630.4</ele>
        <time>2023-01-30T13:18:09.193Z</time>
      </trkpt>
      <trkpt lat="43.72867" lon="6.19119">
        <ele>630.1</ele>
        <time>2023-01-30T13:18:15.956Z</time>
      </trkpt>
      <trkpt lat="43.72872" lon="6.19116">
        <ele>629.8</ele>
        <time>2023-01-30T13:18:23.425Z</time>
      </trkpt>
      <trkpt lat="43.72875" lon="6.19114">
        <ele>629.6</ele>
        <time>2023-01-30T13:18:27.989Z</time>
      </trkpt>
      <trkpt lat="43.72878" lon="6.19111">
        <ele>629.4</ele>
        <time>2023-01-30T13:18:33.062Z</time>
      </trkpt>
      <trkpt lat="43.7288" lon="6.19105">
        <ele>629.2</ele>
        <time>2023-01-30T13:18:39.657Z</time>
      </trkpt>
      <trkpt lat="43.72884" lon="6.19099">
        <ele>629.1</ele>
        <time>2023-01-30T13:18:48.432Z</time>
      </trkpt>
      <trkpt lat="43.72888" lon="6.19096">
        <ele>629</ele>
        <time>2023-01-30T13:18:55.317Z</time>
      </trkpt>
      <trkpt lat="43.72892" lon="6.19092">
        <ele>629</ele>
        <time>2023-01-30T13:19:02.786Z</time>
      </trkpt>
      <trkpt lat="43.72897" lon="6.19087">
        <ele>629</ele>
        <time>2023-01-30T13:19:12.448Z</time>
      </trkpt>
      <trkpt lat="43.72904" lon="6.19084">
        <ele>629</ele>
        <time>2023-01-30T13:19:23.926Z</time>
      </trkpt>
      <trkpt lat="43.72911" lon="6.19081">
        <ele>628.8</ele>
        <time>2023-01-30T13:19:34.431Z</time>
      </trkpt>
      <trkpt lat="43.72917" lon="6.19078">
        <ele>628.6</ele>
        <time>2023-01-30T13:19:43.577Z</time>
      </trkpt>
      <trkpt lat="43.72922" lon="6.19075">
        <ele>628.3</ele>
        <time>2023-01-30T13:19:51.324Z</time>
      </trkpt>
      <trkpt lat="43.72927" lon="6.19072">
        <ele>628.1</ele>
        <time>2023-01-30T13:19:59.071Z</time>
      </trkpt>
      <trkpt lat="43.72932" lon="6.19069">
        <ele>628</ele>
        <time>2023-01-30T13:20:06.819Z</time>
      </trkpt>
      <trkpt lat="43.72937" lon="6.19066">
        <ele>627.9</ele>
        <time>2023-01-30T13:20:14.567Z</time>
      </trkpt>
      <trkpt lat="43.72942" lon="6.19063">
        <ele>628</ele>
        <time>2023-01-30T13:20:23.349Z</time>
      </trkpt>
      <trkpt lat="43.72947" lon="6.1906">
        <ele>628</ele>
        <time>2023-01-30T13:20:32.131Z</time>
      </trkpt>
      <trkpt lat="43.72954" lon="6.19057">
        <ele>628</ele>
        <time>2023-01-30T13:20:43.609Z</time>
      </trkpt>
      <trkpt lat="43.72961" lon="6.19055">
        <ele>628</ele>
        <time>2023-01-30T13:20:54.804Z</time>
      </trkpt>
      <trkpt lat="43.72966" lon="6.19052">
        <ele>627.7</ele>
        <time>2023-01-30T13:21:02.273Z</time>
      </trkpt>
      <trkpt lat="43.7297" lon="6.19048">
        <ele>627.4</ele>
        <time>2023-01-30T13:21:09.037Z</time>
      </trkpt>
      <trkpt lat="43.72975" lon="6.19046">
        <ele>627.3</ele>
        <time>2023-01-30T13:21:16.419Z</time>
      </trkpt>
      <trkpt lat="43.72979" lon="6.19043">
        <ele>627.1</ele>
        <time>2023-01-30T13:21:22.872Z</time>
      </trkpt>
      <trkpt lat="43.72985" lon="6.1904">
        <ele>626.9</ele>
        <time>2023-01-30T13:21:31.962Z</time>
      </trkpt>
      <trkpt lat="43.72989" lon="6.19035">
        <ele>626.8</ele>
        <time>2023-01-30T13:21:39.942Z</time>
      </trkpt>
      <trkpt lat="43.72986" lon="6.19029">
        <ele>626.5</ele>
        <time>2023-01-30T13:21:46.997Z</time>
      </trkpt>
      <trkpt lat="43.72991" lon="6.19034">
        <ele>626.8</ele>
        <time>2023-01-30T13:21:57.460Z</time>
      </trkpt>
      <trkpt lat="43.72993" lon="6.19034">
        <ele>626.9</ele>
        <time>2023-01-30T13:22:02.247Z</time>
      </trkpt>
      <trkpt lat="43.72999" lon="6.19027">
        <ele>626.9</ele>
        <time>2023-01-30T13:22:14.487Z</time>
      </trkpt>
      <trkpt lat="43.73001" lon="6.19018">
        <ele>626.4</ele>
        <time>2023-01-30T13:22:22.975Z</time>
      </trkpt>
      <trkpt lat="43.73002" lon="6.19017">
        <ele>626.3</ele>
        <time>2023-01-30T13:22:24.853Z</time>
      </trkpt>
      <trkpt lat="43.73002" lon="6.19013">
        <ele>626.1</ele>
        <time>2023-01-30T13:22:28.347Z</time>
      </trkpt>
      <trkpt lat="43.73004" lon="6.19007">
        <ele>626</ele>
        <time>2023-01-30T13:22:35.509Z</time>
      </trkpt>
      <trkpt lat="43.73006" lon="6.19002">
        <ele>625.9</ele>
        <time>2023-01-30T13:22:41.705Z</time>
      </trkpt>
      <trkpt lat="43.73009" lon="6.18996">
        <ele>624.6</ele>
        <time>2023-01-30T13:22:48.469Z</time>
      </trkpt>
      <trkpt lat="43.7301" lon="6.18992">
        <ele>623.2</ele>
        <time>2023-01-30T13:22:52.985Z</time>
      </trkpt>
      <trkpt lat="43.73011" lon="6.18984">
        <ele>619.9</ele>
        <time>2023-01-30T13:23:01.288Z</time>
      </trkpt>
      <trkpt lat="43.73005" lon="6.18986">
        <ele>618.4</ele>
        <time>2023-01-30T13:23:09.471Z</time>
      </trkpt>
      <trkpt lat="43.73004" lon="6.18987">
        <ele>618.4</ele>
        <time>2023-01-30T13:23:12.453Z</time>
      </trkpt>
      <trkpt lat="43.73002" lon="6.18985">
        <ele>616.6</ele>
        <time>2023-01-30T13:23:15.789Z</time>
      </trkpt>
      <trkpt lat="43.72997" lon="6.18985">
        <ele>613.8</ele>
        <time>2023-01-30T13:23:21.376Z</time>
      </trkpt>
      <trkpt lat="43.72997" lon="6.18994">
        <ele>619.6</ele>
        <time>2023-01-30T13:24:14.045Z</time>
      </trkpt>
      <trkpt lat="43.72996" lon="6.19003">
        <ele>624.1</ele>
        <time>2023-01-30T13:25:07.335Z</time>
      </trkpt>
      <trkpt lat="43.7299" lon="6.19009">
        <ele>623.5</ele>
        <time>2023-01-30T13:25:17.435Z</time>
      </trkpt>
      <trkpt lat="43.72984" lon="6.19008">
        <ele>622</ele>
        <time>2023-01-30T13:25:25.872Z</time>
      </trkpt>
      <trkpt lat="43.72978" lon="6.19007">
        <ele>620.4</ele>
        <time>2023-01-30T13:25:34.310Z</time>
      </trkpt>
      <trkpt lat="43.72981" lon="6.19014">
        <ele>622.8</ele>
        <time>2023-01-30T13:25:59.572Z</time>
      </trkpt>
      <trkpt lat="43.72983" lon="6.19021">
        <ele>624.8</ele>
        <time>2023-01-30T13:26:22.937Z</time>
      </trkpt>
      <trkpt lat="43.72986" lon="6.19028">
        <ele>626.5</ele>
        <time>2023-01-30T13:26:48.199Z</time>
      </trkpt>
      <trkpt lat="43.72989" lon="6.19035">
        <ele>626.8</ele>
        <time>2023-01-30T13:27:13.462Z</time>
      </trkpt>
      <trkpt lat="43.72985" lon="6.1904">
        <ele>626.9</ele>
        <time>2023-01-30T13:27:22.406Z</time>
      </trkpt>
      <trkpt lat="43.72979" lon="6.19043">
        <ele>627.1</ele>
        <time>2023-01-30T13:27:33.432Z</time>
      </trkpt>
      <trkpt lat="43.72975" lon="6.19046">
        <ele>627.3</ele>
        <time>2023-01-30T13:27:41.239Z</time>
      </trkpt>
      <trkpt lat="43.7297" lon="6.19048">
        <ele>627.4</ele>
        <time>2023-01-30T13:27:50.171Z</time>
      </trkpt>
      <trkpt lat="43.72966" lon="6.19052">
        <ele>627.7</ele>
        <time>2023-01-30T13:27:59.560Z</time>
      </trkpt>
      <trkpt lat="43.72961" lon="6.19055">
        <ele>628</ele>
        <time>2023-01-30T13:28:09.732Z</time>
      </trkpt>
      <trkpt lat="43.72954" lon="6.19057">
        <ele>628</ele>
        <time>2023-01-30T13:28:20.927Z</time>
      </trkpt>
      <trkpt lat="43.72947" lon="6.1906">
        <ele>628</ele>
        <time>2023-01-30T13:28:32.405Z</time>
      </trkpt>
      <trkpt lat="43.72942" lon="6.19063">
        <ele>628</ele>
        <time>2023-01-30T13:28:40.704Z</time>
      </trkpt>
      <trkpt lat="43.72937" lon="6.19066">
        <ele>627.9</ele>
        <time>2023-01-30T13:28:49.004Z</time>
      </trkpt>
      <trkpt lat="43.72932" lon="6.19069">
        <ele>628</ele>
        <time>2023-01-30T13:28:58.445Z</time>
      </trkpt>
      <trkpt lat="43.72927" lon="6.19072">
        <ele>628.1</ele>
        <time>2023-01-30T13:29:07.886Z</time>
      </trkpt>
      <trkpt lat="43.72922" lon="6.19075">
        <ele>628.3</ele>
        <time>2023-01-30T13:29:17.328Z</time>
      </trkpt>
      <trkpt lat="43.72917" lon="6.19078">
        <ele>628.6</ele>
        <time>2023-01-30T13:29:26.771Z</time>
      </trkpt>
      <trkpt lat="43.72911" lon="6.19081">
        <ele>628.8</ele>
        <time>2023-01-30T13:29:37.718Z</time>
      </trkpt>
      <trkpt lat="43.72904" lon="6.19084">
        <ele>629</ele>
        <time>2023-01-30T13:29:50.293Z</time>
      </trkpt>
      <trkpt lat="43.72897" lon="6.19087">
        <ele>629</ele>
        <time>2023-01-30T13:30:01.771Z</time>
      </trkpt>
      <trkpt lat="43.72892" lon="6.19092">
        <ele>629</ele>
        <time>2023-01-30T13:30:11.433Z</time>
      </trkpt>
      <trkpt lat="43.72888" lon="6.19096">
        <ele>629</ele>
        <time>2023-01-30T13:30:19.403Z</time>
      </trkpt>
      <trkpt lat="43.72884" lon="6.19099">
        <ele>629.1</ele>
        <time>2023-01-30T13:30:26.751Z</time>
      </trkpt>
      <trkpt lat="43.7288" lon="6.19105">
        <ele>629.2</ele>
        <time>2023-01-30T13:30:36.491Z</time>
      </trkpt>
      <trkpt lat="43.72878" lon="6.19111">
        <ele>629.4</ele>
        <time>2023-01-30T13:30:45.028Z</time>
      </trkpt>
      <trkpt lat="43.72875" lon="6.19114">
        <ele>629.6</ele>
        <time>2023-01-30T13:30:51.914Z</time>
      </trkpt>
      <trkpt lat="43.72872" lon="6.19116">
        <ele>629.8</ele>
        <time>2023-01-30T13:30:58.234Z</time>
      </trkpt>
      <trkpt lat="43.72867" lon="6.19119">
        <ele>630.1</ele>
        <time>2023-01-30T13:31:08.407Z</time>
      </trkpt>
      <trkpt lat="43.72863" lon="6.19123">
        <ele>630.4</ele>
        <time>2023-01-30T13:31:17.795Z</time>
      </trkpt>
      <trkpt lat="43.72858" lon="6.19123">
        <ele>630.4</ele>
        <time>2023-01-30T13:31:25.627Z</time>
      </trkpt>
      <trkpt lat="43.72854" lon="6.19124">
        <ele>630.5</ele>
        <time>2023-01-30T13:31:32.502Z</time>
      </trkpt>
      <trkpt lat="43.7285" lon="6.19128">
        <ele>630.6</ele>
        <time>2023-01-30T13:31:40.736Z</time>
      </trkpt>
      <trkpt lat="43.72845" lon="6.19135">
        <ele>630.9</ele>
        <time>2023-01-30T13:31:53.465Z</time>
      </trkpt>
      <trkpt lat="43.72842" lon="6.19141">
        <ele>631</ele>
        <time>2023-01-30T13:32:01.969Z</time>
      </trkpt>
      <trkpt lat="43.72839" lon="6.19147">
        <ele>631</ele>
        <time>2023-01-30T13:32:10.474Z</time>
      </trkpt>
      <trkpt lat="43.72836" lon="6.19153">
        <ele>631</ele>
        <time>2023-01-30T13:32:18.731Z</time>
      </trkpt>
      <trkpt lat="43.72833" lon="6.19159">
        <ele>631</ele>
        <time>2023-01-30T13:32:26.990Z</time>
      </trkpt>
      <trkpt lat="43.72831" lon="6.19163">
        <ele>631.1</ele>
        <time>2023-01-30T13:32:33.009Z</time>
      </trkpt>
      <trkpt lat="43.72827" lon="6.19165">
        <ele>631.2</ele>
        <time>2023-01-30T13:32:40.179Z</time>
      </trkpt>
      <trkpt lat="43.72821" lon="6.19169">
        <ele>631.5</ele>
        <time>2023-01-30T13:32:52.209Z</time>
      </trkpt>
      <trkpt lat="43.72816" lon="6.19173">
        <ele>631.7</ele>
        <time>2023-01-30T13:33:02.296Z</time>
      </trkpt>
      <trkpt lat="43.72814" lon="6.19176">
        <ele>631.8</ele>
        <time>2023-01-30T13:33:07.436Z</time>
      </trkpt>
      <trkpt lat="43.72809" lon="6.19176">
        <ele>631.9</ele>
        <time>2023-01-30T13:33:15.771Z</time>
      </trkpt>
      <trkpt lat="43.72802" lon="6.19174">
        <ele>632</ele>
        <time>2023-01-30T13:33:27.464Z</time>
      </trkpt>
      <trkpt lat="43.72797" lon="6.19172">
        <ele>632</ele>
        <time>2023-01-30T13:33:35.616Z</time>
      </trkpt>
      <trkpt lat="43.72793" lon="6.19174">
        <ele>632</ele>
        <time>2023-01-30T13:33:42.277Z</time>
      </trkpt>
      <trkpt lat="43.72789" lon="6.19179">
        <ele>632</ele>
        <time>2023-01-30T13:33:50.720Z</time>
      </trkpt>
      <trkpt lat="43.72784" lon="6.19185">
        <ele>632</ele>
        <time>2023-01-30T13:34:01.086Z</time>
      </trkpt>
      <trkpt lat="43.72779" lon="6.19185">
        <ele>632</ele>
        <time>2023-01-30T13:34:08.918Z</time>
      </trkpt>
      <trkpt lat="43.72774" lon="6.19184">
        <ele>631.9</ele>
        <time>2023-01-30T13:34:16.594Z</time>
      </trkpt>
      <trkpt lat="43.72769" lon="6.19183">
        <ele>631.9</ele>
        <time>2023-01-30T13:34:24.271Z</time>
      </trkpt>
      <trkpt lat="43.72764" lon="6.19182">
        <ele>631.8</ele>
        <time>2023-01-30T13:34:31.722Z</time>
      </trkpt>
      <trkpt lat="43.72762" lon="6.19183">
        <ele>631.8</ele>
        <time>2023-01-30T13:34:35.053Z</time>
      </trkpt>
      <trkpt lat="43.7276" lon="6.19186">
        <ele>631.8</ele>
        <time>2023-01-30T13:34:39.673Z</time>
      </trkpt>
      <trkpt lat="43.72756" lon="6.19189">
        <ele>631.8</ele>
        <time>2023-01-30T13:34:46.799Z</time>
      </trkpt>
      <trkpt lat="43.72748" lon="6.19193">
        <ele>631.9</ele>
        <time>2023-01-30T13:35:00.617Z</time>
      </trkpt>
      <trkpt lat="43.72745" lon="6.19191">
        <ele>631.9</ele>
        <time>2023-01-30T13:35:05.833Z</time>
      </trkpt>
      <trkpt lat="43.72741" lon="6.19191">
        <ele>631.9</ele>
        <time>2023-01-30T13:35:12.098Z</time>
      </trkpt>
      <trkpt lat="43.72735" lon="6.19195">
        <ele>632</ele>
        <time>2023-01-30T13:35:23.028Z</time>
      </trkpt>
      <trkpt lat="43.7273" lon="6.192">
        <ele>632</ele>
        <time>2023-01-30T13:35:32.690Z</time>
      </trkpt>
      <trkpt lat="43.72725" lon="6.19205">
        <ele>632</ele>
        <time>2023-01-30T13:35:42.353Z</time>
      </trkpt>
      <trkpt lat="43.72719" lon="6.19208">
        <ele>631.9</ele>
        <time>2023-01-30T13:35:51.879Z</time>
      </trkpt>
      <trkpt lat="43.72714" lon="6.1921">
        <ele>631.9</ele>
        <time>2023-01-30T13:35:59.794Z</time>
      </trkpt>
      <trkpt lat="43.72709" lon="6.19212">
        <ele>631.8</ele>
        <time>2023-01-30T13:36:07.711Z</time>
      </trkpt>
      <trkpt lat="43.72703" lon="6.19217">
        <ele>631.9</ele>
        <time>2023-01-30T13:36:19.178Z</time>
      </trkpt>
      <trkpt lat="43.72697" lon="6.19223">
        <ele>632</ele>
        <time>2023-01-30T13:36:31.270Z</time>
      </trkpt>
      <trkpt lat="43.72693" lon="6.19228">
        <ele>631.9</ele>
        <time>2023-01-30T13:36:39.479Z</time>
      </trkpt>
      <trkpt lat="43.72688" lon="6.19233">
        <ele>631.9</ele>
        <time>2023-01-30T13:36:48.875Z</time>
      </trkpt>
      <trkpt lat="43.72682" lon="6.19241">
        <ele>631.8</ele>
        <time>2023-01-30T13:37:02.169Z</time>
      </trkpt>
      <trkpt lat="43.72676" lon="6.19248">
        <ele>632</ele>
        <time>2023-01-30T13:37:14.692Z</time>
      </trkpt>
      <trkpt lat="43.72671" lon="6.19253">
        <ele>632.1</ele>
        <time>2023-01-30T13:37:25.058Z</time>
      </trkpt>
      <trkpt lat="43.72665" lon="6.19258">
        <ele>632.3</ele>
        <time>2023-01-30T13:37:36.828Z</time>
      </trkpt>
      <trkpt lat="43.72661" lon="6.19263">
        <ele>632.4</ele>
        <time>2023-01-30T13:37:45.773Z</time>
      </trkpt>
      <trkpt lat="43.72657" lon="6.1927">
        <ele>632.5</ele>
        <time>2023-01-30T13:37:56.372Z</time>
      </trkpt>
      <trkpt lat="43.72651" lon="6.19272">
        <ele>632.3</ele>
        <time>2023-01-30T13:38:05.139Z</time>
      </trkpt>
      <trkpt lat="43.72646" lon="6.19274">
        <ele>632.2</ele>
        <time>2023-01-30T13:38:12.632Z</time>
      </trkpt>
      <trkpt lat="43.7264" lon="6.19275">
        <ele>632</ele>
        <time>2023-01-30T13:38:21.333Z</time>
      </trkpt>
      <trkpt lat="43.72635" lon="6.19278">
        <ele>632</ele>
        <time>2023-01-30T13:38:29.869Z</time>
      </trkpt>
      <trkpt lat="43.72632" lon="6.19281">
        <ele>632</ele>
        <time>2023-01-30T13:38:35.666Z</time>
      </trkpt>
      <trkpt lat="43.72626" lon="6.19283">
        <ele>632</ele>
        <time>2023-01-30T13:38:45.333Z</time>
      </trkpt>
      <trkpt lat="43.72622" lon="6.19283">
        <ele>632</ele>
        <time>2023-01-30T13:38:51.598Z</time>
      </trkpt>
      <trkpt lat="43.72617" lon="6.19287">
        <ele>632</ele>
        <time>2023-01-30T13:39:00.644Z</time>
      </trkpt>
      <trkpt lat="43.72611" lon="6.19293">
        <ele>632</ele>
        <time>2023-01-30T13:39:12.239Z</time>
      </trkpt>
      <trkpt lat="43.72605" lon="6.193">
        <ele>632</ele>
        <time>2023-01-30T13:39:24.531Z</time>
      </trkpt>
      <trkpt lat="43.72602" lon="6.19311">
        <ele>632</ele>
        <time>2023-01-30T13:39:37.839Z</time>
      </trkpt>
      <trkpt lat="43.72597" lon="6.1932">
        <ele>632</ele>
        <time>2023-01-30T13:39:50.689Z</time>
      </trkpt>
      <trkpt lat="43.72592" lon="6.19328">
        <ele>632</ele>
        <time>2023-01-30T13:40:02.648Z</time>
      </trkpt>
      <trkpt lat="43.72586" lon="6.19336">
        <ele>632</ele>
        <time>2023-01-30T13:40:15.685Z</time>
      </trkpt>
      <trkpt lat="43.72583" lon="6.19346">
        <ele>632</ele>
        <time>2023-01-30T13:40:28.159Z</time>
      </trkpt>
      <trkpt lat="43.72579" lon="6.19356">
        <ele>632.1</ele>
        <time>2023-01-30T13:40:41.327Z</time>
      </trkpt>
      <trkpt lat="43.72577" lon="6.19362">
        <ele>632.3</ele>
        <time>2023-01-30T13:40:49.721Z</time>
      </trkpt>
      <trkpt lat="43.72575" lon="6.19368">
        <ele>632.5</ele>
        <time>2023-01-30T13:40:58.115Z</time>
      </trkpt>
      <trkpt lat="43.72573" lon="6.19374">
        <ele>632.7</ele>
        <time>2023-01-30T13:41:06.509Z</time>
      </trkpt>
      <trkpt lat="43.72571" lon="6.1938">
        <ele>632.8</ele>
        <time>2023-01-30T13:41:14.904Z</time>
      </trkpt>
      <trkpt lat="43.72567" lon="6.19386">
        <ele>633</ele>
        <time>2023-01-30T13:41:25.184Z</time>
      </trkpt>
      <trkpt lat="43.72562" lon="6.19391">
        <ele>632.9</ele>
        <time>2023-01-30T13:41:34.380Z</time>
      </trkpt>
      <trkpt lat="43.72557" lon="6.19394">
        <ele>632.8</ele>
        <time>2023-01-30T13:41:42.664Z</time>
      </trkpt>
      <trkpt lat="43.72553" lon="6.19397">
        <ele>632.7</ele>
        <time>2023-01-30T13:41:49.580Z</time>
      </trkpt>
      <trkpt lat="43.72548" lon="6.194">
        <ele>632.7</ele>
        <time>2023-01-30T13:41:57.864Z</time>
      </trkpt>
      <trkpt lat="43.72543" lon="6.19403">
        <ele>632.7</ele>
        <time>2023-01-30T13:42:06.149Z</time>
      </trkpt>
      <trkpt lat="43.72539" lon="6.19407">
        <ele>632.7</ele>
        <time>2023-01-30T13:42:14.119Z</time>
      </trkpt>
      <trkpt lat="43.72535" lon="6.1941">
        <ele>632.8</ele>
        <time>2023-01-30T13:42:21.467Z</time>
      </trkpt>
      <trkpt lat="43.72526" lon="6.19412">
        <ele>633</ele>
        <time>2023-01-30T13:42:35.986Z</time>
      </trkpt>
      <trkpt lat="43.72518" lon="6.19413">
        <ele>633</ele>
        <time>2023-01-30T13:42:48.781Z</time>
      </trkpt>
      <trkpt lat="43.72509" lon="6.19415">
        <ele>633.1</ele>
        <time>2023-01-30T13:43:03.300Z</time>
      </trkpt>
      <trkpt lat="43.725" lon="6.19416">
        <ele>633</ele>
        <time>2023-01-30T13:43:17.683Z</time>
      </trkpt>
      <trkpt lat="43.72494" lon="6.19418">
        <ele>633.2</ele>
        <time>2023-01-30T13:43:28.210Z</time>
      </trkpt>
      <trkpt lat="43.72488" lon="6.1942">
        <ele>633.4</ele>
        <time>2023-01-30T13:43:38.737Z</time>
      </trkpt>
      <trkpt lat="43.72481" lon="6.19422">
        <ele>633.5</ele>
        <time>2023-01-30T13:43:50.929Z</time>
      </trkpt>
      <trkpt lat="43.72475" lon="6.19424">
        <ele>633.7</ele>
        <time>2023-01-30T13:44:01.458Z</time>
      </trkpt>
      <trkpt lat="43.7247" lon="6.19429">
        <ele>633.5</ele>
        <time>2023-01-30T13:44:10.377Z</time>
      </trkpt>
      <trkpt lat="43.72464" lon="6.19435">
        <ele>633.3</ele>
        <time>2023-01-30T13:44:21.080Z</time>
      </trkpt>
      <trkpt lat="43.72459" lon="6.1944">
        <ele>633.1</ele>
        <time>2023-01-30T13:44:30.000Z</time>
      </trkpt>
      <trkpt lat="43.72453" lon="6.19445">
        <ele>633</ele>
        <time>2023-01-30T13:44:40.128Z</time>
      </trkpt>
      <trkpt lat="43.72449" lon="6.19451">
        <ele>633</ele>
        <time>2023-01-30T13:44:49.358Z</time>
      </trkpt>
      <trkpt lat="43.72445" lon="6.19456">
        <ele>633</ele>
        <time>2023-01-30T13:44:57.792Z</time>
      </trkpt>
      <trkpt lat="43.72441" lon="6.1946">
        <ele>633</ele>
        <time>2023-01-30T13:45:05.522Z</time>
      </trkpt>
      <trkpt lat="43.72436" lon="6.19463">
        <ele>633</ele>
        <time>2023-01-30T13:45:14.058Z</time>
      </trkpt>
      <trkpt lat="43.72428" lon="6.19463">
        <ele>633</ele>
        <time>2023-01-30T13:45:26.589Z</time>
      </trkpt>
      <trkpt lat="43.72424" lon="6.1946">
        <ele>633</ele>
        <time>2023-01-30T13:45:33.714Z</time>
      </trkpt>
      <trkpt lat="43.72419" lon="6.19456">
        <ele>633</ele>
        <time>2023-01-30T13:45:42.760Z</time>
      </trkpt>
      <trkpt lat="43.72414" lon="6.19452">
        <ele>633</ele>
        <time>2023-01-30T13:45:51.794Z</time>
      </trkpt>
      <trkpt lat="43.72409" lon="6.19447">
        <ele>633</ele>
        <time>2023-01-30T13:46:01.445Z</time>
      </trkpt>
      <trkpt lat="43.72404" lon="6.19438">
        <ele>632.9</ele>
        <time>2023-01-30T13:46:13.435Z</time>
      </trkpt>
      <trkpt lat="43.72398" lon="6.19428">
        <ele>632.6</ele>
        <time>2023-01-30T13:46:27.164Z</time>
      </trkpt>
      <trkpt lat="43.72394" lon="6.19423">
        <ele>632.4</ele>
        <time>2023-01-30T13:46:34.567Z</time>
      </trkpt>
      <trkpt lat="43.72389" lon="6.19418">
        <ele>632.1</ele>
        <time>2023-01-30T13:46:43.041Z</time>
      </trkpt>
      <trkpt lat="43.72383" lon="6.19412">
        <ele>632</ele>
        <time>2023-01-30T13:46:54.168Z</time>
      </trkpt>
      <trkpt lat="43.72379" lon="6.19408">
        <ele>632</ele>
        <time>2023-01-30T13:47:01.898Z</time>
      </trkpt>
      <trkpt lat="43.72374" lon="6.19401">
        <ele>632</ele>
        <time>2023-01-30T13:47:12.818Z</time>
      </trkpt>
      <trkpt lat="43.72368" lon="6.19393">
        <ele>631.9</ele>
        <time>2023-01-30T13:47:25.612Z</time>
      </trkpt>
      <trkpt lat="43.72364" lon="6.19384">
        <ele>631.1</ele>
        <time>2023-01-30T13:47:36.077Z</time>
      </trkpt>
      <trkpt lat="43.72364" lon="6.19382">
        <ele>630.7</ele>
        <time>2023-01-30T13:47:38.058Z</time>
      </trkpt>
      <trkpt lat="43.72364" lon="6.19376">
        <ele>629.7</ele>
        <time>2023-01-30T13:47:44.001Z</time>
      </trkpt>
      <trkpt lat="43.72368" lon="6.19375">
        <ele>628.9</ele>
        <time>2023-01-30T13:47:49.572Z</time>
      </trkpt>
      <trkpt lat="43.7237" lon="6.19375">
        <ele>628.6</ele>
        <time>2023-01-30T13:47:52.313Z</time>
      </trkpt>
      <trkpt lat="43.72373" lon="6.19376">
        <ele>628.3</ele>
        <time>2023-01-30T13:47:56.542Z</time>
      </trkpt>
      <trkpt lat="43.72378" lon="6.19376">
        <ele>627.7</ele>
        <time>2023-01-30T13:48:03.375Z</time>
      </trkpt>
      <trkpt lat="43.72382" lon="6.19377">
        <ele>627.1</ele>
        <time>2023-01-30T13:48:08.930Z</time>
      </trkpt>
      <trkpt lat="43.72387" lon="6.19377">
        <ele>626.5</ele>
        <time>2023-01-30T13:48:15.763Z</time>
      </trkpt>
      <trkpt lat="43.72391" lon="6.19377">
        <ele>626.3</ele>
        <time>2023-01-30T13:48:21.231Z</time>
      </trkpt>
      <trkpt lat="43.72391" lon="6.19378">
        <ele>626.7</ele>
        <time>2023-01-30T13:48:27.174Z</time>
      </trkpt>
      <trkpt lat="43.72397" lon="6.19378">
        <ele>626.6</ele>
        <time>2023-01-30T13:48:36.091Z</time>
      </trkpt>
      <trkpt lat="43.72403" lon="6.19377">
        <ele>626.5</ele>
        <time>2023-01-30T13:48:45.073Z</time>
      </trkpt>
      <trkpt lat="43.7241" lon="6.19373">
        <ele>625.1</ele>
        <time>2023-01-30T13:48:55.452Z</time>
      </trkpt>
      <trkpt lat="43.72415" lon="6.19368">
        <ele>623.4</ele>
        <time>2023-01-30T13:49:03.907Z</time>
      </trkpt>
      <trkpt lat="43.72418" lon="6.19363">
        <ele>622</ele>
        <time>2023-01-30T13:49:10.343Z</time>
      </trkpt>
      <trkpt lat="43.7242" lon="6.19359">
        <ele>621</ele>
        <time>2023-01-30T13:49:15.161Z</time>
      </trkpt>
      <trkpt lat="43.72427" lon="6.19352">
        <ele>619.8</ele>
        <time>2023-01-30T13:49:26.998Z</time>
      </trkpt>
      <trkpt lat="43.72434" lon="6.19346">
        <ele>618.6</ele>
        <time>2023-01-30T13:49:38.275Z</time>
      </trkpt>
      <trkpt lat="43.7244" lon="6.1934">
        <ele>617.2</ele>
        <time>2023-01-30T13:49:48.415Z</time>
      </trkpt>
      <trkpt lat="43.72445" lon="6.19335">
        <ele>615.8</ele>
        <time>2023-01-30T13:49:56.857Z</time>
      </trkpt>
      <trkpt lat="43.72449" lon="6.1933">
        <ele>615.5</ele>
        <time>2023-01-30T13:50:04.233Z</time>
      </trkpt>
      <trkpt lat="43.72454" lon="6.19325">
        <ele>615.2</ele>
        <time>2023-01-30T13:50:12.675Z</time>
      </trkpt>
      <trkpt lat="43.72458" lon="6.1932">
        <ele>614.8</ele>
        <time>2023-01-30T13:50:20.053Z</time>
      </trkpt>
      <trkpt lat="43.72464" lon="6.19312">
        <ele>613.5</ele>
        <time>2023-01-30T13:50:31.458Z</time>
      </trkpt>
      <trkpt lat="43.72471" lon="6.19304">
        <ele>612.1</ele>
        <time>2023-01-30T13:50:43.885Z</time>
      </trkpt>
      <trkpt lat="43.72477" lon="6.19295">
        <ele>611.4</ele>
        <time>2023-01-30T13:50:55.998Z</time>
      </trkpt>
      <trkpt lat="43.72483" lon="6.19287">
        <ele>610.5</ele>
        <time>2023-01-30T13:51:07.405Z</time>
      </trkpt>
      <trkpt lat="43.72486" lon="6.19281">
        <ele>609.1</ele>
        <time>2023-01-30T13:51:14.631Z</time>
      </trkpt>
      <trkpt lat="43.72486" lon="6.19278">
        <ele>608.1</ele>
        <time>2023-01-30T13:51:17.602Z</time>
      </trkpt>
      <trkpt lat="43.72491" lon="6.19273">
        <ele>607.2</ele>
        <time>2023-01-30T13:51:26.057Z</time>
      </trkpt>
      <trkpt lat="43.72495" lon="6.19267">
        <ele>605.6</ele>
        <time>2023-01-30T13:51:34.122Z</time>
      </trkpt>
      <trkpt lat="43.72498" lon="6.19261">
        <ele>604</ele>
        <time>2023-01-30T13:51:41.331Z</time>
      </trkpt>
      <trkpt lat="43.72501" lon="6.19255">
        <ele>602.5</ele>
        <time>2023-01-30T13:51:48.546Z</time>
      </trkpt>
      <trkpt lat="43.72504" lon="6.1925">
        <ele>601.6</ele>
        <time>2023-01-30T13:51:54.973Z</time>
      </trkpt>
      <trkpt lat="43.72507" lon="6.19244">
        <ele>601.1</ele>
        <time>2023-01-30T13:52:02.188Z</time>
      </trkpt>
      <trkpt lat="43.72511" lon="6.19238">
        <ele>600.3</ele>
        <time>2023-01-30T13:52:10.261Z</time>
      </trkpt>
      <trkpt lat="43.72514" lon="6.19232">
        <ele>599.3</ele>
        <time>2023-01-30T13:52:17.476Z</time>
      </trkpt>
      <trkpt lat="43.72517" lon="6.19227">
        <ele>598.1</ele>
        <time>2023-01-30T13:52:23.903Z</time>
      </trkpt>
      <trkpt lat="43.7252" lon="6.19221">
        <ele>597</ele>
        <time>2023-01-30T13:52:31.119Z</time>
      </trkpt>
      <trkpt lat="43.72523" lon="6.19215">
        <ele>596.2</ele>
        <time>2023-01-30T13:52:38.336Z</time>
      </trkpt>
      <trkpt lat="43.72527" lon="6.19205">
        <ele>594.5</ele>
        <time>2023-01-30T13:52:49.637Z</time>
      </trkpt>
      <trkpt lat="43.72531" lon="6.19196">
        <ele>594.1</ele>
        <time>2023-01-30T13:53:00.084Z</time>
      </trkpt>
      <trkpt lat="43.72534" lon="6.19186">
        <ele>594.1</ele>
        <time>2023-01-30T13:53:10.790Z</time>
      </trkpt>
      <trkpt lat="43.72538" lon="6.19176">
        <ele>593.6</ele>
        <time>2023-01-30T13:53:22.093Z</time>
      </trkpt>
      <trkpt lat="43.7254" lon="6.19169">
        <ele>592.6</ele>
        <time>2023-01-30T13:53:29.546Z</time>
      </trkpt>
      <trkpt lat="43.72542" lon="6.19161">
        <ele>591</ele>
        <time>2023-01-30T13:53:37.928Z</time>
      </trkpt>
      <trkpt lat="43.72544" lon="6.19155">
        <ele>589.5</ele>
        <time>2023-01-30T13:53:44.472Z</time>
      </trkpt>
      <trkpt lat="43.72546" lon="6.19149">
        <ele>587.7</ele>
        <time>2023-01-30T13:53:51.017Z</time>
      </trkpt>
      <trkpt lat="43.72551" lon="6.19141">
        <ele>584.9</ele>
        <time>2023-01-30T13:54:01.457Z</time>
      </trkpt>
      <trkpt lat="43.72555" lon="6.19132">
        <ele>582.7</ele>
        <time>2023-01-30T13:54:11.888Z</time>
      </trkpt>
      <trkpt lat="43.72559" lon="6.19125">
        <ele>582.6</ele>
        <time>2023-01-30T13:54:20.706Z</time>
      </trkpt>
      <trkpt lat="43.72562" lon="6.19118">
        <ele>582.1</ele>
        <time>2023-01-30T13:54:28.749Z</time>
      </trkpt>
      <trkpt lat="43.72566" lon="6.19111">
        <ele>581</ele>
        <time>2023-01-30T13:54:37.582Z</time>
      </trkpt>
      <trkpt lat="43.7257" lon="6.19103">
        <ele>579.6</ele>
        <time>2023-01-30T13:54:47.212Z</time>
      </trkpt>
      <trkpt lat="43.72574" lon="6.19096">
        <ele>577.6</ele>
        <time>2023-01-30T13:54:56.046Z</time>
      </trkpt>
      <trkpt lat="43.72578" lon="6.19088">
        <ele>575.1</ele>
        <time>2023-01-30T13:55:05.677Z</time>
      </trkpt>
      <trkpt lat="43.72581" lon="6.19083">
        <ele>573.3</ele>
        <time>2023-01-30T13:55:12.094Z</time>
      </trkpt>
      <trkpt lat="43.72585" lon="6.19078">
        <ele>572.6</ele>
        <time>2023-01-30T13:55:19.460Z</time>
      </trkpt>
      <trkpt lat="43.72588" lon="6.19073">
        <ele>572.2</ele>
        <time>2023-01-30T13:55:25.877Z</time>
      </trkpt>
      <trkpt lat="43.72591" lon="6.19068">
        <ele>571.6</ele>
        <time>2023-01-30T13:55:32.294Z</time>
      </trkpt>
      <trkpt lat="43.72594" lon="6.19062">
        <ele>570.7</ele>
        <time>2023-01-30T13:55:39.499Z</time>
      </trkpt>
      <trkpt lat="43.72598" lon="6.19057">
        <ele>569.4</ele>
        <time>2023-01-30T13:55:46.865Z</time>
      </trkpt>
      <trkpt lat="43.72601" lon="6.19052">
        <ele>568.5</ele>
        <time>2023-01-30T13:55:53.283Z</time>
      </trkpt>
      <trkpt lat="43.72604" lon="6.19047">
        <ele>567.7</ele>
        <time>2023-01-30T13:55:59.702Z</time>
      </trkpt>
      <trkpt lat="43.72607" lon="6.19042">
        <ele>566.7</ele>
        <time>2023-01-30T13:56:06.125Z</time>
      </trkpt>
      <trkpt lat="43.72611" lon="6.19037">
        <ele>565.5</ele>
        <time>2023-01-30T13:56:13.497Z</time>
      </trkpt>
      <trkpt lat="43.72614" lon="6.19032">
        <ele>564</ele>
        <time>2023-01-30T13:56:19.920Z</time>
      </trkpt>
      <trkpt lat="43.72617" lon="6.19027">
        <ele>562.5</ele>
        <time>2023-01-30T13:56:26.344Z</time>
      </trkpt>
      <trkpt lat="43.72622" lon="6.19021">
        <ele>561.8</ele>
        <time>2023-01-30T13:56:35.392Z</time>
      </trkpt>
      <trkpt lat="43.72627" lon="6.19016">
        <ele>561</ele>
        <time>2023-01-30T13:56:43.826Z</time>
      </trkpt>
      <trkpt lat="43.72631" lon="6.1901">
        <ele>560</ele>
        <time>2023-01-30T13:56:51.891Z</time>
      </trkpt>
      <trkpt lat="43.72636" lon="6.19004">
        <ele>558.9</ele>
        <time>2023-01-30T13:57:00.941Z</time>
      </trkpt>
      <trkpt lat="43.7264" lon="6.18999">
        <ele>557.8</ele>
        <time>2023-01-30T13:57:08.319Z</time>
      </trkpt>
      <trkpt lat="43.72644" lon="6.18993">
        <ele>557.4</ele>
        <time>2023-01-30T13:57:16.394Z</time>
      </trkpt>
      <trkpt lat="43.72647" lon="6.18988">
        <ele>556.9</ele>
        <time>2023-01-30T13:57:22.822Z</time>
      </trkpt>
      <trkpt lat="43.72651" lon="6.18982">
        <ele>556.6</ele>
        <time>2023-01-30T13:57:30.898Z</time>
      </trkpt>
      <trkpt lat="43.72655" lon="6.18973">
        <ele>555.6</ele>
        <time>2023-01-30T13:57:41.362Z</time>
      </trkpt>
      <trkpt lat="43.72657" lon="6.18961">
        <ele>554.2</ele>
        <time>2023-01-30T13:57:53.559Z</time>
      </trkpt>
      <trkpt lat="43.72656" lon="6.18955">
        <ele>553.1</ele>
        <time>2023-01-30T13:57:59.657Z</time>
      </trkpt>
      <trkpt lat="43.72654" lon="6.18948">
        <ele>551.7</ele>
        <time>2023-01-30T13:58:07.112Z</time>
      </trkpt>
      <trkpt lat="43.72652" lon="6.18941">
        <ele>550</ele>
        <time>2023-01-30T13:58:14.567Z</time>
      </trkpt>
      <trkpt lat="43.72649" lon="6.18932">
        <ele>547.3</ele>
        <time>2023-01-30T13:58:24.383Z</time>
      </trkpt>
      <trkpt lat="43.72656" lon="6.18927">
        <ele>547.1</ele>
        <time>2023-01-30T13:58:35.808Z</time>
      </trkpt>
      <trkpt lat="43.72661" lon="6.1892">
        <ele>545.9</ele>
        <time>2023-01-30T13:58:45.551Z</time>
      </trkpt>
      <trkpt lat="43.72666" lon="6.18913">
        <ele>544.7</ele>
        <time>2023-01-30T13:58:55.294Z</time>
      </trkpt>
      <trkpt lat="43.72671" lon="6.18905">
        <ele>543.3</ele>
        <time>2023-01-30T13:59:05.765Z</time>
      </trkpt>
      <trkpt lat="43.72676" lon="6.18898">
        <ele>542.1</ele>
        <time>2023-01-30T13:59:15.510Z</time>
      </trkpt>
      <trkpt lat="43.72681" lon="6.1889">
        <ele>540.7</ele>
        <time>2023-01-30T13:59:25.981Z</time>
      </trkpt>
      <trkpt lat="43.72686" lon="6.18881">
        <ele>539.5</ele>
        <time>2023-01-30T13:59:37.220Z</time>
      </trkpt>
      <trkpt lat="43.7269" lon="6.18874">
        <ele>538.3</ele>
        <time>2023-01-30T13:59:46.053Z</time>
      </trkpt>
      <trkpt lat="43.72694" lon="6.18866">
        <ele>537.2</ele>
        <time>2023-01-30T13:59:55.684Z</time>
      </trkpt>
      <trkpt lat="43.72697" lon="6.18859">
        <ele>536.2</ele>
        <time>2023-01-30T14:00:03.741Z</time>
      </trkpt>
      <trkpt lat="43.727" lon="6.18851">
        <ele>535.8</ele>
        <time>2023-01-30T14:00:12.664Z</time>
      </trkpt>
      <trkpt lat="43.72703" lon="6.18843">
        <ele>535.4</ele>
        <time>2023-01-30T14:00:21.605Z</time>
      </trkpt>
      <trkpt lat="43.72706" lon="6.18834">
        <ele>535.3</ele>
        <time>2023-01-30T14:00:31.439Z</time>
      </trkpt>
      <trkpt lat="43.72708" lon="6.18827">
        <ele>534.8</ele>
        <time>2023-01-30T14:00:38.882Z</time>
      </trkpt>
      <trkpt lat="43.72711" lon="6.18819">
        <ele>534</ele>
        <time>2023-01-30T14:00:47.794Z</time>
      </trkpt>
      <trkpt lat="43.72713" lon="6.18812">
        <ele>533.2</ele>
        <time>2023-01-30T14:00:55.238Z</time>
      </trkpt>
      <trkpt lat="43.72715" lon="6.18804">
        <ele>532.1</ele>
        <time>2023-01-30T14:01:03.610Z</time>
      </trkpt>
      <trkpt lat="43.72719" lon="6.18795">
        <ele>531.2</ele>
        <time>2023-01-30T14:01:14.074Z</time>
      </trkpt>
      <trkpt lat="43.72723" lon="6.18787">
        <ele>530.1</ele>
        <time>2023-01-30T14:01:23.709Z</time>
      </trkpt>
      <trkpt lat="43.72727" lon="6.18784">
        <ele>529.8</ele>
        <time>2023-01-30T14:01:29.931Z</time>
      </trkpt>
      <trkpt lat="43.72731" lon="6.1878">
        <ele>529.4</ele>
        <time>2023-01-30T14:01:36.681Z</time>
      </trkpt>
      <trkpt lat="43.72736" lon="6.18777">
        <ele>529.2</ele>
        <time>2023-01-30T14:01:44.137Z</time>
      </trkpt>
      <trkpt lat="43.72741" lon="6.18773">
        <ele>528.6</ele>
        <time>2023-01-30T14:01:52.040Z</time>
      </trkpt>
      <trkpt lat="43.72747" lon="6.18765">
        <ele>526.4</ele>
        <time>2023-01-30T14:02:03.459Z</time>
      </trkpt>
      <trkpt lat="43.72752" lon="6.18756">
        <ele>523.1</ele>
        <time>2023-01-30T14:02:14.698Z</time>
      </trkpt>
      <trkpt lat="43.72757" lon="6.18746">
        <ele>520.4</ele>
        <time>2023-01-30T14:02:26.738Z</time>
      </trkpt>
      <trkpt lat="43.7276" lon="6.18738">
        <ele>518.4</ele>
        <time>2023-01-30T14:02:35.664Z</time>
      </trkpt>
      <trkpt lat="43.72763" lon="6.1873">
        <ele>516.5</ele>
        <time>2023-01-30T14:02:44.591Z</time>
      </trkpt>
      <trkpt lat="43.72768" lon="6.18722">
        <ele>514.9</ele>
        <time>2023-01-30T14:02:55.066Z</time>
      </trkpt>
      <trkpt lat="43.72773" lon="6.18714">
        <ele>513.4</ele>
        <time>2023-01-30T14:03:05.541Z</time>
      </trkpt>
      <trkpt lat="43.72776" lon="6.18709">
        <ele>512.6</ele>
        <time>2023-01-30T14:03:11.970Z</time>
      </trkpt>
      <trkpt lat="43.72779" lon="6.18705">
        <ele>511.6</ele>
        <time>2023-01-30T14:03:17.673Z</time>
      </trkpt>
      <trkpt lat="43.72782" lon="6.187">
        <ele>510.5</ele>
        <time>2023-01-30T14:03:24.103Z</time>
      </trkpt>
      <trkpt lat="43.72785" lon="6.18695">
        <ele>509.4</ele>
        <time>2023-01-30T14:03:30.533Z</time>
      </trkpt>
      <trkpt lat="43.72792" lon="6.18688">
        <ele>507.8</ele>
        <time>2023-01-30T14:03:42.369Z</time>
      </trkpt>
      <trkpt lat="43.72797" lon="6.18681">
        <ele>506</ele>
        <time>2023-01-30T14:03:52.117Z</time>
      </trkpt>
      <trkpt lat="43.72802" lon="6.18676">
        <ele>504.6</ele>
        <time>2023-01-30T14:04:00.571Z</time>
      </trkpt>
      <trkpt lat="43.72807" lon="6.18671">
        <ele>503.3</ele>
        <time>2023-01-30T14:04:09.026Z</time>
      </trkpt>
      <trkpt lat="43.72811" lon="6.18666">
        <ele>502</ele>
        <time>2023-01-30T14:04:16.404Z</time>
      </trkpt>
      <trkpt lat="43.72816" lon="6.18661">
        <ele>500.9</ele>
        <time>2023-01-30T14:04:24.848Z</time>
      </trkpt>
      <trkpt lat="43.7282" lon="6.18656">
        <ele>499.8</ele>
        <time>2023-01-30T14:04:32.227Z</time>
      </trkpt>
      <trkpt lat="43.72824" lon="6.18651">
        <ele>498.7</ele>
        <time>2023-01-30T14:04:39.606Z</time>
      </trkpt>
      <trkpt lat="43.72828" lon="6.18647">
        <ele>497.7</ele>
        <time>2023-01-30T14:04:46.316Z</time>
      </trkpt>
      <trkpt lat="43.72831" lon="6.18642">
        <ele>496.7</ele>
        <time>2023-01-30T14:04:52.701Z</time>
      </trkpt>
      <trkpt lat="43.72835" lon="6.18638">
        <ele>495.9</ele>
        <time>2023-01-30T14:04:59.411Z</time>
      </trkpt>
      <trkpt lat="43.72838" lon="6.18633">
        <ele>495.5</ele>
        <time>2023-01-30T14:05:05.797Z</time>
      </trkpt>
      <trkpt lat="43.72844" lon="6.18625">
        <ele>494.7</ele>
        <time>2023-01-30T14:05:17.216Z</time>
      </trkpt>
      <trkpt lat="43.72846" lon="6.1862">
        <ele>493.8</ele>
        <time>2023-01-30T14:05:22.876Z</time>
      </trkpt>
      <trkpt lat="43.72848" lon="6.18613">
        <ele>492.5</ele>
        <time>2023-01-30T14:05:30.331Z</time>
      </trkpt>
      <trkpt lat="43.72848" lon="6.18601">
        <ele>490.3</ele>
        <time>2023-01-30T14:05:42.215Z</time>
      </trkpt>
      <trkpt lat="43.72854" lon="6.18599">
        <ele>490.6</ele>
        <time>2023-01-30T14:05:52.591Z</time>
      </trkpt>
      <trkpt lat="43.72861" lon="6.18597">
        <ele>491</ele>
        <time>2023-01-30T14:06:04.608Z</time>
      </trkpt>
      <trkpt lat="43.72867" lon="6.18595">
        <ele>491.3</ele>
        <time>2023-01-30T14:06:14.984Z</time>
      </trkpt>
      <trkpt lat="43.72874" lon="6.18594">
        <ele>491.5</ele>
        <time>2023-01-30T14:06:26.816Z</time>
      </trkpt>
      <trkpt lat="43.7288" lon="6.18592">
        <ele>491.7</ele>
        <time>2023-01-30T14:06:37.193Z</time>
      </trkpt>
      <trkpt lat="43.72886" lon="6.1859">
        <ele>491.9</ele>
        <time>2023-01-30T14:06:47.570Z</time>
      </trkpt>
      <trkpt lat="43.72893" lon="6.18588">
        <ele>491.8</ele>
        <time>2023-01-30T14:06:59.588Z</time>
      </trkpt>
      <trkpt lat="43.72899" lon="6.18586">
        <ele>491.5</ele>
        <time>2023-01-30T14:07:09.966Z</time>
      </trkpt>
      <trkpt lat="43.72905" lon="6.18585">
        <ele>491.3</ele>
        <time>2023-01-30T14:07:18.457Z</time>
      </trkpt>
      <trkpt lat="43.7291" lon="6.18584">
        <ele>491.1</ele>
        <time>2023-01-30T14:07:25.556Z</time>
      </trkpt>
      <trkpt lat="43.72915" lon="6.18584">
        <ele>491.1</ele>
        <time>2023-01-30T14:07:33.387Z</time>
      </trkpt>
      <trkpt lat="43.7292" lon="6.18584">
        <ele>491.1</ele>
        <time>2023-01-30T14:07:41.219Z</time>
      </trkpt>
      <trkpt lat="43.72928" lon="6.18585">
        <ele>491.3</ele>
        <time>2023-01-30T14:07:54.819Z</time>
      </trkpt>
      <trkpt lat="43.72936" lon="6.18586">
        <ele>491.5</ele>
        <time>2023-01-30T14:08:08.419Z</time>
      </trkpt>
      <trkpt lat="43.72944" lon="6.18587">
        <ele>491.7</ele>
        <time>2023-01-30T14:08:21.245Z</time>
      </trkpt>
      <trkpt lat="43.72952" lon="6.18588">
        <ele>491.6</ele>
        <time>2023-01-30T14:08:34.071Z</time>
      </trkpt>
      <trkpt lat="43.7296" lon="6.18588">
        <ele>491.3</ele>
        <time>2023-01-30T14:08:45.169Z</time>
      </trkpt>
      <trkpt lat="43.72967" lon="6.18587">
        <ele>491</ele>
        <time>2023-01-30T14:08:54.933Z</time>
      </trkpt>
      <trkpt lat="43.72975" lon="6.18586">
        <ele>490.7</ele>
        <time>2023-01-30T14:09:07.045Z</time>
      </trkpt>
      <trkpt lat="43.72983" lon="6.18585">
        <ele>490.8</ele>
        <time>2023-01-30T14:09:19.157Z</time>
      </trkpt>
      <trkpt lat="43.72988" lon="6.18584">
        <ele>490.6</ele>
        <time>2023-01-30T14:09:26.529Z</time>
      </trkpt>
      <trkpt lat="43.72992" lon="6.18582">
        <ele>490.6</ele>
        <time>2023-01-30T14:09:32.736Z</time>
      </trkpt>
      <trkpt lat="43.73" lon="6.18579">
        <ele>490.3</ele>
        <time>2023-01-30T14:09:44.085Z</time>
      </trkpt>
      <trkpt lat="43.73008" lon="6.18575">
        <ele>489.8</ele>
        <time>2023-01-30T14:09:55.734Z</time>
      </trkpt>
      <trkpt lat="43.73013" lon="6.18573">
        <ele>489.4</ele>
        <time>2023-01-30T14:10:02.825Z</time>
      </trkpt>
      <trkpt lat="43.73017" lon="6.1857">
        <ele>489.1</ele>
        <time>2023-01-30T14:10:09.025Z</time>
      </trkpt>
      <trkpt lat="43.73022" lon="6.18567">
        <ele>488.6</ele>
        <time>2023-01-30T14:10:16.481Z</time>
      </trkpt>
      <trkpt lat="43.73027" lon="6.18563">
        <ele>488.1</ele>
        <time>2023-01-30T14:10:24.384Z</time>
      </trkpt>
      <trkpt lat="43.7303" lon="6.1856">
        <ele>487.8</ele>
        <time>2023-01-30T14:10:29.457Z</time>
      </trkpt>
      <trkpt lat="43.73035" lon="6.18556">
        <ele>487.6</ele>
        <time>2023-01-30T14:10:37.606Z</time>
      </trkpt>
      <trkpt lat="43.7304" lon="6.18551">
        <ele>487.2</ele>
        <time>2023-01-30T14:10:46.051Z</time>
      </trkpt>
      <trkpt lat="43.73045" lon="6.18545">
        <ele>487</ele>
        <time>2023-01-30T14:10:55.113Z</time>
      </trkpt>
      <trkpt lat="43.73049" lon="6.1854">
        <ele>486.7</ele>
        <time>2023-01-30T14:11:03.035Z</time>
      </trkpt>
      <trkpt lat="43.73053" lon="6.18536">
        <ele>486.5</ele>
        <time>2023-01-30T14:11:10.288Z</time>
      </trkpt>
      <trkpt lat="43.73056" lon="6.18531">
        <ele>486.5</ele>
        <time>2023-01-30T14:11:17.190Z</time>
      </trkpt>
      <trkpt lat="43.7306" lon="6.18526">
        <ele>486.6</ele>
        <time>2023-01-30T14:11:25.114Z</time>
      </trkpt>
      <trkpt lat="43.73065" lon="6.18519">
        <ele>486.4</ele>
        <time>2023-01-30T14:11:35.462Z</time>
      </trkpt>
      <trkpt lat="43.7307" lon="6.18512">
        <ele>486.2</ele>
        <time>2023-01-30T14:11:45.810Z</time>
      </trkpt>
      <trkpt lat="43.73075" lon="6.18504">
        <ele>486</ele>
        <time>2023-01-30T14:11:56.931Z</time>
      </trkpt>
      <trkpt lat="43.7308" lon="6.18497">
        <ele>485.9</ele>
        <time>2023-01-30T14:12:07.280Z</time>
      </trkpt>
      <trkpt lat="43.73084" lon="6.18491">
        <ele>486.2</ele>
        <time>2023-01-30T14:12:18.140Z</time>
      </trkpt>
      <trkpt lat="43.73088" lon="6.18486">
        <ele>486.3</ele>
        <time>2023-01-30T14:12:27.085Z</time>
      </trkpt>
      <trkpt lat="43.73093" lon="6.18479">
        <ele>486.3</ele>
        <time>2023-01-30T14:12:36.931Z</time>
      </trkpt>
      <trkpt lat="43.73098" lon="6.18473">
        <ele>486.1</ele>
        <time>2023-01-30T14:12:46.093Z</time>
      </trkpt>
      <trkpt lat="43.73102" lon="6.18466">
        <ele>485.5</ele>
        <time>2023-01-30T14:12:55.021Z</time>
      </trkpt>
      <trkpt lat="43.73107" lon="6.18459">
        <ele>485.2</ele>
        <time>2023-01-30T14:13:04.868Z</time>
      </trkpt>
      <trkpt lat="43.73113" lon="6.18453">
        <ele>485.4</ele>
        <time>2023-01-30T14:13:16.672Z</time>
      </trkpt>
      <trkpt lat="43.73118" lon="6.18446">
        <ele>485.3</ele>
        <time>2023-01-30T14:13:28.015Z</time>
      </trkpt>
      <trkpt lat="43.73124" lon="6.18442">
        <ele>485.4</ele>
        <time>2023-01-30T14:13:38.944Z</time>
      </trkpt>
      <trkpt lat="43.73125" lon="6.18441">
        <ele>485.3</ele>
        <time>2023-01-30T14:13:40.635Z</time>
      </trkpt>
      <trkpt lat="43.73131" lon="6.18437">
        <ele>485.4</ele>
        <time>2023-01-30T14:13:51.565Z</time>
      </trkpt>
      <trkpt lat="43.73137" lon="6.18436">
        <ele>486.2</ele>
        <time>2023-01-30T14:14:06.308Z</time>
      </trkpt>
      <trkpt lat="43.7314" lon="6.18435">
        <ele>486.2</ele>
        <time>2023-01-30T14:14:11.141Z</time>
      </trkpt>
      <trkpt lat="43.73148" lon="6.18435">
        <ele>485.4</ele>
        <time>2023-01-30T14:14:22.105Z</time>
      </trkpt>
      <trkpt lat="43.73153" lon="6.18436">
        <ele>485.1</ele>
        <time>2023-01-30T14:14:29.011Z</time>
      </trkpt>
      <trkpt lat="43.73157" lon="6.18436">
        <ele>484.7</ele>
        <time>2023-01-30T14:14:34.480Z</time>
      </trkpt>
      <trkpt lat="43.73162" lon="6.18439">
        <ele>484.7</ele>
        <time>2023-01-30T14:14:42.746Z</time>
      </trkpt>
      <trkpt lat="43.73166" lon="6.18441">
        <ele>484.6</ele>
        <time>2023-01-30T14:14:49.198Z</time>
      </trkpt>
      <trkpt lat="43.73171" lon="6.18444">
        <ele>484.5</ele>
        <time>2023-01-30T14:14:58.275Z</time>
      </trkpt>
      <trkpt lat="43.73175" lon="6.18447">
        <ele>484.8</ele>
        <time>2023-01-30T14:15:05.853Z</time>
      </trkpt>
      <trkpt lat="43.73179" lon="6.18451">
        <ele>485.2</ele>
        <time>2023-01-30T14:15:15.042Z</time>
      </trkpt>
      <trkpt lat="43.73182" lon="6.18455">
        <ele>485.3</ele>
        <time>2023-01-30T14:15:22.800Z</time>
      </trkpt>
      <trkpt lat="43.73185" lon="6.1846">
        <ele>485.2</ele>
        <time>2023-01-30T14:15:29.234Z</time>
      </trkpt>
      <trkpt lat="43.73189" lon="6.18466">
        <ele>484.9</ele>
        <time>2023-01-30T14:15:37.316Z</time>
      </trkpt>
      <trkpt lat="43.73192" lon="6.18471">
        <ele>484.1</ele>
        <time>2023-01-30T14:15:43.750Z</time>
      </trkpt>
      <trkpt lat="43.73195" lon="6.18476">
        <ele>483.8</ele>
        <time>2023-01-30T14:15:50.185Z</time>
      </trkpt>
      <trkpt lat="43.732" lon="6.18483">
        <ele>484.5</ele>
        <time>2023-01-30T14:16:04.616Z</time>
      </trkpt>
      <trkpt lat="43.73205" lon="6.18489">
        <ele>485.1</ele>
        <time>2023-01-30T14:16:18.043Z</time>
      </trkpt>
      <trkpt lat="43.7321" lon="6.18496">
        <ele>485.6</ele>
        <time>2023-01-30T14:16:32.474Z</time>
      </trkpt>
      <trkpt lat="43.73215" lon="6.18502">
        <ele>486</ele>
        <time>2023-01-30T14:16:45.903Z</time>
      </trkpt>
      <trkpt lat="43.73221" lon="6.18509">
        <ele>486</ele>
        <time>2023-01-30T14:16:57.686Z</time>
      </trkpt>
      <trkpt lat="43.73226" lon="6.18515">
        <ele>485.8</ele>
        <time>2023-01-30T14:17:07.624Z</time>
      </trkpt>
      <trkpt lat="43.73231" lon="6.18523">
        <ele>486</ele>
        <time>2023-01-30T14:17:21.022Z</time>
      </trkpt>
      <trkpt lat="43.73237" lon="6.1853">
        <ele>486.4</ele>
        <time>2023-01-30T14:17:34.779Z</time>
      </trkpt>
      <trkpt lat="43.73242" lon="6.18538">
        <ele>486.8</ele>
        <time>2023-01-30T14:17:48.177Z</time>
      </trkpt>
      <trkpt lat="43.73247" lon="6.18545">
        <ele>486.9</ele>
        <time>2023-01-30T14:18:00.646Z</time>
      </trkpt>
      <trkpt lat="43.73248" lon="6.18547">
        <ele>487</ele>
        <time>2023-01-30T14:18:03.947Z</time>
      </trkpt>
      <trkpt lat="43.73253" lon="6.18553">
        <ele>487</ele>
        <time>2023-01-30T14:18:16.143Z</time>
      </trkpt>
      <trkpt lat="43.73259" lon="6.18559">
        <ele>487.7</ele>
        <time>2023-01-30T14:18:29.785Z</time>
      </trkpt>
      <trkpt lat="43.73264" lon="6.18565">
        <ele>488.2</ele>
        <time>2023-01-30T14:18:41.981Z</time>
      </trkpt>
      <trkpt lat="43.73269" lon="6.18571">
        <ele>488.4</ele>
        <time>2023-01-30T14:18:54.178Z</time>
      </trkpt>
      <trkpt lat="43.73275" lon="6.18576">
        <ele>487.7</ele>
        <time>2023-01-30T14:19:03.777Z</time>
      </trkpt>
      <trkpt lat="43.73281" lon="6.18581">
        <ele>487.3</ele>
        <time>2023-01-30T14:19:13.376Z</time>
      </trkpt>
      <trkpt lat="43.73289" lon="6.18587">
        <ele>487.7</ele>
        <time>2023-01-30T14:19:30.401Z</time>
      </trkpt>
      <trkpt lat="43.73297" lon="6.18592">
        <ele>488.3</ele>
        <time>2023-01-30T14:19:46.826Z</time>
      </trkpt>
      <trkpt lat="43.73305" lon="6.18596">
        <ele>488.2</ele>
        <time>2023-01-30T14:20:00.408Z</time>
      </trkpt>
      <trkpt lat="43.73312" lon="6.18599">
        <ele>488.4</ele>
        <time>2023-01-30T14:20:12.109Z</time>
      </trkpt>
      <trkpt lat="43.73318" lon="6.18601">
        <ele>488.3</ele>
        <time>2023-01-30T14:20:21.089Z</time>
      </trkpt>
      <trkpt lat="43.73324" lon="6.18603">
        <ele>488.1</ele>
        <time>2023-01-30T14:20:30.069Z</time>
      </trkpt>
      <trkpt lat="43.73331" lon="6.18604">
        <ele>487.5</ele>
        <time>2023-01-30T14:20:39.713Z</time>
      </trkpt>
      <trkpt lat="43.73338" lon="6.18605">
        <ele>487.4</ele>
        <time>2023-01-30T14:20:49.358Z</time>
      </trkpt>
      <trkpt lat="43.73346" lon="6.18605">
        <ele>487.4</ele>
        <time>2023-01-30T14:21:02.132Z</time>
      </trkpt>
      <trkpt lat="43.73354" lon="6.18605">
        <ele>487.5</ele>
        <time>2023-01-30T14:21:14.907Z</time>
      </trkpt>
      <trkpt lat="43.73359" lon="6.18605">
        <ele>487.5</ele>
        <time>2023-01-30T14:21:23.301Z</time>
      </trkpt>
      <trkpt lat="43.73363" lon="6.18605">
        <ele>487.7</ele>
        <time>2023-01-30T14:21:30.017Z</time>
      </trkpt>
      <trkpt lat="43.73368" lon="6.18605">
        <ele>487.9</ele>
        <time>2023-01-30T14:21:38.534Z</time>
      </trkpt>
      <trkpt lat="43.73372" lon="6.18604">
        <ele>488.1</ele>
        <time>2023-01-30T14:21:45.458Z</time>
      </trkpt>
      <trkpt lat="43.73377" lon="6.18604">
        <ele>488.3</ele>
        <time>2023-01-30T14:21:53.975Z</time>
      </trkpt>
      <trkpt lat="43.73381" lon="6.18604">
        <ele>488.5</ele>
        <time>2023-01-30T14:22:00.789Z</time>
      </trkpt>
      <trkpt lat="43.73386" lon="6.18603">
        <ele>488.7</ele>
        <time>2023-01-30T14:22:09.395Z</time>
      </trkpt>
      <trkpt lat="43.7339" lon="6.18603">
        <ele>488.8</ele>
        <time>2023-01-30T14:22:16.209Z</time>
      </trkpt>
      <trkpt lat="43.73395" lon="6.18602">
        <ele>488.7</ele>
        <time>2023-01-30T14:22:24.816Z</time>
      </trkpt>
      <trkpt lat="43.73399" lon="6.18602">
        <ele>488.7</ele>
        <time>2023-01-30T14:22:31.631Z</time>
      </trkpt>
      <trkpt lat="43.73404" lon="6.18602">
        <ele>488.7</ele>
        <time>2023-01-30T14:22:38.470Z</time>
      </trkpt>
      <trkpt lat="43.73409" lon="6.18602">
        <ele>488.6</ele>
        <time>2023-01-30T14:22:45.309Z</time>
      </trkpt>
      <trkpt lat="43.73414" lon="6.18601">
        <ele>488.6</ele>
        <time>2023-01-30T14:22:52.219Z</time>
      </trkpt>
      <trkpt lat="43.73419" lon="6.18601">
        <ele>488.3</ele>
        <time>2023-01-30T14:22:59.058Z</time>
      </trkpt>
      <trkpt lat="43.73424" lon="6.18601">
        <ele>487.7</ele>
        <time>2023-01-30T14:23:05.897Z</time>
      </trkpt>
      <trkpt lat="43.73429" lon="6.18601">
        <ele>487.2</ele>
        <time>2023-01-30T14:23:12.736Z</time>
      </trkpt>
      <trkpt lat="43.73434" lon="6.186">
        <ele>486.7</ele>
        <time>2023-01-30T14:23:19.647Z</time>
      </trkpt>
      <trkpt lat="43.73439" lon="6.186">
        <ele>486.1</ele>
        <time>2023-01-30T14:23:26.487Z</time>
      </trkpt>
      <trkpt lat="43.73447" lon="6.186">
        <ele>485.3</ele>
        <time>2023-01-30T14:23:37.440Z</time>
      </trkpt>
      <trkpt lat="43.73455" lon="6.18599">
        <ele>484.4</ele>
        <time>2023-01-30T14:23:48.438Z</time>
      </trkpt>
      <trkpt lat="43.73462" lon="6.18599">
        <ele>483.7</ele>
        <time>2023-01-30T14:23:58.031Z</time>
      </trkpt>
      <trkpt lat="43.73469" lon="6.18599">
        <ele>482.9</ele>
        <time>2023-01-30T14:24:07.625Z</time>
      </trkpt>
      <trkpt lat="43.73477" lon="6.18598">
        <ele>482.2</ele>
        <time>2023-01-30T14:24:18.634Z</time>
      </trkpt>
      <trkpt lat="43.73485" lon="6.18597">
        <ele>481.6</ele>
        <time>2023-01-30T14:24:29.643Z</time>
      </trkpt>
      <trkpt lat="43.73489" lon="6.18596">
        <ele>481.4</ele>
        <time>2023-01-30T14:24:35.213Z</time>
      </trkpt>
      <trkpt lat="43.73493" lon="6.18595">
        <ele>481.3</ele>
        <time>2023-01-30T14:24:41.122Z</time>
      </trkpt>
      <trkpt lat="43.73499" lon="6.18592">
        <ele>481.5</ele>
        <time>2023-01-30T14:24:52.148Z</time>
      </trkpt>
      <trkpt lat="43.73504" lon="6.18587">
        <ele>482.4</ele>
        <time>2023-01-30T14:25:07.960Z</time>
      </trkpt>
      <trkpt lat="43.73508" lon="6.18583">
        <ele>482.9</ele>
        <time>2023-01-30T14:25:15.628Z</time>
      </trkpt>
      <trkpt lat="43.73511" lon="6.18578">
        <ele>482.4</ele>
        <time>2023-01-30T14:25:22.925Z</time>
      </trkpt>
      <trkpt lat="43.73515" lon="6.18572">
        <ele>482.1</ele>
        <time>2023-01-30T14:25:31.009Z</time>
      </trkpt>
      <trkpt lat="43.73516" lon="6.18569">
        <ele>482</ele>
        <time>2023-01-30T14:25:34.307Z</time>
      </trkpt>
      <trkpt lat="43.7352" lon="6.1856">
        <ele>482.2</ele>
        <time>2023-01-30T14:25:47.286Z</time>
      </trkpt>
      <trkpt lat="43.73522" lon="6.1855">
        <ele>482.8</ele>
        <time>2023-01-30T14:26:02.502Z</time>
      </trkpt>
      <trkpt lat="43.73524" lon="6.18539">
        <ele>483.8</ele>
        <time>2023-01-30T14:26:21.763Z</time>
      </trkpt>
      <trkpt lat="43.73524" lon="6.18531">
        <ele>484.2</ele>
        <time>2023-01-30T14:26:33.073Z</time>
      </trkpt>
      <trkpt lat="43.73524" lon="6.18529">
        <ele>484.3</ele>
        <time>2023-01-30T14:26:35.900Z</time>
      </trkpt>
      <trkpt lat="43.73524" lon="6.18521">
        <ele>484.6</ele>
        <time>2023-01-30T14:26:46.578Z</time>
      </trkpt>
      <trkpt lat="43.73522" lon="6.18512">
        <ele>484.8</ele>
        <time>2023-01-30T14:26:58.264Z</time>
      </trkpt>
      <trkpt lat="43.7352" lon="6.18505">
        <ele>484.9</ele>
        <time>2023-01-30T14:27:07.551Z</time>
      </trkpt>
      <trkpt lat="43.73518" lon="6.18498">
        <ele>485.1</ele>
        <time>2023-01-30T14:27:16.839Z</time>
      </trkpt>
      <trkpt lat="43.73513" lon="6.18488">
        <ele>485.5</ele>
        <time>2023-01-30T14:27:32.736Z</time>
      </trkpt>
      <trkpt lat="43.7351" lon="6.18482">
        <ele>485.6</ele>
        <time>2023-01-30T14:27:41.495Z</time>
      </trkpt>
      <trkpt lat="43.73507" lon="6.18476">
        <ele>485.7</ele>
        <time>2023-01-30T14:27:50.256Z</time>
      </trkpt>
      <trkpt lat="43.73503" lon="6.18469">
        <ele>485.7</ele>
        <time>2023-01-30T14:27:59.863Z</time>
      </trkpt>
      <trkpt lat="43.735" lon="6.18462">
        <ele>485.6</ele>
        <time>2023-01-30T14:28:08.624Z</time>
      </trkpt>
      <trkpt lat="43.73496" lon="6.18455">
        <ele>485.5</ele>
        <time>2023-01-30T14:28:18.231Z</time>
      </trkpt>
      <trkpt lat="43.73492" lon="6.18448">
        <ele>485.3</ele>
        <time>2023-01-30T14:28:27.840Z</time>
      </trkpt>
      <trkpt lat="43.73487" lon="6.18439">
        <ele>485.5</ele>
        <time>2023-01-30T14:28:43.025Z</time>
      </trkpt>
      <trkpt lat="43.73481" lon="6.1843">
        <ele>486.2</ele>
        <time>2023-01-30T14:28:59.405Z</time>
      </trkpt>
      <trkpt lat="43.73475" lon="6.18422">
        <ele>486.5</ele>
        <time>2023-01-30T14:29:14.021Z</time>
      </trkpt>
      <trkpt lat="43.73469" lon="6.18417">
        <ele>486.5</ele>
        <time>2023-01-30T14:29:24.991Z</time>
      </trkpt>
      <trkpt lat="43.73462" lon="6.18411">
        <ele>486.4</ele>
        <time>2023-01-30T14:29:37.418Z</time>
      </trkpt>
      <trkpt lat="43.73458" lon="6.18408">
        <ele>486.3</ele>
        <time>2023-01-30T14:29:44.116Z</time>
      </trkpt>
      <trkpt lat="43.73453" lon="6.18405">
        <ele>486.2</ele>
        <time>2023-01-30T14:29:52.141Z</time>
      </trkpt>
      <trkpt lat="43.73448" lon="6.18402">
        <ele>486</ele>
        <time>2023-01-30T14:30:00.040Z</time>
      </trkpt>
      <trkpt lat="43.73442" lon="6.18399">
        <ele>485.9</ele>
        <time>2023-01-30T14:30:09.289Z</time>
      </trkpt>
      <trkpt lat="43.73436" lon="6.18395">
        <ele>486.3</ele>
        <time>2023-01-30T14:30:22.920Z</time>
      </trkpt>
      <trkpt lat="43.73429" lon="6.1839">
        <ele>487.1</ele>
        <time>2023-01-30T14:30:39.045Z</time>
      </trkpt>
      <trkpt lat="43.73425" lon="6.18387">
        <ele>487.6</ele>
        <time>2023-01-30T14:30:48.530Z</time>
      </trkpt>
      <trkpt lat="43.73421" lon="6.18384">
        <ele>487.9</ele>
        <time>2023-01-30T14:30:58.017Z</time>
      </trkpt>
      <trkpt lat="43.73417" lon="6.1838">
        <ele>488.3</ele>
        <time>2023-01-30T14:31:05.746Z</time>
      </trkpt>
      <trkpt lat="43.73413" lon="6.18376">
        <ele>487.9</ele>
        <time>2023-01-30T14:31:13.477Z</time>
      </trkpt>
      <trkpt lat="43.7341" lon="6.18372">
        <ele>487.5</ele>
        <time>2023-01-30T14:31:19.171Z</time>
      </trkpt>
      <trkpt lat="43.73406" lon="6.18368">
        <ele>487.2</ele>
        <time>2023-01-30T14:31:25.918Z</time>
      </trkpt>
      <trkpt lat="43.73403" lon="6.18363">
        <ele>487.2</ele>
        <time>2023-01-30T14:31:33.270Z</time>
      </trkpt>
      <trkpt lat="43.73399" lon="6.18357">
        <ele>487.2</ele>
        <time>2023-01-30T14:31:42.507Z</time>
      </trkpt>
      <trkpt lat="43.73395" lon="6.18349">
        <ele>487.4</ele>
        <time>2023-01-30T14:31:54.275Z</time>
      </trkpt>
      <trkpt lat="43.73391" lon="6.18341">
        <ele>487.5</ele>
        <time>2023-01-30T14:32:06.044Z</time>
      </trkpt>
      <trkpt lat="43.73387" lon="6.18331">
        <ele>487.6</ele>
        <time>2023-01-30T14:32:18.170Z</time>
      </trkpt>
      <trkpt lat="43.73384" lon="6.1832">
        <ele>487</ele>
        <time>2023-01-30T14:32:30.644Z</time>
      </trkpt>
      <trkpt lat="43.7338" lon="6.1831">
        <ele>486.6</ele>
        <time>2023-01-30T14:32:42.771Z</time>
      </trkpt>
      <trkpt lat="43.73376" lon="6.18299">
        <ele>486.8</ele>
        <time>2023-01-30T14:32:55.837Z</time>
      </trkpt>
      <trkpt lat="43.73373" lon="6.1829">
        <ele>487.2</ele>
        <time>2023-01-30T14:33:07.497Z</time>
      </trkpt>
      <trkpt lat="43.7337" lon="6.1828">
        <ele>487.8</ele>
        <time>2023-01-30T14:33:20.235Z</time>
      </trkpt>
      <trkpt lat="43.73366" lon="6.18271">
        <ele>487.6</ele>
        <time>2023-01-30T14:33:32.666Z</time>
      </trkpt>
      <trkpt lat="43.73363" lon="6.18261">
        <ele>487.2</ele>
        <time>2023-01-30T14:33:45.405Z</time>
      </trkpt>
      <trkpt lat="43.73361" lon="6.18253">
        <ele>486.7</ele>
        <time>2023-01-30T14:33:53.765Z</time>
      </trkpt>
      <trkpt lat="43.73358" lon="6.18245">
        <ele>486.2</ele>
        <time>2023-01-30T14:34:02.668Z</time>
      </trkpt>
      <trkpt lat="43.73357" lon="6.18239">
        <ele>485.9</ele>
        <time>2023-01-30T14:34:08.748Z</time>
      </trkpt>
      <trkpt lat="43.73355" lon="6.18232">
        <ele>485.7</ele>
        <time>2023-01-30T14:34:16.182Z</time>
      </trkpt>
      <trkpt lat="43.73354" lon="6.18224">
        <ele>485.6</ele>
        <time>2023-01-30T14:34:25.146Z</time>
      </trkpt>
      <trkpt lat="43.73353" lon="6.18215">
        <ele>485.6</ele>
        <time>2023-01-30T14:34:35.201Z</time>
      </trkpt>
      <trkpt lat="43.73352" lon="6.18207">
        <ele>485.7</ele>
        <time>2023-01-30T14:34:44.242Z</time>
      </trkpt>
      <trkpt lat="43.73352" lon="6.182">
        <ele>485.7</ele>
        <time>2023-01-30T14:34:52.037Z</time>
      </trkpt>
      <trkpt lat="43.73351" lon="6.18192">
        <ele>485.7</ele>
        <time>2023-01-30T14:35:01.079Z</time>
      </trkpt>
      <trkpt lat="43.7335" lon="6.18184">
        <ele>485.6</ele>
        <time>2023-01-30T14:35:10.122Z</time>
      </trkpt>
      <trkpt lat="43.73349" lon="6.18172">
        <ele>485.4</ele>
        <time>2023-01-30T14:35:23.095Z</time>
      </trkpt>
      <trkpt lat="43.73348" lon="6.1816">
        <ele>485.2</ele>
        <time>2023-01-30T14:35:36.069Z</time>
      </trkpt>
      <trkpt lat="43.73347" lon="6.18149">
        <ele>484.9</ele>
        <time>2023-01-30T14:35:47.738Z</time>
      </trkpt>
      <trkpt lat="43.73346" lon="6.18137">
        <ele>484.8</ele>
        <time>2023-01-30T14:36:00.454Z</time>
      </trkpt>
      <trkpt lat="43.73345" lon="6.18129">
        <ele>484.9</ele>
        <time>2023-01-30T14:36:10.112Z</time>
      </trkpt>
      <trkpt lat="43.73344" lon="6.1812">
        <ele>485</ele>
        <time>2023-01-30T14:36:20.946Z</time>
      </trkpt>
      <trkpt lat="43.73343" lon="6.18113">
        <ele>485</ele>
        <time>2023-01-30T14:36:29.022Z</time>
      </trkpt>
      <trkpt lat="43.73343" lon="6.18109">
        <ele>485.2</ele>
        <time>2023-01-30T14:36:34.677Z</time>
      </trkpt>
      <trkpt lat="43.73341" lon="6.181">
        <ele>485.5</ele>
        <time>2023-01-30T14:36:46.929Z</time>
      </trkpt>
      <trkpt lat="43.73338" lon="6.18091">
        <ele>485.5</ele>
        <time>2023-01-30T14:36:58.147Z</time>
      </trkpt>
      <trkpt lat="43.73336" lon="6.18085">
        <ele>485.5</ele>
        <time>2023-01-30T14:37:05.625Z</time>
      </trkpt>
      <trkpt lat="43.73334" lon="6.18079">
        <ele>485.4</ele>
        <time>2023-01-30T14:37:12.482Z</time>
      </trkpt>
      <trkpt lat="43.73331" lon="6.18072">
        <ele>485.2</ele>
        <time>2023-01-30T14:37:20.930Z</time>
      </trkpt>
      <trkpt lat="43.73329" lon="6.18067">
        <ele>485</ele>
        <time>2023-01-30T14:37:27.039Z</time>
      </trkpt>
      <trkpt lat="43.73326" lon="6.18062">
        <ele>484.9</ele>
        <time>2023-01-30T14:37:33.986Z</time>
      </trkpt>
      <trkpt lat="43.73324" lon="6.18056">
        <ele>484.8</ele>
        <time>2023-01-30T14:37:41.049Z</time>
      </trkpt>
      <trkpt lat="43.73321" lon="6.18051">
        <ele>484.9</ele>
        <time>2023-01-30T14:37:47.997Z</time>
      </trkpt>
      <trkpt lat="43.73316" lon="6.18042">
        <ele>485</ele>
        <time>2023-01-30T14:38:00.064Z</time>
      </trkpt>
      <trkpt lat="43.73311" lon="6.18033">
        <ele>485.2</ele>
        <time>2023-01-30T14:38:12.131Z</time>
      </trkpt>
      <trkpt lat="43.73305" lon="6.18023">
        <ele>485.1</ele>
        <time>2023-01-30T14:38:25.948Z</time>
      </trkpt>
      <trkpt lat="43.733" lon="6.18014">
        <ele>484.2</ele>
        <time>2023-01-30T14:38:38.016Z</time>
      </trkpt>
      <trkpt lat="43.73297" lon="6.18007">
        <ele>484.1</ele>
        <time>2023-01-30T14:38:46.762Z</time>
      </trkpt>
      <trkpt lat="43.73294" lon="6.18001">
        <ele>484.2</ele>
        <time>2023-01-30T14:38:56.764Z</time>
      </trkpt>
      <trkpt lat="43.73292" lon="6.17996">
        <ele>484.6</ele>
        <time>2023-01-30T14:39:04.598Z</time>
      </trkpt>
      <trkpt lat="43.73289" lon="6.1799">
        <ele>485</ele>
        <time>2023-01-30T14:39:14.600Z</time>
      </trkpt>
      <trkpt lat="43.73286" lon="6.17984">
        <ele>485.3</ele>
        <time>2023-01-30T14:39:24.604Z</time>
      </trkpt>
      <trkpt lat="43.73284" lon="6.17979">
        <ele>485.5</ele>
        <time>2023-01-30T14:39:30.563Z</time>
      </trkpt>
      <trkpt lat="43.73281" lon="6.17973">
        <ele>485.6</ele>
        <time>2023-01-30T14:39:38.172Z</time>
      </trkpt>
      <trkpt lat="43.73279" lon="6.17968">
        <ele>485.3</ele>
        <time>2023-01-30T14:39:44.132Z</time>
      </trkpt>
      <trkpt lat="43.73276" lon="6.17962">
        <ele>484.8</ele>
        <time>2023-01-30T14:39:51.742Z</time>
      </trkpt>
      <trkpt lat="43.73274" lon="6.17954">
        <ele>484.3</ele>
        <time>2023-01-30T14:40:00.114Z</time>
      </trkpt>
      <trkpt lat="43.73271" lon="6.17945">
        <ele>483.8</ele>
        <time>2023-01-30T14:40:09.918Z</time>
      </trkpt>
      <trkpt lat="43.73269" lon="6.17941">
        <ele>483.5</ele>
        <time>2023-01-30T14:40:14.735Z</time>
      </trkpt>
      <trkpt lat="43.73266" lon="6.17931">
        <ele>483.8</ele>
        <time>2023-01-30T14:40:28.116Z</time>
      </trkpt>
      <trkpt lat="43.73264" lon="6.17921">
        <ele>484</ele>
        <time>2023-01-30T14:40:40.939Z</time>
      </trkpt>
      <trkpt lat="43.73261" lon="6.1791">
        <ele>484.2</ele>
        <time>2023-01-30T14:40:55.470Z</time>
      </trkpt>
      <trkpt lat="43.73258" lon="6.179">
        <ele>484.4</ele>
        <time>2023-01-30T14:41:08.853Z</time>
      </trkpt>
      <trkpt lat="43.73256" lon="6.17889">
        <ele>484.8</ele>
        <time>2023-01-30T14:41:21.669Z</time>
      </trkpt>
      <trkpt lat="43.73253" lon="6.17878">
        <ele>484.4</ele>
        <time>2023-01-30T14:41:34.955Z</time>
      </trkpt>
      <trkpt lat="43.73252" lon="6.17872">
        <ele>484.1</ele>
        <time>2023-01-30T14:41:41.020Z</time>
      </trkpt>
      <trkpt lat="43.7325" lon="6.17866">
        <ele>483.8</ele>
        <time>2023-01-30T14:41:47.529Z</time>
      </trkpt>
      <trkpt lat="43.73249" lon="6.1786">
        <ele>483.6</ele>
        <time>2023-01-30T14:41:53.595Z</time>
      </trkpt>
      <trkpt lat="43.73247" lon="6.17854">
        <ele>483.2</ele>
        <time>2023-01-30T14:42:00.105Z</time>
      </trkpt>
      <trkpt lat="43.73245" lon="6.17845">
        <ele>482.9</ele>
        <time>2023-01-30T14:42:09.443Z</time>
      </trkpt>
      <trkpt lat="43.73243" lon="6.17834">
        <ele>482.7</ele>
        <time>2023-01-30T14:42:21.365Z</time>
      </trkpt>
      <trkpt lat="43.73242" lon="6.17827">
        <ele>482.6</ele>
        <time>2023-01-30T14:42:28.801Z</time>
      </trkpt>
      <trkpt lat="43.73241" lon="6.17819">
        <ele>482.4</ele>
        <time>2023-01-30T14:42:37.262Z</time>
      </trkpt>
      <trkpt lat="43.73241" lon="6.17809">
        <ele>482.3</ele>
        <time>2023-01-30T14:42:47.980Z</time>
      </trkpt>
      <trkpt lat="43.73241" lon="6.17799">
        <ele>482.2</ele>
        <time>2023-01-30T14:42:58.698Z</time>
      </trkpt>
      <trkpt lat="43.7324" lon="6.17789">
        <ele>482.1</ele>
        <time>2023-01-30T14:43:09.518Z</time>
      </trkpt>
      <trkpt lat="43.7324" lon="6.17779">
        <ele>481.9</ele>
        <time>2023-01-30T14:43:20.237Z</time>
      </trkpt>
      <trkpt lat="43.73241" lon="6.17772">
        <ele>482.2</ele>
        <time>2023-01-30T14:43:29.733Z</time>
      </trkpt>
      <trkpt lat="43.73241" lon="6.17765">
        <ele>482.5</ele>
        <time>2023-01-30T14:43:39.049Z</time>
      </trkpt>
      <trkpt lat="43.73242" lon="6.17757">
        <ele>482.8</ele>
        <time>2023-01-30T14:43:49.853Z</time>
      </trkpt>
      <trkpt lat="43.73242" lon="6.1775">
        <ele>483</ele>
        <time>2023-01-30T14:43:59.170Z</time>
      </trkpt>
      <trkpt lat="43.73243" lon="6.17743">
        <ele>483</ele>
        <time>2023-01-30T14:44:07.246Z</time>
      </trkpt>
      <trkpt lat="43.73246" lon="6.17732">
        <ele>483</ele>
        <time>2023-01-30T14:44:20.526Z</time>
      </trkpt>
      <trkpt lat="43.7325" lon="6.17722">
        <ele>483</ele>
        <time>2023-01-30T14:44:33.437Z</time>
      </trkpt>
      <trkpt lat="43.73253" lon="6.17711">
        <ele>483.1</ele>
        <time>2023-01-30T14:44:46.718Z</time>
      </trkpt>
      <trkpt lat="43.73256" lon="6.177">
        <ele>483</ele>
        <time>2023-01-30T14:45:00.000Z</time>
      </trkpt>
    </trkseg>
  </trk>
</gpx>